GFSCGP_700_rhum_000.txt.gz
RH
97 99 97 96 89 74 71 49 42 36 33 33 36 40 35 28 30 32 32 30 25 26 27 22 20 19 22 25 26 26 25 25 25 23 16 18 19 21 28 38 42 45 47 47
98 97 87 92 75 79 77 52 42 38 40 41 40 35 31 28 32 34 35 30 29 29 24 23 22 24 26 27 27 26 26 25 24 23 20 19 22 26 28 31 36 45 46 44
100 98 94 87 92 88 70 45 48 46 45 42 39 35 35 34 35 36 28 26 26 23 22 24 26 29 29 28 27 26 25 25 26 26 24 24 26 28 33 35 36 41 44 44
99 97 85 96 90 79 52 51 48 44 46 42 42 42 35 34 35 30 26 24 23 23 26 30 30 28 28 27 27 28 32 35 33 30 33 36 36 30 26 26 30 34 37 35
87 94 84 95 63 51 50 52 48 42 44 43 39 43 36 36 34 32 30 27 24 26 30 28 28 29 30 30 30 33 36 32 29 25 23 23 27 33 37 33 28 27 26 27
87 91 84 75 53 58 53 47 48 48 47 52 36 39 34 30 22 30 31 30 26 29 30 30 32 32 33 33 34 36 35 33 32 29 24 25 33 40 40 38 36 35 36 36
74 85 52 50 58 50 48 55 52 55 58 60 38 40 28 29 26 28 29 30 29 29 30 32 33 35 35 35 36 35 33 29 29 29 28 31 32 32 34 38 42 45 46 47
76 65 58 57 54 50 47 52 49 64 70 54 37 36 31 28 29 30 34 36 34 34 32 34 37 37 38 37 33 32 40 40 38 37 38 39 40 41 42 42 43 43 43 43
64 54 56 52 50 47 46 47 47 50 52 51 41 38 35 33 28 32 32 33 36 38 35 38 38 37 36 34 39 43 44 43 42 43 45 44 45 47 48 48 48 47 46 44
48 51 53 50 51 51 46 44 48 50 54 53 43 38 36 32 32 32 32 34 36 34 36 41 44 42 39 42 45 48 46 49 50 49 51 51 53 56 58 59 58 55 52 50
42 42 52 51 52 50 50 48 46 44 42 55 54 39 34 32 33 33 35 36 37 38 44 46 44 42 44 53 54 51 51 54 54 56 57 59 61 62 63 62 59 57 57 56
54 46 50 58 53 51 52 48 46 39 43 43 42 36 34 33 35 37 37 43 43 48 49 45 42 49 58 56 53 54 54 57 61 63 64 62 64 65 66 66 63 60 58 56
64 61 67 66 64 60 57 53 52 47 44 45 48 38 35 35 38 45 46 48 50 50 46 50 57 60 55 54 54 56 59 64 67 66 67 70 71 69 68 63 58 56 54 50
64 62 55 59 54 56 57 53 50 49 44 41 40 36 35 37 38 45 47 41 40 45 54 59 58 57 56 56 64 71 76 75 73 73 73 74 77 75 71 63 59 55 48 38
58 57 51 48 46 52 54 52 48 45 43 40 34 31 29 34 37 33 31 39 55 57 57 58 61 61 65 65 67 70 67 70 76 82 82 80 76 75 67 62 55 41 22 12
53 55 50 47 45 41 40 44 45 44 43 36 29 22 40 46 46 48 54 56 55 57 59 61 64 68 71 67 73 86 85 88 89 89 86 81 77 73 68 48 25 14 12 12
46 35 46 29 28 24 30 31 32 29 26 36 48 49 49 49 52 54 57 60 62 62 66 68 72 74 72 81 84 85 75 71 74 91 89 83 80 70 47 24 15 13 13 13
32 28 24 31 37 60 43 50 51 53 54 54 56 57 57 55 54 61 64 64 66 70 73 70 77 77 79 81 86 90 77 77 90 90 83 82 74 51 28 15 14 16 16 16
26 30 41 55 60 51 52 50 52 54 57 57 56 55 56 55 52 60 64 66 68 69 69 80 83 86 93 99 98 86 79 89 94 90 84 66 38 19 14 16 17 20 21 22
60 62 60 65 64 69 56 57 53 50 58 50 51 54 60 56 59 58 62 66 77 76 87 90 98 100 100 96 90 91 89 90 90 82 58 28 13 14 16 16 20 25 28 28
67 66 65 65 67 56 54 60 58 57 44 51 62 64 63 73 78 78 79 80 83 86 97 98 98 98 93 87 90 93 94 93 82 46 16 10 13 14 14 18 28 32 32 33
62 62 65 70 75 69 61 69 65 59 68 70 73 77 78 80 76 76 86 84 86 90 95 98 100 93 91 85 89 95 93 88 74 29 7 11 12 13 20 32 37 37 37 36
69 68 66 54 60 60 64 66 68 75 81 79 78 75 71 66 82 82 70 73 94 99 96 100 100 100 91 89 98 94 88 74 41 8 11 13 13 26 41 43 43 42 40 30
72 66 73 64 60 68 81 83 82 81 79 72 60 53 45 46 50 52 55 56 63 72 84 92 95 89 90 98 95 70 25 6 8 11 13 20 38 46 47 46 47 44 32 24
71 59 60 64 61 62 63 66 68 62 52 49 36 34 38 39 40 40 44 49 52 57 67 73 80 92 97 75 24 9 10 11 14 21 38 46 46 47 48 49 47 37 29 22
49 42 50 42 42 42 41 45 45 40 37 37 38 37 36 36 39 42 45 47 53 66 73 78 86 81 40 16 13 13 15 26 43 44 43 47 51 51 52 49 43 35 28 22

GFSCGP_700_rhum_003.txt.gz
RH
100 100 96 61 96 80 86 72 67 46 40 39 33 35 35 34 32 30 36 33 32 32 30 30 28 22 22 25 27 27 27 26 25 24 23 22 23 25 30 32 30 30 35 41
99 97 72 76 90 76 92 78 68 45 44 43 36 38 37 35 30 29 32 30 33 30 31 30 24 24 26 28 28 28 27 26 26 28 30 30 31 31 30 29 29 30 31 35
98 92 98 91 71 98 93 86 76 57 46 47 44 40 34 34 30 32 33 35 31 31 30 24 26 29 30 30 28 27 27 28 30 28 24 25 24 22 23 25 28 30 29 29
100 97 92 100 95 100 92 74 76 51 55 49 45 49 39 29 32 34 34 27 27 28 26 27 31 31 30 30 30 30 31 32 30 28 27 22 22 22 23 27 32 34 33 32
98 95 93 100 82 83 83 74 54 54 53 47 45 44 39 34 34 31 32 30 28 26 27 31 30 31 34 34 34 33 34 34 33 31 29 29 28 28 30 35 40 41 42 42
94 87 88 66 87 84 72 61 55 52 49 57 43 42 34 33 23 31 32 32 31 27 29 31 32 34 34 34 34 36 35 32 36 39 38 36 35 35 36 38 39 41 41 42
99 96 91 87 98 88 61 60 57 61 63 66 38 46 28 28 28 28 29 30 31 28 32 33 34 34 36 36 36 36 39 42 43 42 43 41 41 42 43 44 45 46 47 48
94 90 86 94 87 64 58 57 53 66 73 58 46 42 30 31 29 30 31 35 35 33 35 35 37 38 37 37 39 43 48 50 48 48 49 50 51 52 52 54 56 58 58 57
72 78 88 61 62 56 58 52 52 52 57 60 44 38 34 34 30 27 31 33 36 39 40 36 38 40 40 41 49 56 56 51 50 52 56 58 59 60 61 62 62 61 60 59
66 62 74 53 53 54 51 48 51 52 63 60 47 41 36 34 34 31 31 33 39 40 36 39 41 42 43 51 58 56 54 54 55 58 60 63 65 65 64 66 66 65 62 61
55 52 60 55 55 55 51 49 49 49 52 58 59 39 36 33 33 33 34 39 41 37 39 42 44 44 51 60 57 54 52 55 60 66 70 71 69 69 69 68 66 64 64 61
54 48 54 54 52 54 53 50 49 45 46 44 44 38 35 33 34 37 44 39 42 43 45 46 45 51 61 61 59 58 58 60 65 67 65 66 70 76 78 75 67 64 63 60
50 49 62 64 58 55 54 52 50 48 43 43 47 36 34 34 33 43 42 45 49 50 41 38 55 62 65 66 65 67 67 68 72 70 69 71 72 72 69 66 67 67 63 58
62 58 48 54 52 52 55 51 51 53 49 46 42 36 35 33 36 43 47 47 45 38 47 60 59 67 72 70 72 73 72 75 78 72 70 69 67 58 60 68 70 66 62 54
68 60 57 52 51 48 47 47 50 54 52 47 43 39 39 41 47 45 42 45 39 54 57 59 63 70 70 71 71 72 79 80 67 74 80 72 62 68 73 72 71 65 50 32
60 56 53 52 50 50 55 57 57 54 50 49 46 44 39 29 35 45 48 52 54 55 58 64 68 71 72 74 75 70 66 68 71 90 85 67 72 78 79 77 65 45 26 15
58 54 53 49 48 44 36 43 49 53 50 47 47 37 38 51 52 52 52 52 55 61 64 69 72 76 78 71 67 69 75 89 99 88 68 78 82 84 80 64 41 21 15 14
54 46 47 26 32 54 33 33 40 43 41 42 43 52 56 57 59 60 57 59 64 68 68 68 67 59 62 80 88 92 100 100 84 69 83 87 86 84 60 34 14 12 12 12
54 38 25 34 44 40 54 51 56 56 58 56 57 58 56 57 55 57 59 56 57 56 56 60 60 73 87 93 97 100 98 73 74 85 90 92 87 51 22 12 11 11 12 15
32 25 26 48 57 64 50 56 58 58 58 58 55 56 54 53 54 54 48 48 46 47 56 71 85 99 100 100 99 87 79 79 80 88 92 85 62 37 18 11 11 12 25 37
40 45 51 58 60 54 55 60 61 58 43 34 48 56 55 56 52 50 43 40 42 47 52 73 84 88 100 99 89 95 88 81 89 93 77 46 12 8 10 11 20 34 36 34
60 64 66 68 68 64 53 52 56 51 47 48 56 57 55 58 60 41 33 27 30 37 46 55 67 70 80 88 84 88 81 80 82 65 24 9 10 11 17 30 34 32 38 43
63 61 61 60 59 54 49 50 53 53 58 61 64 67 72 60 38 27 27 29 33 38 46 56 57 56 62 76 74 75 76 66 33 11 11 12 16 31 36 27 29 35 41 45
68 68 70 63 61 56 58 62 68 71 73 74 75 68 49 32 28 28 29 33 37 41 44 46 50 60 71 75 77 70 43 21 13 12 15 30 37 33 24 27 32 39 45 42
74 71 68 67 66 66 64 66 68 67 60 58 53 38 28 28 28 29 32 34 37 42 46 50 59 67 73 77 56 32 21 15 14 26 40 42 32 26 23 24 32 38 37 36
85 81 81 68 60 65 68 62 55 54 51 43 34 30 30 31 31 32 34 37 42 42 42 50 62 73 75 56 34 22 16 20 38 45 43 30 24 23 26 27 24 29 33 29

GFSCGP_700_rhum_006.txt.gz
RH
91 99 98 88 70 70 83 83 76 67 58 47 39 36 28 32 36 32 32 34 37 33 31 30 28 29 24 24 27 28 28 27 26 26 28 30 31 32 31 31 31 32 34 36
100 98 93 94 72 85 86 93 86 68 65 50 44 38 31 31 30 27 29 31 32 33 31 31 32 26 28 28 30 29 28 28 31 30 28 27 25 24 24 24 26 28 31 33
99 90 92 95 82 94 97 97 83 75 68 63 45 37 29 30 30 31 30 33 35 35 32 32 28 28 30 31 30 30 30 31 32 30 29 28 26 25 24 24 26 30 32 35
100 100 100 98 88 84 96 77 80 80 84 56 50 54 40 25 31 30 34 35 34 33 33 28 28 31 32 34 32 32 32 33 31 28 25 28 34 33 32 31 32 33 34 34
95 97 99 100 84 81 80 67 86 88 67 55 52 50 38 28 25 30 29 35 32 32 32 31 32 33 36 34 35 36 34 32 30 31 36 39 40 40 38 38 39 40 42 43
100 89 95 84 92 91 82 96 86 70 55 61 48 48 35 26 33 32 32 35 35 35 32 35 35 35 34 37 37 36 36 36 37 41 43 44 45 46 47 47 48 49 51 54
92 90 92 83 97 97 99 96 83 64 67 71 43 46 34 22 32 31 33 35 36 37 34 36 35 34 38 37 40 41 42 47 49 47 48 50 52 53 54 56 57 58 59 59
94 98 100 99 86 89 99 96 58 71 75 62 49 46 26 27 27 29 29 36 38 39 35 36 34 38 39 42 44 48 53 53 52 51 51 52 54 57 59 62 63 64 64 63
99 86 88 82 73 84 98 92 57 57 64 67 52 41 33 30 33 30 31 32 37 40 39 38 37 39 44 45 50 58 56 54 51 50 52 54 57 64 69 70 71 70 66 61
84 80 81 84 94 92 80 64 60 57 65 68 56 44 40 36 36 33 29 32 38 41 42 38 39 43 44 48 61 62 58 57 56 56 57 58 59 62 66 66 65 62 53 48
70 66 77 83 79 84 70 60 56 53 54 62 63 39 36 35 35 33 33 38 42 46 40 40 43 45 48 57 66 63 62 62 62 63 63 65 67 67 60 58 55 45 43 46
69 58 68 57 54 56 55 55 53 50 54 52 49 46 38 34 34 35 39 45 47 42 44 45 44 44 54 64 70 66 65 65 65 64 68 66 60 63 67 58 50 42 50 52
61 54 71 74 61 55 56 54 52 49 46 44 50 42 36 35 35 37 46 45 46 46 47 47 41 58 62 67 73 69 67 68 69 72 70 69 69 70 79 77 48 55 58 60
56 54 52 70 63 58 55 55 54 51 50 48 46 42 37 34 34 38 42 42 44 47 48 44 58 63 65 72 73 71 72 74 70 62 67 66 61 85 82 52 58 64 65 64
73 56 50 46 48 50 54 46 50 53 50 51 48 48 46 40 37 39 40 42 47 48 45 56 60 63 66 71 74 75 80 83 70 70 81 81 93 74 49 60 65 63 66 62
89 62 60 57 49 53 52 48 47 46 49 52 54 50 41 42 42 45 46 45 43 52 54 55 61 68 71 71 77 78 74 73 74 85 93 96 85 51 61 66 67 69 62 45
74 60 55 54 57 58 56 52 50 53 55 54 55 51 50 48 40 42 52 53 54 53 56 62 66 66 67 68 65 62 70 82 91 97 98 86 53 64 64 66 69 63 44 18
58 62 56 45 46 45 41 38 38 48 54 57 56 55 48 40 42 54 56 59 57 58 55 51 52 52 55 56 66 81 93 98 100 95 62 54 65 65 66 61 35 11 8 11
64 57 44 33 34 38 38 33 31 34 36 35 38 42 45 56 62 62 60 59 57 46 38 36 37 44 47 65 76 85 96 95 69 45 59 66 67 64 40 12 9 13 19 19
57 51 44 38 44 59 40 37 40 51 54 54 56 60 64 63 62 61 58 51 42 29 22 23 30 35 43 51 50 47 64 59 52 60 66 66 53 23 10 12 21 23 16 10
66 58 36 34 44 50 54 49 56 65 52 56 62 65 66 62 59 57 53 47 28 19 18 21 25 29 33 43 46 47 47 50 58 62 60 36 15 12 17 25 26 13 11 13
40 37 38 45 61 60 51 62 61 57 54 47 49 57 59 60 60 58 46 26 18 18 21 23 27 32 39 45 47 46 47 53 57 54 29 16 15 22 32 26 14 13 15 17
54 51 55 49 53 55 55 59 61 58 60 59 62 64 66 65 58 40 24 20 21 24 26 30 34 40 43 43 42 44 52 58 51 28 18 18 25 34 27 16 13 14 16 15
68 64 64 63 61 58 56 56 59 62 66 68 69 68 57 45 35 26 24 25 26 29 32 37 40 39 36 37 45 54 59 49 30 20 20 30 33 21 15 16 17 16 12 10
70 69 68 69 69 69 65 64 68 73 71 64 60 54 45 36 29 28 29 28 27 31 35 38 36 33 37 48 59 59 47 31 21 23 33 34 22 15 14 14 16 11 10 14
72 71 75 78 75 73 69 68 66 66 56 48 47 45 38 33 34 34 31 25 26 32 35 35 34 36 45 59 58 44 30 22 29 36 31 21 16 16 15 15 10 10 12 15

GFSCGP_700_rhum_009.txt.gz
RH
94 100 100 95 85 77 74 68 72 70 70 73 53 46 36 28 32 35 37 35 37 39 37 35 32 27 28 24 26 28 29 28 28 29 30 29 27 26 27 28 31 33 35 37
98 100 97 98 80 86 87 84 77 72 77 76 69 48 37 31 25 32 35 32 30 32 35 35 31 32 27 29 30 30 29 30 31 31 28 27 27 26 26 26 27 30 32 33
83 97 95 100 90 88 88 77 74 87 79 75 74 53 37 30 26 24 27 33 29 32 35 35 32 30 31 32 32 32 31 32 32 31 28 24 26 30 33 33 32 33 34 36
93 100 98 98 85 86 87 83 78 85 91 87 74 58 45 36 27 24 30 37 30 35 36 34 32 32 34 37 34 33 33 32 30 25 26 32 36 39 40 40 40 41 42 44
98 100 96 99 82 84 97 84 86 90 94 91 70 56 47 38 30 31 34 37 35 34 32 34 34 36 38 36 37 36 34 29 26 30 38 41 42 44 46 47 48 50 52 54
100 98 100 87 85 91 94 76 86 96 94 62 60 55 46 22 33 31 35 34 35 32 34 34 37 39 38 38 38 38 35 34 36 42 47 47 47 47 48 52 54 56 59 60
100 100 98 100 100 100 99 88 96 96 80 67 50 52 39 30 29 32 34 33 35 36 33 36 38 40 40 41 43 41 39 42 47 50 48 46 44 43 44 46 50 56 57 53
100 100 98 95 100 95 98 92 84 76 71 60 55 52 29 32 30 34 33 36 36 38 36 36 39 41 41 44 44 42 48 51 52 53 53 53 52 52 51 50 52 51 45 38
98 98 99 84 86 85 100 98 82 61 66 65 53 46 38 36 34 35 35 34 37 39 38 39 41 41 43 45 43 47 55 57 58 59 59 58 55 53 55 52 50 47 48 56
70 85 98 93 100 98 88 83 98 68 67 70 60 51 44 39 38 37 33 32 36 40 41 42 43 43 45 46 47 54 63 62 63 63 61 56 50 49 55 58 62 65 68 64
67 68 85 94 96 97 96 98 96 68 58 62 58 40 38 38 35 35 33 35 37 41 45 46 43 45 46 46 52 63 67 67 67 64 62 53 45 59 60 51 48 49 38 40
73 63 76 90 86 89 76 83 90 57 60 56 53 46 39 33 35 34 33 37 42 48 51 45 48 49 44 49 63 67 71 73 69 66 59 55 67 74 76 69 73 45 40 42
69 67 75 72 73 64 79 84 71 66 54 50 53 44 40 36 35 35 37 40 47 48 48 49 49 48 46 60 65 69 76 73 69 62 68 76 79 79 70 78 71 39 42 46
67 61 64 72 66 63 64 75 69 57 57 52 50 46 42 39 39 38 37 40 43 47 48 48 49 48 56 64 68 71 72 71 68 71 81 86 90 79 80 73 42 43 45 46
74 64 58 58 58 58 54 59 58 55 55 52 50 47 41 44 46 42 41 42 44 48 47 49 48 56 62 67 68 70 68 70 79 78 91 93 75 78 75 44 43 46 44 34
87 73 61 53 57 60 59 56 54 54 52 54 53 47 40 46 49 42 44 48 47 47 48 50 57 59 62 66 67 64 69 74 87 89 89 53 54 49 39 40 44 40 24 10
84 70 64 60 60 62 66 52 54 54 51 43 45 30 44 50 44 44 44 43 43 45 53 55 54 53 51 52 64 70 70 76 86 66 39 40 38 39 41 42 36 17 11 12
91 93 85 53 55 55 49 47 48 48 48 51 50 51 54 55 53 53 50 46 54 58 59 55 45 33 40 57 66 68 74 62 56 44 37 38 39 42 41 30 14 13 13 9
91 82 79 48 48 45 38 39 38 39 44 47 51 58 59 59 55 46 45 57 62 57 52 37 22 22 31 42 51 56 49 40 39 36 41 42 43 39 24 16 16 15 11 5
71 64 68 49 38 48 40 39 35 36 36 32 37 42 47 47 48 56 64 61 55 46 32 18 17 19 24 30 34 36 35 36 38 42 46 45 39 23 18 18 19 15 7 6
70 67 82 43 36 34 34 31 40 51 36 36 51 54 56 66 68 66 60 53 44 30 20 19 20 22 26 30 35 36 36 40 44 49 49 40 26 21 20 21 19 9 8 9
68 61 57 47 42 43 48 45 47 46 53 54 65 72 73 71 66 60 53 45 30 22 21 23 24 26 29 34 37 37 40 43 48 50 40 28 24 23 25 21 12 10 11 11
49 54 46 45 39 36 39 41 52 55 60 54 53 58 62 64 62 55 42 30 25 26 26 24 24 28 33 37 37 36 38 44 48 41 31 26 26 29 25 15 13 12 13 12
50 49 54 55 56 57 58 58 61 63 61 62 66 67 62 61 56 43 32 29 28 27 24 22 26 32 36 36 36 39 44 46 41 31 28 29 28 23 17 17 17 15 14 11
64 65 64 63 63 63 63 61 59 61 66 71 72 65 61 51 42 34 32 31 26 20 17 21 30 36 38 39 40 43 44 37 31 31 30 29 24 20 19 18 17 16 13 12
71 69 70 71 70 71 73 74 75 75 75 75 68 60 47 39 36 34 32 24 18 16 22 29 36 41 42 43 44 40 33 34 34 32 29 25 23 22 20 19 17 15 13 14

GFSCGP_700_rhum_012.txt.gz
RH
92 99 99 95 100 84 66 68 73 70 69 72 70 66 60 42 37 33 36 37 36 36 38 37 36 34 30 29 26 28 28 28 28 28 29 30 30 27 25 25 27 31 34 35
99 98 94 100 99 87 81 78 75 65 70 76 70 70 64 44 36 29 33 35 35 33 34 37 35 32 32 29 30 30 30 30 32 32 31 30 29 27 28 30 32 33 34 35
91 86 98 100 99 94 85 79 66 66 80 83 77 58 52 42 36 31 28 33 34 32 31 35 36 33 31 32 32 32 32 33 33 32 29 27 27 32 36 38 38 39 40 41
98 98 89 99 98 94 95 86 83 83 90 70 76 52 52 44 33 33 29 27 28 32 32 36 35 33 33 35 36 34 34 34 32 26 23 26 34 39 40 43 44 45 44 44
93 97 100 100 96 92 82 83 87 93 94 84 72 62 45 39 37 33 29 28 35 34 36 37 35 34 36 38 36 36 35 31 27 27 31 40 44 44 42 39 38 40 44 51
83 99 100 100 94 99 96 92 92 91 89 68 58 56 41 39 33 31 34 35 38 36 36 36 35 36 40 38 38 36 34 28 25 30 39 47 47 46 46 47 47 47 47 45
94 99 93 100 99 100 98 98 99 95 93 60 55 56 40 38 32 33 35 32 35 36 34 36 36 38 39 39 39 37 32 30 35 43 50 54 55 54 50 42 39 42 41 38
98 100 100 98 98 96 98 83 60 62 58 48 57 49 39 34 32 27 32 36 34 36 38 35 38 40 40 40 41 38 35 35 42 52 57 58 57 53 44 32 34 35 35 36
97 100 100 99 100 94 100 98 74 58 59 49 45 48 38 38 38 33 38 31 36 37 39 36 39 40 41 42 43 40 42 44 53 59 62 62 58 53 40 36 42 49 52 46
93 99 100 100 98 99 98 92 88 71 59 54 42 46 37 40 36 37 36 37 37 38 40 38 41 43 43 43 45 44 47 51 62 66 67 64 62 52 43 50 58 56 52 37
98 90 98 98 98 95 100 99 95 71 60 43 39 36 40 35 29 34 36 35 36 38 42 42 46 46 44 46 48 46 52 62 67 70 73 67 61 54 62 73 72 68 58 35
74 67 96 94 92 94 85 88 89 73 62 56 48 37 38 37 31 31 34 35 37 41 45 48 51 48 49 50 47 50 61 67 70 74 74 71 66 65 82 80 69 64 38 37
74 67 73 99 89 84 97 93 88 68 58 53 47 42 41 36 33 34 34 36 39 44 49 52 51 51 51 50 49 56 65 68 70 75 74 76 81 79 90 79 50 34 38 39
73 68 55 56 59 69 78 82 82 79 69 55 51 44 44 41 38 38 38 38 40 43 50 53 53 53 51 50 53 61 66 68 72 75 73 78 82 89 60 35 34 36 39 38
82 68 68 64 60 60 59 61 61 73 70 60 52 54 47 48 45 42 45 42 41 42 45 52 54 51 50 52 60 63 67 72 75 72 68 77 89 49 39 35 37 41 38 26
86 77 65 61 62 64 62 58 57 58 68 63 57 53 53 52 48 43 48 48 45 46 51 54 50 50 53 58 58 61 66 69 76 76 75 80 62 40 36 40 40 36 24 16
90 82 71 59 61 66 67 65 59 53 54 54 56 44 53 45 43 46 47 48 52 53 52 50 50 56 57 54 50 54 62 77 79 80 83 70 44 36 40 40 35 24 18 19
86 90 70 63 82 67 52 48 48 51 49 51 51 53 53 51 48 50 49 46 47 46 47 53 59 59 51 38 38 51 63 74 78 64 56 48 37 38 41 36 24 20 22 18
90 96 84 71 60 51 44 47 46 47 41 37 43 51 53 55 56 54 49 52 54 54 58 62 57 45 28 20 25 37 56 61 49 43 43 37 37 42 38 25 24 25 20 15
98 100 99 84 58 53 42 42 38 41 42 36 40 49 52 58 61 58 60 58 56 63 63 53 39 21 17 19 23 29 38 41 37 41 41 42 46 39 28 27 28 22 17 11
100 99 92 83 95 46 43 37 36 44 39 33 33 39 52 60 59 56 57 62 66 60 50 32 20 18 20 22 26 33 39 40 46 46 46 49 41 30 29 29 26 19 14 12
83 71 68 80 95 65 46 44 43 38 36 40 41 47 53 57 62 67 70 67 59 46 30 21 20 21 22 25 32 39 41 43 43 44 48 42 32 31 30 27 21 17 15 14
72 72 73 63 61 51 50 50 50 44 44 49 54 64 71 75 73 66 62 54 39 28 23 22 20 19 22 30 38 39 38 41 45 47 40 32 34 33 30 22 19 18 17 14
60 73 66 60 58 47 37 37 40 52 59 63 58 59 65 67 67 57 46 35 27 25 23 19 17 20 26 32 35 39 42 45 44 35 35 38 37 32 26 23 22 20 16 15
51 51 49 47 48 54 58 59 60 58 58 61 68 72 72 63 51 40 32 28 27 23 19 17 18 22 29 34 38 42 43 39 35 42 47 46 37 29 25 25 22 18 18 17
61 61 62 64 65 67 67 66 65 64 67 72 75 74 66 57 41 31 30 27 24 18 15 17 22 26 31 36 41 40 36 41 50 58 58 49 36 30 29 24 19 19 18 17

GFSCGP_700_rhum_015.txt.gz
RH
96 96 97 61 78 93 77 75 68 61 58 61 65 62 56 51 52 51 47 42 37 38 35 33 31 35 35 33 29 27 26 28 28 28 27 28 30 30 29 27 28 33 34 34
99 97 89 66 63 100 92 81 59 55 60 66 60 58 54 53 56 55 47 45 37 36 36 38 38 36 34 31 29 28 29 30 30 30 30 30 30 30 28 28 32 34 35 36
98 63 74 95 95 100 98 82 54 58 66 67 64 64 63 60 58 52 38 45 38 38 36 33 36 36 34 31 30 31 32 32 32 33 32 30 26 26 31 37 40 41 42 43
98 94 99 99 97 98 100 77 62 64 72 62 68 45 39 42 48 41 38 35 32 38 37 34 36 36 34 32 33 34 34 34 34 32 27 25 28 34 40 42 43 41 38 35
84 82 97 100 96 98 96 85 70 80 75 88 77 64 44 43 42 40 34 35 33 31 35 35 37 35 33 34 36 36 34 34 31 26 22 23 29 40 44 45 44 40 33 27
90 87 99 95 98 100 98 80 85 86 77 69 59 55 38 40 40 39 35 35 33 34 38 38 37 35 34 36 38 36 35 33 28 27 27 32 42 49 51 47 43 36 24 20
94 84 100 95 100 100 100 94 95 87 93 51 47 48 40 36 30 31 30 36 36 41 40 38 37 35 36 39 38 37 36 33 31 31 32 43 54 57 54 49 44 28 22 24
97 98 99 99 100 98 100 94 57 58 55 43 52 47 39 42 42 41 34 38 40 40 39 38 37 36 38 40 38 39 38 36 37 37 43 53 58 60 57 55 44 28 28 29
93 94 100 99 96 100 100 87 64 54 46 38 47 45 42 31 33 36 30 32 34 37 37 37 36 37 40 40 40 41 41 41 42 44 54 60 63 64 63 59 46 32 33 30
97 94 100 99 100 95 98 86 72 57 51 46 37 36 36 41 38 37 38 37 34 36 37 37 36 38 41 42 42 43 46 44 46 52 60 64 68 69 66 63 46 36 34 28
99 99 100 99 100 97 100 99 81 56 49 40 36 34 39 38 31 32 37 38 38 36 38 39 36 39 43 44 44 46 49 47 51 57 63 68 72 72 70 66 48 42 30 21
98 99 99 98 97 95 85 94 75 58 54 48 43 37 40 35 29 30 35 35 38 37 38 41 38 41 46 48 48 51 49 50 53 60 67 70 74 74 68 52 46 38 24 24
88 92 99 100 96 100 99 87 82 70 57 48 40 39 38 36 30 32 34 34 35 37 38 42 43 46 50 51 53 52 50 52 56 64 68 71 74 73 58 53 43 30 26 29
99 89 68 56 57 75 90 82 80 73 62 51 46 42 39 36 34 36 35 36 36 38 39 42 45 50 55 57 55 51 51 54 62 66 71 76 78 75 66 57 42 29 30 31
99 72 59 55 56 69 74 78 80 77 69 55 48 48 44 45 48 47 44 36 40 39 39 42 48 55 59 58 52 51 54 61 64 70 74 77 78 79 69 53 33 32 32 30
99 79 66 64 61 58 58 63 68 72 70 64 55 52 48 49 49 46 48 42 47 47 45 46 54 58 59 54 52 55 60 61 63 66 69 78 84 78 51 36 34 35 34 25
100 89 67 55 62 67 64 59 59 63 63 60 56 54 54 53 51 50 44 44 43 47 50 53 57 58 53 52 56 60 57 54 55 60 71 82 80 55 40 37 37 36 27 27
86 90 73 68 62 68 50 48 55 58 54 60 60 57 53 54 54 54 51 45 48 50 55 57 56 53 53 59 60 52 43 40 48 63 69 61 52 42 39 38 38 29 29 31
95 96 87 71 68 64 53 48 50 57 45 48 54 56 57 54 51 55 52 52 52 53 55 52 52 57 62 59 45 26 22 28 37 51 44 39 40 37 38 40 31 32 33 27
100 100 96 88 62 57 46 41 43 49 52 46 42 47 47 45 55 55 54 56 52 51 55 58 61 63 53 35 20 18 21 25 33 38 34 37 36 41 43 32 34 36 31 19
98 100 99 97 82 72 52 44 39 48 45 38 35 36 41 58 60 62 62 60 60 61 60 64 61 49 30 20 20 21 23 27 30 33 37 39 44 41 32 37 39 35 22 20
97 96 98 100 97 88 57 44 45 44 37 34 34 32 38 49 58 61 62 60 61 66 66 59 43 26 21 21 20 20 22 28 32 37 41 46 40 34 41 45 38 25 24 25
88 80 70 70 77 57 53 50 49 46 49 44 42 43 49 52 54 58 62 69 70 61 52 35 24 22 20 18 17 21 28 32 37 43 46 36 37 46 52 46 31 29 29 23
72 72 70 65 63 61 55 52 40 40 46 47 52 54 60 68 72 71 64 62 55 40 28 25 23 20 16 17 20 26 32 37 41 40 35 41 51 57 55 43 35 32 25 22
74 68 66 66 68 63 54 52 42 47 52 53 54 57 60 63 66 65 55 40 31 28 25 22 17 13 14 19 24 30 35 37 36 37 46 54 59 59 56 42 35 29 24 23
63 56 60 64 52 54 50 58 59 58 60 61 64 68 71 73 68 57 41 31 28 23 14 10 11 13 16 19 26 32 33 35 41 50 56 60 63 63 53 40 33 27 25 22

GFSCGP_700_rhum_018.txt.gz
RH
85 89 64 37 60 35 74 88 86 72 74 76 72 63 62 63 53 55 54 51 42 40 30 34 32 28 32 36 36 34 31 27 26 27 28 27 28 30 31 30 29 29 29 30
97 89 35 54 84 72 98 100 90 82 69 68 64 61 64 63 55 54 51 51 45 41 29 36 38 34 34 36 34 30 27 27 29 30 30 31 31 32 31 29 28 32 36 39
90 40 77 85 90 98 98 99 92 97 74 69 65 60 61 56 53 50 52 53 48 44 32 36 37 39 38 36 33 30 30 31 32 32 33 33 31 27 28 33 39 42 42 41
96 71 86 98 92 90 93 92 90 100 94 88 69 62 49 40 44 51 52 57 46 45 31 38 37 35 37 35 32 32 32 33 33 33 32 28 25 27 33 40 44 45 44 40
80 87 87 90 78 74 93 92 78 96 100 78 73 64 58 44 42 48 54 50 48 41 31 36 37 35 37 34 33 34 35 35 35 32 27 25 27 32 41 48 50 44 38 32
86 94 90 69 63 75 83 98 100 100 96 94 78 63 51 43 44 45 46 44 44 40 36 32 37 37 37 35 35 36 37 36 34 30 30 30 32 39 49 52 50 46 39 31
94 88 82 96 79 71 99 99 100 100 99 79 56 60 50 39 41 41 43 41 39 36 36 32 37 38 37 36 37 39 38 37 35 34 35 37 39 46 53 55 53 47 41 31
96 83 60 88 92 98 98 100 100 96 92 60 49 52 47 44 41 36 38 35 37 38 36 38 40 39 37 38 39 40 39 39 38 39 40 41 45 52 56 55 52 49 45 30
83 96 92 94 69 99 99 99 89 73 41 51 52 47 43 42 44 42 38 39 32 35 38 41 40 39 39 38 42 41 41 42 42 42 43 44 50 56 58 59 59 55 48 30
88 98 75 99 86 100 99 94 100 77 59 65 52 45 40 38 33 37 37 32 31 35 38 39 39 38 39 39 44 42 42 44 46 45 46 49 54 59 61 61 60 59 47 29
96 97 99 100 94 93 99 100 98 68 48 60 59 44 39 38 35 35 38 34 35 33 35 37 37 38 38 40 44 44 46 47 49 48 49 51 57 63 63 63 65 59 44 29
92 98 99 100 96 91 85 99 75 54 54 51 42 45 41 36 31 30 36 38 38 39 35 37 39 38 38 41 45 48 49 50 50 50 51 53 61 64 65 66 64 58 44 28
91 98 99 100 98 99 99 89 71 69 65 50 47 45 38 36 31 33 35 36 37 40 39 38 39 40 40 42 47 51 52 52 52 51 52 58 64 65 66 68 65 63 42 25
99 91 97 99 78 97 98 81 71 71 70 57 48 43 41 34 30 32 35 36 36 38 38 38 40 42 41 43 50 55 55 55 52 52 58 62 63 67 68 68 73 61 31 26
99 99 99 96 70 62 60 71 78 79 70 60 50 46 42 40 38 44 46 42 33 37 38 39 39 43 46 48 54 58 58 54 53 58 61 62 64 64 68 73 69 37 29 27
87 96 79 66 71 68 72 69 63 62 70 61 53 50 48 47 49 49 46 44 45 37 42 42 41 44 48 52 57 59 56 54 58 61 60 58 55 65 68 66 39 31 28 30
99 90 75 62 61 57 63 62 62 64 60 67 70 52 52 53 52 51 51 47 38 45 45 43 48 50 52 56 59 57 54 58 61 55 48 46 54 56 52 37 31 29 33 30
74 74 87 66 63 70 52 48 47 56 52 57 57 62 58 55 57 57 54 52 49 43 41 46 52 54 56 60 57 54 60 60 49 35 36 47 40 36 32 30 31 35 31 36
80 91 86 70 68 60 52 52 51 51 48 55 58 58 59 60 56 54 54 53 53 51 49 53 58 61 60 56 57 62 58 38 23 26 34 33 29 29 32 33 35 32 38 39
100 95 95 95 70 68 50 42 42 49 54 53 52 54 57 59 58 53 52 53 55 56 56 58 59 56 58 60 62 52 29 21 23 26 27 28 31 33 34 36 35 42 44 41
100 100 95 95 94 67 62 57 42 48 49 39 42 45 52 52 48 51 60 58 58 57 56 58 60 61 64 60 45 26 22 23 23 23 25 30 32 35 36 39 46 46 42 40
97 97 100 99 96 89 58 60 46 48 42 36 39 35 36 46 53 59 64 64 64 63 65 64 65 66 53 33 24 22 20 19 20 23 28 31 36 35 42 46 46 48 45 37
91 80 79 77 68 59 61 51 51 46 43 45 42 39 40 45 57 65 67 65 62 65 70 69 58 41 26 24 21 18 16 19 22 26 31 35 36 44 46 48 50 48 40 37
92 86 80 76 69 63 59 59 55 51 40 39 42 47 50 54 58 61 63 71 73 67 59 44 29 26 23 18 14 14 16 20 24 31 34 38 43 44 52 55 54 45 41 36
76 77 81 73 66 61 59 60 59 58 44 48 52 52 56 63 70 71 69 66 57 43 32 28 25 17 13 13 14 15 17 24 32 35 40 42 46 55 56 55 53 47 39 31
77 74 70 69 65 68 63 64 54 51 56 60 60 58 61 66 70 72 67 57 43 30 27 19 15 16 15 12 12 18 25 32 36 42 43 50 58 59 58 54 49 45 34 28

GFSCGP_700_rhum_021.txt.gz
RH
52 58 82 60 63 75 74 90 95 82 83 82 67 71 62 58 58 59 54 53 50 47 42 39 34 29 26 23 24 30 36 36 33 30 27 29 29 30 33 32 32 32 31 33
85 77 53 45 57 82 83 80 67 78 80 93 73 69 53 56 58 55 56 50 55 54 48 41 37 32 31 31 36 36 35 32 28 27 28 30 31 32 33 32 31 34 38 41
56 75 47 59 63 80 78 85 65 77 65 85 95 81 68 65 64 62 57 53 55 53 52 50 38 33 38 36 37 36 32 29 29 31 32 33 34 32 30 32 36 41 44 45
87 71 70 73 83 88 96 63 81 83 99 96 79 87 66 63 65 63 58 50 52 52 53 51 39 35 37 39 38 35 32 30 32 33 34 33 30 27 27 33 41 47 49 46
82 92 62 77 62 82 73 81 87 95 96 100 98 100 82 58 61 58 50 49 52 53 57 51 40 35 37 38 37 34 33 34 35 35 34 29 28 29 32 40 50 53 52 47
90 86 91 81 67 80 59 85 79 87 100 97 96 100 66 57 42 41 46 51 56 56 56 52 43 36 38 37 36 35 35 37 37 36 32 33 36 38 42 49 53 51 46 41
97 86 95 82 86 90 86 92 88 92 96 89 75 96 88 44 40 43 40 45 53 57 54 47 43 37 39 38 37 36 37 38 38 36 36 38 41 43 49 52 52 50 44 42
94 91 76 80 70 72 82 82 80 90 78 68 66 99 77 46 40 39 43 43 51 52 46 42 41 39 40 39 38 37 39 40 40 39 41 42 44 46 50 54 54 53 53 48
89 84 67 85 62 74 86 100 44 97 78 82 99 67 52 42 43 43 43 43 43 36 37 39 45 42 42 40 39 39 41 42 42 44 45 45 47 49 52 57 58 57 58 56
74 95 70 83 98 99 91 91 92 99 98 98 73 48 46 46 45 43 39 38 35 39 33 38 42 43 42 40 40 41 43 43 44 46 48 48 49 52 56 62 63 63 63 59
91 96 86 97 98 92 97 98 90 90 92 85 78 53 43 44 43 42 43 40 35 29 30 37 41 43 42 41 42 42 45 45 46 48 51 51 52 55 60 65 65 66 62 52
87 98 98 90 99 90 69 71 96 89 92 64 47 49 42 41 37 33 34 34 30 33 33 36 40 41 40 41 42 42 46 48 49 52 54 53 54 57 64 67 65 62 56 43
92 98 95 98 100 100 80 97 99 97 99 61 56 50 44 37 34 32 35 38 39 39 39 37 39 39 40 42 42 42 46 50 54 57 58 55 56 61 66 65 62 56 48 42
96 98 93 97 98 97 99 77 98 99 85 57 48 44 39 35 32 33 36 38 38 39 42 40 38 40 43 43 43 43 48 54 59 63 58 56 60 65 66 63 58 52 45 30
96 98 99 99 100 100 98 86 96 100 71 54 48 40 37 33 34 38 42 36 35 37 37 39 39 41 43 44 43 44 50 58 66 61 57 59 65 67 63 57 54 46 30 25
96 97 100 100 91 95 73 81 82 93 67 60 57 49 42 43 50 49 48 44 44 37 37 40 41 43 45 47 47 48 55 64 63 59 61 65 67 61 52 49 41 29 26 26
86 100 99 83 99 100 97 72 70 70 57 61 58 56 50 53 51 51 50 51 42 40 42 45 45 45 46 48 51 54 62 64 62 63 66 66 56 43 39 36 29 26 27 25
82 84 99 70 65 70 54 52 55 59 58 59 58 59 64 63 58 55 54 54 55 48 39 41 41 45 51 52 55 61 66 64 64 66 59 42 34 36 33 29 28 27 27 28
90 78 88 81 73 63 56 58 53 58 53 61 57 56 60 63 59 58 58 58 56 52 52 50 48 54 58 63 68 65 62 64 63 46 30 29 30 30 30 30 30 27 29 35
95 91 92 84 80 70 49 56 43 52 55 55 56 58 58 60 60 59 58 56 55 54 56 56 59 63 66 66 64 66 65 55 36 26 27 26 25 28 30 30 28 31 36 40
100 98 98 88 88 64 56 59 49 52 51 41 48 51 55 56 57 59 58 57 58 61 64 64 66 67 66 66 67 60 45 29 25 24 22 25 27 30 29 29 34 39 41 36
98 94 99 98 89 84 54 56 56 48 39 41 44 38 48 57 58 58 58 59 63 64 64 65 67 68 69 66 53 34 26 23 20 21 23 25 28 28 31 37 44 45 38 39
95 82 83 75 65 61 62 53 52 48 47 46 36 37 47 61 61 62 64 69 69 68 70 71 71 70 57 39 28 24 20 17 18 21 24 28 29 34 40 46 44 41 45 47
88 94 85 80 64 60 60 59 56 56 47 44 40 45 45 46 52 62 67 67 67 72 74 70 59 42 29 25 19 14 15 16 19 23 27 29 37 44 49 48 48 50 52 48
71 79 83 78 70 64 63 61 60 60 55 50 47 52 52 54 58 64 70 74 72 66 55 40 30 26 19 14 16 16 14 16 23 27 31 38 45 47 47 53 54 56 53 41
77 70 72 64 70 68 66 68 65 63 50 50 57 56 56 62 67 67 68 68 63 53 38 29 20 16 17 17 15 14 17 22 26 33 40 45 47 48 52 54 56 56 43 35

GFSCGP_700_rhum_024.txt.gz
RH
55 66 58 40 42 64 82 92 90 85 81 83 85 74 74 73 64 61 53 45 55 57 50 52 50 40 34 25 25 27 28 26 26 38 37 35 30 33 36 35 38 35 35 34
79 88 59 43 43 60 77 84 86 74 78 97 93 94 87 57 70 66 54 56 58 57 55 50 45 40 38 28 26 25 27 35 38 36 33 30 31 34 34 34 35 34 35 39
75 66 54 53 51 63 67 80 95 97 61 61 86 82 71 46 48 54 54 51 59 56 52 53 50 46 42 31 32 35 38 37 33 29 29 30 33 34 34 33 33 37 41 46
100 74 71 59 68 63 62 52 77 90 99 95 88 79 64 58 55 51 50 50 58 57 54 55 53 51 50 34 38 37 37 34 31 30 32 35 35 33 30 30 34 41 50 53
87 74 73 73 64 75 81 78 82 88 88 95 75 90 77 53 64 48 42 48 57 56 55 54 52 53 51 37 38 40 37 33 32 35 36 35 32 30 34 38 43 50 55 54
97 96 90 81 68 68 86 92 88 82 93 94 61 85 65 56 38 39 46 46 54 60 57 53 54 55 54 39 39 39 36 34 34 36 36 34 32 38 41 44 50 54 53 52
98 97 93 85 94 86 90 97 88 100 97 80 57 71 56 51 38 52 40 42 48 59 50 53 55 56 50 43 39 38 36 35 36 38 37 35 39 42 44 47 50 52 53 52
97 96 94 86 80 83 85 91 84 91 97 62 61 78 61 32 35 49 51 47 46 51 58 54 56 56 50 47 40 38 37 37 39 40 38 40 42 44 47 49 52 58 59 57
95 95 82 81 72 80 90 98 55 83 64 90 69 54 36 20 31 42 48 41 42 45 50 58 57 57 54 50 42 39 38 40 42 41 42 43 45 48 50 54 57 62 63 63
94 90 64 74 86 91 95 82 98 96 98 82 80 86 55 28 8 40 41 42 44 43 48 56 58 57 54 50 43 40 41 43 44 44 45 47 50 52 54 56 58 63 67 66
84 93 83 85 84 73 99 98 97 82 66 95 78 72 38 30 31 44 45 45 43 44 50 53 52 55 57 50 43 42 42 44 46 46 47 51 55 56 57 58 61 68 70 68
81 97 94 77 78 94 98 98 97 86 71 92 98 71 41 51 44 44 44 42 42 43 42 47 53 54 52 48 43 43 44 46 48 48 51 55 60 61 59 60 67 72 72 63
94 97 96 84 98 98 97 98 97 83 63 71 98 69 50 42 46 46 43 42 41 43 47 47 46 44 45 45 44 44 46 47 50 52 56 61 65 64 61 65 73 74 69 51
98 98 88 94 99 98 99 98 92 95 96 80 92 84 45 45 43 38 41 42 45 47 44 42 42 42 44 45 45 46 47 48 52 56 61 68 70 64 65 73 76 71 53 40
98 97 98 97 97 99 100 60 74 86 98 96 88 58 42 36 35 35 38 44 47 46 45 46 43 43 45 46 47 48 49 49 53 59 66 72 67 67 73 75 71 53 39 28
98 95 97 94 99 99 100 99 99 94 99 96 98 48 40 39 42 39 38 37 38 40 43 47 49 47 48 48 48 49 50 52 56 65 73 70 68 73 72 69 52 40 30 24
98 98 98 99 100 99 99 99 98 99 99 98 90 50 40 46 48 49 48 48 40 38 37 41 44 47 48 49 52 53 55 58 64 73 71 69 71 71 62 44 36 29 24 23
94 99 99 98 96 79 67 80 80 78 79 77 64 57 57 53 53 52 52 53 54 54 36 43 47 48 50 54 57 59 59 64 74 71 70 69 66 52 41 34 27 23 24 24
99 95 89 96 89 67 54 54 60 66 59 61 63 63 64 65 61 58 57 57 58 55 53 50 48 53 57 62 67 68 69 75 71 68 67 54 39 35 31 26 24 24 25 28
99 99 98 94 90 74 56 58 49 57 58 52 54 57 59 62 63 59 59 59 58 57 56 58 58 61 67 69 71 74 72 70 68 58 42 32 30 25 24 23 25 25 28 27
98 99 93 90 95 62 57 60 53 57 54 47 52 54 57 54 54 59 60 60 60 62 64 65 67 72 73 72 71 70 68 62 48 33 28 25 24 22 23 25 27 29 27 28
92 94 96 95 90 77 60 54 55 47 42 45 41 51 56 60 59 61 62 62 62 64 67 69 70 71 70 70 70 64 52 38 29 24 22 21 20 22 25 30 32 29 30 36
91 93 75 69 63 60 65 55 53 49 48 44 35 42 56 61 62 62 60 62 64 67 67 69 70 72 72 66 55 41 30 24 19 18 19 19 22 27 31 30 30 36 40 39
78 86 81 77 63 65 67 62 60 56 47 53 44 43 42 58 64 65 67 70 71 70 70 72 73 72 62 44 31 24 16 16 18 16 19 24 29 32 31 34 39 41 41 44
78 81 77 77 70 63 62 62 64 61 57 53 46 49 49 53 54 66 68 68 67 72 74 69 58 42 30 22 16 17 17 15 17 20 25 29 31 31 36 40 41 43 49 44
72 69 70 64 70 71 66 66 68 67 58 50 56 55 54 62 66 68 72 72 71 65 54 42 31 20 17 19 20 18 17 18 21 25 28 28 30 36 38 42 46 55 47 41

GFSCGP_700_rhum_027.txt.gz
RH
57 78 94 92 99 94 94 95 97 95 91 71 67 70 68 60 57 54 50 55 54 49 52 59 52 49 48 46 42 32 28 32 35 37 35 32 44 45 43 41 45 44 38 36
75 63 53 49 55 68 75 81 85 92 89 81 69 54 53 56 49 49 40 49 53 48 48 57 53 52 50 47 41 35 32 31 32 32 32 45 46 42 41 40 38 37 35 35
65 68 52 58 54 72 69 72 98 92 70 60 72 38 24 24 34 32 34 37 43 49 57 60 54 54 50 46 43 37 34 31 32 36 42 40 36 37 38 37 35 34 35 38
97 78 66 64 76 71 81 66 67 71 90 95 79 80 37 30 16 24 30 31 40 53 56 59 57 55 53 52 49 39 37 40 40 38 34 33 38 38 37 35 32 35 39 48
90 79 68 70 60 67 98 84 88 93 85 87 72 94 58 41 16 16 31 38 28 31 56 60 56 54 53 55 53 41 40 39 36 32 31 34 36 36 33 32 38 43 49 54
92 94 90 82 73 78 96 95 97 98 97 97 81 80 52 40 17 12 16 28 32 31 39 57 56 54 55 54 54 46 41 39 36 33 34 37 36 33 36 41 45 48 52 54
99 99 99 88 88 95 98 98 97 97 97 83 56 65 43 24 19 13 13 27 37 37 41 49 56 54 57 54 56 50 41 40 36 35 38 38 35 37 43 46 48 50 54 57
98 98 88 95 89 82 85 89 95 90 92 83 49 64 39 21 15 14 22 35 48 41 43 49 55 59 60 53 57 51 42 39 36 38 40 38 38 43 46 48 50 53 56 57
97 95 76 71 80 96 97 97 73 95 79 92 66 51 42 24 20 16 11 32 45 45 50 51 56 56 55 55 58 51 44 39 38 40 41 40 43 46 49 50 52 54 57 60
99 98 77 72 98 98 97 90 96 98 96 91 53 53 66 37 24 12 9 24 47 47 50 52 57 55 55 56 58 53 46 39 40 43 44 44 47 50 54 55 56 58 60 62
100 100 92 90 94 70 100 99 95 94 79 90 75 42 26 22 19 20 14 17 32 46 42 44 50 58 59 60 57 55 45 41 43 46 47 48 51 55 58 61 63 63 63 67
73 100 99 87 72 71 66 67 94 86 85 82 67 67 48 50 54 24 10 25 44 47 44 45 53 56 60 60 59 55 45 43 46 48 49 51 53 58 63 68 70 66 67 70
82 97 96 94 93 98 97 95 97 91 83 80 81 56 31 57 55 55 47 48 49 45 45 50 55 61 62 62 62 54 46 47 48 50 51 54 57 63 70 74 74 69 69 73
96 98 94 91 92 98 98 99 99 97 98 83 80 61 44 43 67 60 50 49 49 45 49 56 60 61 62 64 64 52 48 49 51 52 55 57 62 69 75 79 73 71 75 78
98 97 97 92 90 98 97 98 99 100 98 95 71 71 31 43 66 65 58 46 49 51 50 52 56 60 60 59 57 52 51 52 53 55 58 62 68 73 80 76 73 77 80 58
98 98 98 94 94 100 99 100 100 88 83 82 72 58 58 76 84 63 53 46 46 45 47 54 58 57 54 52 51 51 53 54 56 59 63 68 72 78 79 75 78 79 54 34
99 98 98 93 99 98 98 89 94 96 89 96 96 80 81 62 59 52 46 43 44 47 50 56 62 62 57 54 54 56 59 62 63 66 68 72 77 80 76 76 71 46 31 24
99 99 98 98 100 98 94 100 99 98 97 95 97 99 82 76 53 46 46 40 40 43 48 55 61 62 62 64 67 70 69 71 70 70 73 78 79 77 74 58 38 28 25 24
92 99 98 99 100 75 71 82 94 98 99 100 97 91 80 60 52 52 53 57 54 46 53 58 60 64 68 70 72 73 72 72 72 74 79 78 74 66 46 32 26 24 24 23
96 100 99 90 100 80 71 62 69 89 78 86 80 82 72 64 57 54 58 58 58 54 56 59 61 63 67 71 73 76 76 75 77 80 75 68 51 35 28 23 22 23 25 29
93 100 98 89 86 68 65 62 60 58 59 58 59 59 61 57 60 60 59 59 60 58 59 60 63 69 73 75 77 78 80 78 74 69 55 38 29 23 21 22 24 26 30 30
84 85 95 98 93 72 64 59 52 47 47 44 46 52 53 57 59 61 61 61 62 62 63 64 67 71 75 77 77 74 71 68 57 41 30 24 20 20 22 26 27 30 29 28
90 88 82 77 68 61 69 59 54 50 48 36 42 50 56 59 61 62 63 63 64 64 66 70 74 76 76 73 72 69 59 45 31 24 18 19 20 23 26 28 31 32 29 28
84 88 90 79 68 67 66 66 59 52 50 51 39 43 51 60 64 65 63 64 65 68 70 71 73 73 74 70 62 46 31 23 17 19 19 20 24 26 30 30 29 28 31 33
84 80 76 72 65 64 67 66 64 61 57 55 43 44 45 55 61 66 66 68 71 72 71 73 74 72 62 44 30 21 18 19 19 19 22 25 28 30 29 29 30 34 37 36
75 70 70 73 72 68 67 66 67 66 63 50 49 50 48 52 57 58 65 68 69 71 72 69 56 41 30 20 19 21 21 19 21 24 28 28 27 27 29 32 36 41 39 40

GFSCGP_700_rhum_030.txt.gz
RH
63 75 96 74 80 87 94 97 100 99 92 88 57 55 40 45 46 36 35 31 36 34 36 45 41 47 57 38 36 46 43 36 34 37 43 45 48 49 41 53 52 76 55 60
71 65 60 66 93 97 100 100 100 89 64 64 56 37 30 34 36 31 32 27 27 42 34 32 40 53 58 46 47 47 44 39 35 34 37 45 54 55 50 57 47 54 56 52
64 61 65 63 60 68 70 68 63 56 47 49 60 31 24 18 18 23 25 25 26 29 39 38 51 56 57 53 51 48 43 41 36 33 38 47 50 49 50 48 49 50 50 38
91 86 84 78 79 68 71 66 63 67 83 98 68 81 42 31 25 18 15 18 22 24 30 36 50 57 58 52 52 48 45 42 38 34 34 40 52 58 49 50 43 38 37 40
79 84 77 88 81 78 90 80 82 90 87 94 96 97 62 43 26 19 16 13 15 22 24 34 49 61 59 57 52 54 51 43 40 42 43 44 45 46 43 42 38 36 42 46
94 94 98 95 91 86 92 98 96 95 98 96 83 88 55 43 29 20 16 14 12 16 21 31 52 64 62 58 53 55 55 45 41 40 37 36 40 45 42 38 38 45 48 51
100 95 98 97 98 97 98 98 97 98 97 86 60 78 55 40 34 22 19 13 11 13 28 26 48 60 61 58 54 54 55 50 42 39 35 37 42 45 41 41 46 50 52 54
95 87 78 75 71 80 87 91 95 92 86 84 59 71 49 35 32 26 24 19 17 34 23 30 29 42 57 60 54 54 56 55 43 39 36 38 40 39 39 46 50 52 55 56
95 95 90 80 74 89 99 99 72 97 97 97 69 49 41 36 29 26 22 22 17 17 57 47 34 44 47 60 57 57 56 57 45 40 38 40 41 40 45 49 52 54 57 59
99 95 83 81 82 98 98 97 98 98 96 93 70 60 49 38 39 41 34 27 19 24 39 44 44 47 50 60 62 58 57 57 46 40 41 43 43 43 48 52 55 58 60 62
100 99 94 94 90 76 99 100 97 96 97 92 72 44 34 32 54 56 28 20 23 18 21 55 52 52 51 62 59 57 59 57 48 43 44 46 45 47 52 56 59 61 66 70
73 99 97 87 71 77 91 78 94 89 88 85 71 58 36 32 37 53 58 41 13 19 17 24 48 51 53 60 57 61 61 56 49 45 48 50 49 51 54 58 60 66 72 76
79 98 98 85 90 100 97 92 96 94 81 86 84 56 39 34 42 36 46 63 31 43 29 46 48 51 58 62 64 65 62 57 49 48 51 53 54 56 58 61 66 71 78 80
95 98 88 88 74 98 97 93 95 98 97 87 92 68 50 36 36 40 42 63 58 64 58 53 51 54 61 68 68 65 62 58 50 52 55 57 58 60 62 66 70 76 81 78
99 97 93 87 94 98 98 98 97 97 85 98 78 89 60 53 59 55 55 71 62 72 61 53 54 58 66 70 68 67 66 57 53 56 59 60 62 64 67 71 75 79 80 77
100 98 98 95 96 98 98 99 98 97 98 97 100 85 65 65 79 83 86 73 74 66 60 58 62 68 69 70 70 69 66 56 58 61 62 63 66 68 72 74 77 81 80 79
99 98 98 90 96 99 99 99 99 100 100 96 95 66 95 96 100 89 69 62 64 58 54 59 64 68 71 70 67 66 61 60 62 64 66 69 71 73 74 77 82 81 77 44
99 99 98 95 98 98 97 98 99 99 90 89 85 95 99 99 85 67 60 58 58 60 60 64 69 72 69 64 61 63 65 67 69 71 72 72 74 76 79 83 80 66 39 30
92 100 98 99 99 90 80 74 97 100 94 84 72 93 88 81 57 53 55 58 62 65 69 75 80 81 75 68 67 69 72 75 78 78 78 78 79 84 84 76 50 33 29 24
98 100 99 98 98 97 79 71 75 74 80 81 79 84 75 66 52 57 56 53 50 55 70 77 76 71 72 72 75 80 83 83 82 82 81 84 86 76 58 38 31 27 24 23
98 99 99 100 93 74 72 70 65 58 64 62 69 82 82 79 79 80 75 68 54 59 64 65 68 68 69 74 81 83 85 86 84 86 86 76 58 41 31 28 24 23 25 28
92 92 84 92 97 76 72 64 54 54 52 48 50 62 71 79 82 67 59 60 61 58 59 60 63 66 71 77 83 85 86 86 81 74 60 44 32 27 24 24 24 26 27 27
86 83 87 85 74 68 69 60 55 51 40 45 51 57 64 68 66 63 61 62 63 63 65 66 70 75 79 82 83 80 77 72 60 46 31 26 22 24 23 25 26 27 27 25
74 82 87 85 74 68 68 67 57 51 54 44 52 59 60 65 64 64 64 64 66 67 68 73 76 78 78 76 76 70 60 44 30 24 21 23 22 23 26 27 27 26 23 21
77 80 75 74 78 71 70 69 66 60 54 48 43 50 59 65 65 66 65 67 69 71 73 74 76 76 74 70 57 39 28 20 20 22 22 22 24 26 26 25 24 23 23 25
76 74 75 77 77 70 67 66 67 65 60 51 50 48 49 62 66 67 70 72 74 73 73 74 73 66 50 36 25 19 20 22 22 21 23 26 25 23 23 23 24 25 29 33

GFSCGP_700_rhum_033.txt.gz
RH
73 70 63 52 62 72 78 87 91 87 96 74 51 41 39 35 35 28 27 27 28 26 28 31 40 58 56 55 54 48 44 36 40 51 54 52 49 50 61 61 61 54 98 66
72 62 55 64 66 77 98 96 96 97 77 69 52 31 31 26 25 25 24 24 25 25 28 29 29 41 46 49 52 44 45 47 48 42 38 38 44 52 64 76 62 62 90 100
55 57 62 64 69 72 76 88 88 77 61 52 56 38 29 26 24 21 20 19 20 20 23 28 30 31 33 42 46 50 51 49 46 43 37 36 42 63 71 76 69 95 86 66
74 65 72 78 85 78 77 71 70 70 84 97 73 68 48 37 32 28 22 18 15 16 19 22 25 35 36 35 48 53 53 52 46 44 36 33 42 56 68 85 91 86 61 48
66 78 83 88 79 88 95 90 84 85 92 98 100 98 53 51 40 31 25 21 18 15 14 17 21 27 38 49 54 57 53 50 47 43 39 37 42 60 77 80 77 99 46 43
92 96 96 85 84 93 92 98 97 92 96 96 80 96 60 56 41 31 29 26 22 19 14 14 22 28 35 55 55 55 54 55 52 42 41 44 52 56 83 94 76 74 43 46
99 92 94 98 97 94 99 98 96 96 97 83 60 86 58 44 38 34 26 24 27 24 15 15 22 31 36 52 57 57 55 58 56 44 42 41 44 48 95 99 53 42 46 50
91 85 76 97 84 98 96 96 85 92 82 70 65 82 53 38 38 28 26 26 25 26 25 23 24 33 43 51 62 60 56 58 57 49 43 39 38 96 95 55 46 44 51 53
96 97 88 76 86 88 99 99 92 97 92 97 73 58 50 38 39 34 35 40 33 24 25 28 24 38 40 63 63 62 56 56 59 56 45 39 46 95 86 52 45 50 52 54
99 94 78 71 81 81 99 98 97 98 96 86 72 77 56 31 36 28 36 32 43 32 24 21 49 47 40 54 56 61 60 58 62 58 47 41 55 73 47 46 49 52 54 59
100 98 88 82 67 51 89 100 98 92 89 81 66 50 42 36 32 37 55 48 46 43 26 30 49 51 47 37 42 55 63 62 61 59 49 44 44 47 48 48 53 55 59 65
71 99 94 74 61 75 78 75 91 97 82 96 92 68 46 43 39 30 31 31 26 60 22 21 32 57 46 42 51 61 66 66 63 59 52 48 48 49 51 53 56 60 64 68
75 97 96 76 74 76 98 80 97 97 98 95 92 56 44 46 43 41 48 36 41 54 34 22 31 59 60 54 60 64 68 64 66 61 57 52 50 52 54 57 61 64 67 69
91 97 90 83 63 80 98 95 96 98 97 86 92 64 57 52 49 50 51 53 47 71 57 22 26 22 56 62 64 69 66 66 68 64 63 58 56 58 60 63 65 68 70 73
98 97 90 83 85 94 98 98 99 97 87 98 78 94 56 66 72 66 58 65 61 72 69 46 49 52 58 68 70 71 70 71 69 68 68 61 61 62 65 67 70 72 74 78
99 97 99 91 86 97 98 97 99 98 97 98 98 90 78 84 78 72 70 94 87 89 72 60 58 62 67 74 73 74 73 68 67 66 66 66 66 66 68 71 74 76 78 83
99 99 99 94 88 91 98 99 100 100 99 90 98 71 82 82 87 96 93 88 88 83 65 64 65 69 76 78 77 73 72 71 68 67 69 68 68 70 72 75 78 80 84 88
99 99 99 97 96 98 97 99 100 100 98 93 88 94 96 100 93 77 74 76 74 72 69 69 71 75 79 79 80 81 79 73 70 71 72 70 70 72 77 81 84 89 88 86
83 95 98 99 99 80 85 98 98 100 100 94 98 100 100 89 77 69 68 68 75 71 72 74 78 84 83 85 82 81 78 73 73 72 70 71 76 82 86 88 92 87 64 36
97 100 100 100 99 97 76 72 77 80 97 100 100 100 93 83 78 65 64 67 69 74 78 80 85 89 88 79 75 75 76 76 76 77 82 86 87 87 92 88 68 44 28 25
94 99 99 99 98 71 75 65 56 57 78 98 98 100 96 87 74 61 59 59 65 69 70 74 83 89 85 83 81 86 92 90 87 87 88 88 93 86 66 46 31 25 24 25
94 98 92 91 92 84 72 61 61 60 53 56 60 99 90 90 89 87 67 59 63 67 64 73 78 80 84 90 94 94 90 88 89 91 90 81 63 47 32 25 24 25 26 24
87 85 90 89 71 69 70 64 58 52 49 56 50 72 83 77 76 71 64 63 63 66 67 71 79 79 82 85 89 93 93 90 85 75 62 46 32 24 24 24 26 26 21 19
79 85 88 86 79 72 67 69 58 58 49 52 58 66 69 69 65 68 73 67 68 69 70 72 74 80 82 84 87 83 80 72 60 43 31 23 24 24 26 26 22 20 16 13
84 78 78 76 77 70 68 68 64 58 49 46 56 62 65 69 67 67 67 70 72 73 74 79 83 86 84 80 76 69 55 39 28 22 23 24 25 26 23 20 17 14 14 16
74 75 76 79 78 76 68 68 67 66 62 62 52 56 63 68 68 69 71 74 75 76 78 78 78 79 73 63 47 34 24 22 24 23 24 25 22 19 17 14 14 16 19 23

GFSCGP_700_rhum_036.txt.gz
RH
72 80 58 55 57 79 69 87 85 84 87 75 56 62 55 38 36 33 29 28 28 26 22 24 26 33 43 55 57 55 50 51 51 47 43 47 55 55 55 54 55 63 56 58
73 67 57 58 63 71 97 95 87 85 85 80 76 31 41 28 20 23 26 27 25 24 25 26 26 27 32 38 51 54 50 51 51 46 42 48 59 62 63 58 62 68 77 80
64 61 50 55 64 86 96 96 87 86 86 84 76 45 36 41 30 24 23 23 23 22 22 22 24 23 26 32 39 49 52 51 48 45 46 51 45 44 48 52 68 72 83 72
74 74 60 69 71 68 88 89 76 88 91 74 93 55 49 48 46 43 30 27 26 22 18 18 19 23 24 26 31 42 49 46 42 48 51 46 45 43 48 57 72 90 98 92
68 66 71 90 61 85 94 92 98 99 94 92 83 98 49 48 53 50 34 31 31 25 21 18 15 20 23 28 29 32 37 41 42 54 49 47 45 39 44 66 88 89 100 90
95 77 85 90 83 92 91 98 100 100 100 93 68 82 48 37 41 44 33 31 29 28 27 21 16 16 20 27 31 38 42 44 52 53 51 46 42 42 46 75 89 99 99 96
97 90 78 92 100 97 100 96 77 86 94 67 51 53 53 30 34 30 31 28 26 26 29 27 17 14 19 25 29 47 56 53 57 53 50 47 42 50 68 78 84 100 82 98
98 85 86 81 78 99 98 97 70 68 44 40 62 57 42 42 51 43 31 32 31 30 23 25 23 16 19 26 32 48 59 59 55 54 54 46 43 47 56 90 93 100 70 54
100 98 76 68 78 95 98 99 80 91 85 80 57 45 44 44 47 47 35 44 38 49 34 24 28 22 20 30 34 50 59 61 56 57 57 48 43 43 91 63 100 91 89 56
99 94 73 72 78 78 96 96 96 98 78 61 40 41 41 41 45 40 37 39 46 43 46 30 25 28 24 36 41 58 64 65 58 57 59 54 45 46 66 99 100 97 64 56
99 91 94 78 74 83 98 99 96 84 79 70 52 36 36 40 41 42 39 39 45 37 31 40 33 31 28 40 43 57 67 64 62 60 61 58 48 44 100 98 100 59 55 59
77 98 99 89 63 70 84 89 96 96 73 92 81 67 52 50 47 46 52 40 31 31 33 51 33 35 48 45 48 64 63 62 66 63 63 60 49 53 90 99 59 54 58 62
92 99 92 64 78 76 95 63 82 98 96 94 94 64 50 57 60 47 48 45 44 34 41 51 29 32 57 52 49 58 56 60 67 68 66 60 53 100 70 63 58 60 62 66
96 100 88 62 54 70 98 92 97 98 98 83 88 78 68 84 84 73 75 59 52 47 46 66 30 27 41 49 52 48 52 66 70 71 66 62 66 73 63 63 64 64 67 71
99 99 87 67 72 82 96 100 98 98 97 98 72 89 80 97 98 99 88 69 64 58 56 74 43 26 41 54 53 59 70 75 76 73 70 79 71 74 66 68 68 70 73 76
97 94 83 78 82 99 99 93 99 99 100 98 100 97 86 92 100 81 84 77 85 74 81 73 40 35 60 66 64 76 79 80 80 90 100 97 99 80 72 73 74 76 77 78
94 92 98 94 89 85 98 99 99 99 100 100 99 81 96 97 96 99 100 100 100 98 86 66 40 25 29 72 80 82 87 90 97 100 100 100 93 76 77 77 78 80 81 82
93 98 98 96 90 93 93 98 100 100 100 84 80 91 96 98 99 98 91 96 100 92 76 72 72 70 76 89 95 99 100 100 100 100 98 84 79 79 79 81 84 85 88 92
82 97 98 96 99 85 87 95 87 99 100 90 98 100 100 96 90 89 94 98 91 83 80 83 87 98 96 97 96 91 87 88 83 83 81 80 80 81 84 88 93 95 98 96
97 99 98 98 98 81 66 70 62 94 99 99 100 100 91 86 99 86 91 98 91 85 85 86 90 92 87 85 86 87 87 83 81 80 79 81 84 90 98 99 100 98 73 36
98 99 98 98 98 84 69 75 65 65 74 98 96 100 96 90 82 81 85 87 94 94 85 83 87 89 90 89 89 88 83 79 79 82 88 99 100 100 100 97 71 39 25 23
90 92 99 99 98 87 69 66 68 64 68 72 95 99 100 84 83 90 92 91 90 88 87 93 92 88 86 89 87 83 84 92 99 100 100 100 99 94 68 40 26 24 23 23
95 88 97 90 77 76 71 72 61 56 64 61 77 89 96 97 96 90 82 88 85 92 85 85 92 88 88 90 99 100 100 100 100 99 100 94 64 40 26 24 24 24 19 16
83 88 86 86 78 80 72 70 62 51 60 62 60 79 81 82 78 77 82 78 78 78 82 86 90 91 90 96 99 100 100 100 100 92 61 37 25 24 24 24 20 17 14 12
85 84 81 78 77 76 69 70 66 57 54 60 69 73 74 66 70 76 76 75 75 78 82 88 95 98 99 98 98 99 98 83 56 35 24 24 24 24 21 18 16 13 13 14
59 70 81 88 81 79 70 69 70 66 67 64 65 68 67 68 68 71 75 79 81 83 88 91 98 100 96 89 84 72 50 30 23 24 24 24 22 19 17 14 13 14 14 15

GFSCGP_700_rhum_039.txt.gz
RH
75 96 76 79 80 74 65 71 62 58 65 71 66 62 58 55 44 30 35 28 29 28 28 23 22 23 41 48 52 55 53 49 49 50 52 53 54 48 49 51 56 62 63 62
88 77 82 84 85 85 86 79 70 66 66 68 64 33 44 23 14 16 16 17 18 22 25 25 25 21 23 25 41 52 55 54 50 49 52 55 50 44 45 52 63 66 74 70
99 87 68 86 91 84 87 80 71 69 70 68 62 40 24 34 28 21 17 16 17 18 19 22 26 24 22 24 25 36 54 58 55 51 53 56 49 43 41 51 64 64 69 79
95 86 72 66 70 86 80 74 76 76 79 63 74 54 44 29 36 39 41 27 23 24 25 23 24 24 23 24 25 25 38 53 54 55 51 51 48 46 46 51 53 60 66 71
92 69 95 94 87 87 83 95 89 87 84 86 73 72 46 35 37 41 43 42 40 42 36 31 25 20 21 26 28 27 31 36 47 51 49 50 48 49 48 46 47 56 70 81
94 97 83 95 93 96 97 96 95 96 98 90 60 56 40 31 25 27 33 40 40 42 44 41 28 23 19 19 25 31 31 35 36 44 48 49 50 50 47 46 46 52 73 93
99 99 95 74 94 97 98 94 74 86 90 65 39 41 41 27 35 35 33 38 41 35 35 37 33 28 22 17 19 24 27 37 34 39 47 44 57 52 49 46 45 62 82 90
96 88 97 90 98 95 100 97 68 61 37 35 42 45 38 35 36 40 37 42 41 42 25 17 28 27 24 19 17 22 26 38 40 42 45 56 58 52 49 47 50 72 95 86
93 94 83 100 97 97 99 98 76 85 71 66 46 37 38 38 38 37 38 40 46 46 52 34 25 25 31 22 18 17 27 36 52 55 59 62 54 53 50 54 60 79 81 99
96 94 86 100 99 98 99 88 92 96 82 59 34 33 32 34 34 36 39 40 45 58 61 49 40 38 30 39 25 21 30 40 60 67 65 57 58 55 51 48 61 93 87 99
97 95 96 95 82 88 93 100 97 81 80 62 52 37 38 41 53 50 42 38 45 61 60 41 35 39 35 33 35 32 36 45 69 69 62 60 60 57 48 53 94 67 100 99
100 99 96 82 80 79 83 94 96 96 63 78 87 69 54 52 59 61 66 61 58 64 67 39 29 41 42 43 42 48 44 51 71 69 62 63 62 58 50 57 69 100 79 100
98 97 88 81 82 82 90 86 86 96 98 96 95 65 52 65 70 63 62 68 60 67 74 38 32 49 45 48 51 54 51 63 72 68 66 66 64 61 56 66 98 100 99 78
99 100 90 65 64 74 90 91 97 98 98 82 84 80 79 80 91 94 92 91 76 79 77 39 42 57 50 55 64 59 57 69 68 69 71 70 67 63 73 94 97 99 80 70
97 96 94 94 91 88 89 96 93 99 98 98 88 99 89 100 98 94 84 88 91 94 80 43 58 68 48 40 61 62 61 72 69 73 73 73 71 64 88 100 98 78 70 68
86 98 100 97 72 94 98 97 99 99 98 98 100 92 89 86 76 92 98 98 96 95 48 64 80 72 40 37 51 54 68 70 71 76 80 77 89 99 100 94 96 75 74 89
100 98 100 97 67 86 96 98 97 98 100 100 99 96 94 96 100 98 99 100 100 91 77 94 91 61 35 35 38 60 73 72 81 86 99 96 100 100 99 94 85 95 96 83
95 100 99 96 78 89 85 88 84 88 100 99 99 97 91 100 99 99 100 99 98 91 96 99 78 50 35 64 74 84 93 99 97 100 97 100 100 100 99 98 96 89 87 91
100 100 97 93 87 75 76 85 82 76 98 100 99 99 99 99 100 99 100 100 100 99 99 93 69 46 70 91 98 100 100 100 99 100 100 100 100 99 92 87 86 92 95 96
100 99 99 93 96 72 66 74 71 67 85 96 100 100 96 98 100 99 99 100 100 98 96 87 73 81 100 98 98 100 100 100 100 100 99 93 86 86 87 96 94 97 98 97
100 100 98 98 98 87 71 75 73 68 73 77 99 99 93 90 96 100 99 99 100 100 100 100 100 100 100 100 100 100 100 99 94 90 87 86 90 93 96 100 98 96 60 26
88 95 98 99 98 92 74 72 79 75 66 74 96 99 98 95 93 96 98 99 99 95 94 99 97 96 95 98 98 94 90 88 90 94 95 95 99 99 97 93 54 25 24 24
94 87 98 98 94 87 82 73 71 55 67 58 85 93 98 98 99 99 99 99 99 99 96 93 94 90 88 93 97 98 96 94 97 99 99 98 96 84 47 24 24 24 23 18
85 82 86 95 91 85 76 70 68 55 60 59 78 87 91 99 100 98 100 96 86 89 92 93 95 98 98 97 98 99 100 99 98 96 93 72 39 24 24 24 23 19 16 14
91 88 85 74 76 82 77 72 68 62 68 63 70 79 81 80 93 96 92 92 89 90 91 94 100 100 100 100 100 100 100 98 89 61 34 24 25 25 23 19 17 14 14 14
69 57 84 81 88 83 82 78 73 72 76 73 68 74 72 67 75 79 81 86 88 90 89 90 90 95 100 99 99 91 72 47 29 24 26 25 23 20 18 15 15 15 14 15

GFSCGP_700_rhum_042.txt.gz
RH
95 99 96 89 85 83 79 67 62 56 56 61 64 63 59 36 40 23 23 29 21 19 21 24 22 20 20 32 58 64 58 55 51 53 51 48 46 55 56 53 52 48 48 59
93 86 84 90 80 79 78 77 71 66 58 63 58 38 26 17 13 15 13 12 12 13 16 19 22 23 23 20 31 64 74 72 52 50 53 55 55 54 55 53 50 43 54 63
99 84 69 88 86 82 80 84 79 71 67 62 54 36 22 32 27 18 16 16 16 15 16 16 16 20 25 24 24 39 60 70 67 54 52 56 56 55 52 49 50 46 49 63
88 88 86 63 87 88 88 78 76 75 76 70 69 74 24 17 18 21 19 17 16 20 21 22 22 20 23 30 28 25 44 58 68 67 60 55 56 52 52 53 54 50 53 65
90 85 91 76 75 85 81 84 76 81 86 89 63 73 26 24 22 20 26 29 30 27 30 28 30 29 31 34 43 37 31 47 57 72 63 56 59 59 56 57 54 50 58 64
90 93 69 80 90 87 88 87 82 84 91 95 59 52 26 22 30 26 32 36 34 39 37 41 42 40 35 28 36 35 38 41 68 77 70 54 58 62 60 56 51 54 54 56
88 92 98 77 94 92 95 94 89 96 94 90 38 60 35 26 24 24 34 34 32 38 38 36 31 34 28 25 25 26 39 48 55 73 63 37 53 63 64 54 53 54 50 52
92 85 96 93 83 94 93 91 82 86 77 69 53 47 41 32 34 33 35 34 36 39 41 42 38 33 28 27 30 24 38 52 59 61 47 45 39 48 57 53 57 52 50 55
87 94 90 98 98 96 97 97 78 86 65 76 50 31 31 30 33 34 37 37 38 38 32 44 47 47 42 30 31 28 24 42 43 40 47 56 57 47 48 52 59 52 53 65
87 89 89 97 99 99 93 86 89 88 96 85 46 39 36 36 36 37 38 39 39 40 42 47 47 45 49 40 42 30 32 25 31 30 55 61 59 51 51 63 55 54 61 73
98 95 93 98 90 80 92 99 92 90 89 91 80 47 38 39 42 42 43 48 53 46 53 54 53 38 40 34 43 39 42 41 42 30 56 65 59 59 68 60 56 58 74 94
98 94 97 86 84 72 92 89 85 85 71 75 74 73 53 58 54 63 67 60 56 61 58 63 64 44 43 33 53 45 39 58 50 39 53 72 75 74 64 61 64 65 92 93
96 98 94 82 83 80 82 73 86 88 86 92 93 67 53 56 66 82 97 74 60 66 61 69 80 50 39 36 63 62 59 98 38 40 55 79 78 70 66 64 73 94 97 72
93 98 76 86 78 84 88 84 87 94 98 87 86 79 72 87 94 86 99 94 90 88 77 86 78 54 40 46 98 100 74 94 55 52 64 78 76 72 71 65 84 97 77 100
91 96 97 93 69 70 77 89 93 98 94 99 95 99 87 89 92 89 98 95 86 84 87 92 80 53 44 59 99 82 58 61 66 67 80 81 81 86 80 78 71 92 100 100
98 98 90 67 65 79 86 77 91 93 99 100 100 96 100 99 100 99 92 92 79 76 87 97 86 66 66 83 83 44 68 77 73 81 83 82 81 79 90 96 100 93 100 100
99 93 84 89 87 83 92 82 79 83 85 99 99 98 100 100 100 99 98 98 98 94 95 93 82 57 87 81 46 47 67 78 81 86 88 91 97 98 95 99 100 100 99 98
97 87 90 96 81 95 76 72 82 86 83 98 99 99 100 100 99 99 98 98 99 98 100 96 88 94 92 72 49 51 62 92 94 96 100 100 100 100 100 100 100 98 98 99
84 94 97 95 90 64 77 81 75 82 71 78 98 99 99 99 99 100 99 98 100 96 98 98 100 98 72 52 53 57 82 100 100 100 100 100 100 100 100 100 98 98 91 89
88 95 97 99 96 84 67 71 75 76 85 84 96 100 89 92 99 100 100 100 100 100 100 100 90 64 73 80 95 100 100 95 100 100 100 99 100 99 98 97 88 91 96 97
98 99 98 99 96 74 57 77 77 80 82 84 94 97 97 93 97 99 100 100 99 98 99 100 100 100 100 100 100 99 100 100 99 99 98 99 96 91 95 94 95 97 98 77
95 95 99 97 99 91 90 85 85 76 75 75 91 97 99 96 100 100 99 99 99 100 100 99 98 100 99 99 99 98 99 99 98 92 93 96 100 99 97 99 97 56 26 25
91 79 90 79 70 78 94 87 73 70 68 63 84 99 93 98 99 100 100 100 100 100 100 100 100 99 99 98 97 97 95 97 98 98 100 100 100 100 84 43 26 25 23 19
88 89 87 90 88 93 89 81 72 62 66 63 81 88 94 100 98 99 100 98 97 99 100 100 100 100 100 100 100 100 100 100 100 100 98 94 67 36 24 25 23 19 18 16
88 92 85 78 69 88 82 81 73 69 74 71 70 84 92 95 93 88 93 100 100 100 100 99 100 100 100 99 100 100 100 99 93 84 53 29 25 25 23 20 19 17 16 15
73 75 81 77 87 87 79 82 76 77 81 76 70 74 79 74 78 86 87 95 97 100 100 100 100 100 100 100 100 93 83 63 40 25 25 26 23 20 20 17 17 16 15 14

GFSCGP_700_rhum_045.txt.gz
RH
89 99 95 96 78 72 77 84 83 66 66 71 66 64 64 38 37 39 27 27 22 19 17 20 22 19 15 16 29 65 68 74 71 59 56 48 49 52 49 48 50 45 48 52
94 96 80 85 80 81 87 88 81 64 60 64 58 50 44 30 16 15 10 11 11 12 14 19 23 27 28 26 26 35 74 78 80 78 66 62 56 58 58 58 58 51 47 55
92 94 99 93 89 85 83 79 73 73 52 47 48 28 15 15 13 17 15 13 14 14 14 14 13 15 24 29 35 41 48 70 79 80 79 78 69 65 65 64 61 53 49 57
92 88 81 84 85 86 82 77 76 78 69 63 62 80 16 19 17 18 15 15 13 13 14 15 17 18 18 20 32 39 49 62 68 83 87 84 77 66 58 58 56 56 61 62
84 86 90 91 76 89 86 82 78 75 72 78 54 66 25 23 18 16 23 21 22 21 17 15 15 20 25 23 22 24 32 50 65 66 79 85 82 75 67 66 66 64 62 60
91 88 87 86 83 86 86 84 76 73 83 94 40 54 34 21 23 20 20 28 25 23 27 22 19 18 24 30 32 31 36 34 48 64 66 74 83 76 71 67 70 66 64 60
96 94 86 81 86 88 89 81 90 88 94 92 57 72 40 26 22 25 25 23 26 28 30 36 44 41 37 44 42 37 41 45 41 43 54 66 77 74 76 72 72 73 72 68
82 79 77 66 89 78 90 82 81 93 92 82 56 70 34 20 24 33 34 36 36 36 37 39 40 36 34 37 30 25 25 32 43 44 41 62 81 78 90 72 76 75 73 70
82 91 94 91 87 86 92 95 92 91 75 85 48 29 19 28 34 34 36 37 38 39 37 39 38 34 32 32 31 32 23 24 31 42 46 48 63 68 74 64 69 77 74 70
83 83 96 91 98 94 86 78 93 91 94 94 67 51 36 36 37 37 37 38 39 41 47 51 51 40 37 35 36 36 38 25 31 34 48 50 63 71 64 62 65 74 68 63
88 87 96 92 89 80 96 94 88 84 91 96 96 59 41 40 43 45 46 51 56 62 69 64 55 52 48 46 43 34 37 33 36 34 51 55 61 63 59 71 80 75 69 67
96 85 84 83 78 86 80 78 91 84 66 79 80 71 56 47 55 55 67 81 75 74 72 64 60 57 56 50 44 35 33 40 36 46 40 49 51 51 60 78 80 74 72 62
90 94 91 90 85 90 93 89 89 87 80 86 88 66 56 58 66 95 97 90 78 67 87 71 64 63 64 55 48 37 37 39 52 42 53 54 36 45 83 87 83 76 67 65
96 89 77 80 88 90 88 83 82 85 98 85 83 75 65 88 99 93 93 84 81 77 85 72 71 69 66 65 47 39 47 59 54 64 75 96 57 85 88 86 81 73 78 79
98 90 88 79 73 77 73 69 79 94 81 98 69 85 89 99 97 99 98 98 98 76 82 79 75 77 72 69 49 46 88 98 99 99 96 63 73 90 96 94 89 89 99 100
99 92 88 65 74 78 83 76 73 94 94 100 93 98 100 100 95 99 100 99 100 92 96 87 86 95 83 76 57 62 99 100 100 98 97 82 97 100 100 100 97 100 100 100
100 96 85 76 81 86 84 72 75 80 85 94 96 84 95 94 100 99 98 97 99 94 98 100 93 98 100 83 99 100 100 100 100 100 87 98 100 100 100 100 100 100 100 100
100 92 86 81 80 95 83 66 79 82 83 81 84 86 98 100 99 99 98 94 99 91 96 99 98 99 99 100 100 100 100 100 100 96 98 100 100 100 100 100 100 100 99 100
89 86 87 99 95 71 80 77 78 88 74 75 92 87 100 99 99 100 98 99 99 97 98 95 97 99 99 100 100 99 85 100 100 100 100 100 100 100 100 100 100 100 98 99
92 92 94 99 97 90 78 64 80 83 72 84 88 99 100 100 99 99 99 100 100 100 100 100 100 100 100 95 82 71 78 100 99 100 99 100 100 99 99 99 99 98 97 94
100 100 99 97 96 74 76 82 86 85 79 78 79 100 100 98 98 99 100 100 99 100 90 84 71 80 87 79 78 91 100 99 99 98 100 98 98 98 98 99 97 88 94 95
86 88 98 99 98 88 89 85 93 78 69 75 77 98 100 99 100 98 97 92 99 100 100 94 95 99 99 99 99 99 99 97 98 98 99 99 100 98 94 93 95 80 37 26
94 78 87 83 73 83 85 87 80 73 74 67 80 96 99 100 96 100 99 99 98 93 94 97 99 99 98 96 98 98 99 99 98 98 97 97 97 97 77 42 29 27 24 19
98 90 96 86 83 86 82 85 79 74 80 79 71 85 92 95 99 99 100 100 100 99 98 98 99 99 98 97 96 98 97 98 95 93 98 88 48 31 29 27 23 20 18 17
97 96 96 87 79 78 84 87 81 74 77 81 73 75 83 81 88 95 100 98 98 98 100 99 99 98 99 99 99 99 100 99 99 78 43 31 29 26 22 20 19 18 17 16
77 87 92 90 82 74 79 81 82 80 78 81 83 77 82 76 76 89 93 100 100 99 100 98 99 99 100 100 100 98 87 63 44 32 29 26 23 21 19 19 18 16 15 12

GFSCGP_700_rhum_048.txt.gz
RH
99 100 97 100 96 89 92 87 82 68 76 68 68 76 42 28 44 40 34 26 23 21 20 22 17 18 30 38 47 58 66 68 62 59 68 64 58 58 57 52 49 49 46 50
100 100 99 99 99 93 89 89 76 75 76 76 64 55 44 33 32 26 20 20 19 21 16 17 22 25 22 20 20 20 28 68 74 67 59 78 76 59 59 62 61 56 51 54
84 88 87 88 87 98 87 89 86 81 69 66 63 56 39 21 14 14 13 13 14 13 12 12 14 19 23 25 28 30 25 38 77 78 77 71 78 80 65 61 64 62 54 59
98 90 90 91 83 85 85 85 82 77 67 61 46 60 16 15 14 14 16 14 15 17 15 14 15 15 15 17 25 28 31 32 56 75 77 77 81 76 76 72 69 68 61 62
87 95 89 77 88 90 86 80 74 73 76 74 50 61 21 16 14 16 14 15 15 12 15 16 14 13 13 19 22 24 36 40 50 49 62 67 76 83 91 88 83 70 67 67
88 84 84 79 79 84 88 81 77 75 73 84 52 60 29 21 21 22 24 20 22 24 23 22 23 22 21 22 22 28 28 30 52 60 58 63 66 77 90 92 89 78 69 71
98 93 91 84 87 89 90 84 84 89 94 83 63 77 26 24 24 28 31 31 28 31 33 32 31 33 34 34 34 37 31 34 35 44 58 61 65 71 79 89 91 89 82 73
94 95 89 80 84 68 89 79 70 79 96 86 62 65 31 24 15 21 30 35 34 34 35 37 37 38 41 42 41 39 33 30 31 36 33 41 56 60 63 74 79 89 89 78
88 87 90 84 86 83 88 94 82 89 90 92 55 36 24 22 34 36 36 37 37 38 38 38 39 40 40 40 41 38 33 27 26 24 24 32 38 43 51 60 72 82 84 72
75 89 94 94 95 93 81 79 87 87 82 88 64 57 26 33 40 40 42 44 46 45 43 42 43 50 54 50 52 52 45 38 36 32 20 19 32 41 46 57 82 79 74 76
84 78 99 94 91 87 90 91 84 79 78 93 95 50 42 44 41 39 42 50 54 59 64 58 61 64 67 68 58 52 50 48 38 28 23 24 28 38 55 57 65 67 76 72
85 90 90 95 88 89 91 84 82 72 68 92 92 65 48 44 51 58 79 85 85 75 74 74 66 77 76 71 62 56 57 52 41 29 30 28 28 40 64 70 72 68 67 75
84 88 90 92 86 89 90 88 95 85 79 88 85 64 51 58 75 94 84 95 96 82 94 93 88 84 80 71 65 59 57 52 37 33 36 40 43 51 74 78 77 69 77 87
87 86 76 77 77 76 84 71 75 88 92 86 78 63 70 90 97 86 88 96 99 100 100 81 85 93 93 79 71 68 62 55 41 55 61 60 78 63 62 72 73 65 91 92
96 90 86 78 85 90 85 79 83 87 72 93 65 83 83 94 100 99 95 98 99 100 89 90 78 78 87 82 76 76 68 61 67 78 85 64 72 70 98 48 68 95 97 96
97 94 84 70 63 66 69 69 67 70 72 91 82 86 98 99 100 100 92 100 99 92 90 87 81 85 85 95 85 72 56 53 94 100 98 89 100 100 97 98 100 100 97 90
99 99 90 68 90 82 80 68 69 73 79 84 91 87 98 93 98 94 99 88 87 89 96 89 100 70 83 86 76 72 84 96 98 99 99 99 100 100 100 100 100 97 98 100
95 99 93 81 80 94 91 70 77 82 83 92 86 99 100 98 95 98 96 90 95 92 99 98 92 82 91 93 97 97 99 98 99 99 99 100 100 100 100 100 100 100 100 100
93 92 90 93 96 70 84 79 75 91 72 74 94 90 98 99 99 100 96 96 99 99 99 98 100 100 100 100 100 100 100 100 100 99 99 100 98 100 100 100 100 100 99 99
95 96 98 95 99 85 78 76 85 85 70 84 80 90 100 99 99 98 99 96 100 100 100 100 99 93 90 98 99 100 96 97 99 98 99 99 98 98 98 99 98 99 99 98
99 92 92 98 94 70 67 84 86 84 81 76 76 91 99 98 99 100 97 94 99 93 85 84 80 75 71 71 68 74 80 99 98 98 99 98 98 98 97 98 98 97 97 96
95 98 99 100 94 84 88 84 94 85 73 80 76 87 100 96 98 100 99 93 96 96 99 100 100 94 100 76 88 92 100 100 99 98 99 98 98 97 96 97 98 79 37 26
96 82 80 74 71 80 80 90 91 85 73 81 78 86 98 98 99 98 99 94 97 99 100 98 99 96 98 98 98 99 98 98 98 98 98 97 97 97 72 33 26 26 23 20
97 100 96 95 98 91 81 82 92 88 73 81 80 76 91 97 100 98 98 98 97 89 89 93 99 99 96 97 99 100 97 96 95 98 92 61 32 26 26 24 21 20 19 18
98 100 90 87 84 86 76 87 91 88 82 79 84 84 82 94 97 99 99 97 95 99 98 98 96 93 91 89 91 94 92 80 52 30 27 27 25 22 21 20 19 18 16 14
76 84 94 87 99 96 84 74 78 77 80 82 81 82 89 91 83 99 100 98 98 98 98 98 99 99 100 96 73 49 33 28 28 27 24 22 22 20 19 18 17 14 10 9

GFSCGP_700_rhum_051.txt.gz
RH
100 98 99 93 86 78 81 82 77 66 62 67 57 65 35 29 44 36 26 21 21 18 16 17 18 18 31 45 47 49 65 69 61 62 58 47 45 52 54 50 49 55 54 58
98 100 98 99 100 100 97 98 88 75 74 79 66 60 39 28 31 34 34 26 23 24 23 24 29 30 25 19 18 31 46 72 74 75 73 67 56 58 66 61 57 62 61 58
96 94 98 99 100 99 100 92 83 83 74 76 71 60 38 28 30 24 17 18 14 12 12 13 15 22 30 32 29 21 25 40 65 77 79 77 77 62 64 54 58 50 57 59
98 95 92 98 93 88 98 87 85 84 80 76 62 64 29 18 13 15 17 25 21 17 17 17 16 13 12 19 27 33 36 34 33 36 40 51 78 76 67 63 72 76 62 61
89 97 85 95 90 94 91 85 83 77 70 67 52 57 20 15 15 18 20 19 20 17 15 16 18 17 17 17 17 19 28 35 42 47 48 44 58 78 81 78 77 85 83 77
83 94 90 86 94 98 91 86 78 73 68 78 59 56 17 23 24 18 18 16 20 20 21 20 21 22 22 23 22 24 25 25 28 35 50 54 54 59 68 77 80 98 92 83
94 94 91 86 82 82 90 87 71 78 87 78 69 69 21 28 32 26 23 24 26 27 28 29 29 30 30 30 30 30 32 33 32 32 33 56 61 65 63 61 68 80 87 90
93 96 88 80 81 72 90 82 63 68 88 86 73 68 32 26 29 27 25 27 32 34 34 34 34 34 34 36 39 40 41 41 39 35 33 36 47 64 67 66 68 66 73 87
85 85 88 85 76 82 86 89 76 78 90 95 58 38 25 28 21 32 36 39 41 39 38 38 38 38 40 39 40 41 42 42 42 39 36 28 29 33 39 50 60 64 69 76
80 84 90 86 94 92 80 74 81 77 66 75 56 46 23 32 36 42 42 41 44 46 46 44 43 43 46 49 45 50 47 43 48 49 47 44 40 33 26 26 41 51 60 63
78 74 98 89 93 94 92 89 79 70 68 87 88 38 36 42 43 50 54 56 62 71 67 64 60 57 51 46 50 69 71 67 62 52 52 47 36 27 23 23 28 46 54 62
80 80 96 96 92 94 98 81 75 68 75 96 91 54 46 52 64 79 85 81 79 97 92 85 72 59 60 68 74 82 77 73 64 60 53 49 33 30 25 30 33 46 57 62
80 80 87 96 94 95 94 88 94 86 79 84 82 54 52 63 83 88 83 79 82 93 99 99 76 86 68 62 80 76 77 82 70 61 52 40 39 47 39 40 50 54 59 68
77 81 77 77 72 77 86 76 83 95 95 84 68 56 64 80 91 88 83 88 90 85 94 88 71 79 68 63 76 91 81 76 84 66 54 51 56 59 58 57 69 86 86 89
87 88 88 79 87 90 83 75 74 79 72 84 60 68 76 92 98 92 98 92 86 87 84 81 80 82 79 87 90 87 83 79 69 66 62 68 78 74 74 67 65 87 89 81
94 95 88 74 72 75 77 78 80 77 80 83 70 78 90 92 100 99 91 93 86 85 88 82 93 90 88 81 70 72 69 63 57 54 67 77 85 74 73 92 66 85 88 73
99 99 96 74 93 87 75 63 54 51 58 72 83 87 99 97 97 98 87 93 94 91 94 81 100 99 100 100 100 96 75 86 71 82 86 99 100 94 100 100 84 96 74 84
97 99 98 83 82 95 78 74 73 78 79 90 83 95 95 98 97 98 89 93 90 98 95 92 92 93 96 100 100 100 88 98 97 98 99 99 99 99 100 98 100 100 100 100
95 99 94 96 100 70 63 88 75 78 73 75 88 90 100 98 98 98 87 96 99 99 98 97 99 99 100 100 100 100 100 100 96 95 96 98 100 100 99 99 98 100 100 98
91 97 94 93 95 90 87 83 78 82 72 79 82 93 98 98 98 99 88 98 100 79 95 100 100 100 100 99 98 89 84 85 100 100 99 100 100 98 91 95 97 99 98 98
95 96 89 86 92 70 67 86 83 82 84 86 80 93 97 99 98 99 89 87 94 98 100 100 98 100 97 90 82 87 81 96 100 93 100 100 100 99 99 99 98 97 96 97
94 90 89 88 96 83 69 87 93 91 86 90 82 93 97 99 98 100 84 82 85 85 91 98 99 100 97 98 85 88 99 99 100 98 98 99 98 98 97 97 97 87 43 27
93 83 88 84 74 78 96 96 98 96 84 86 90 86 96 100 95 99 100 89 84 88 93 90 88 93 99 99 93 98 97 96 98 98 96 96 97 95 63 33 26 23 22 21
91 98 93 95 97 90 93 88 87 97 96 85 88 92 88 98 100 90 97 98 88 84 87 92 91 87 83 83 89 95 92 94 96 91 66 38 28 27 24 22 22 21 18 15
95 97 90 92 82 88 91 86 98 98 91 87 88 85 91 91 100 99 98 92 97 99 97 88 91 90 89 90 93 91 84 59 34 28 28 25 23 23 22 20 18 15 11 9
89 95 98 95 97 85 84 82 77 73 70 72 83 82 83 88 94 90 99 97 96 98 97 99 98 88 75 67 57 38 30 29 27 24 24 24 23 21 18 15 11 10 10 8

GFSCGP_700_rhum_054.txt.gz
RH
97 96 97 90 91 87 72 68 63 47 61 64 56 58 30 27 25 22 19 16 15 15 15 16 18 23 28 35 50 56 58 56 60 59 51 44 35 37 48 50 58 53 54 53
99 99 99 98 90 94 98 90 79 78 77 79 67 60 35 21 26 25 29 27 23 22 23 25 25 26 22 21 24 31 48 58 64 69 70 59 57 53 50 51 64 67 63 56
99 99 96 99 99 100 99 94 86 82 79 77 70 58 31 24 32 28 27 27 26 19 17 17 23 28 28 26 27 28 26 29 41 42 54 68 75 70 63 51 52 57 69 67
99 100 95 100 99 99 100 90 94 82 82 79 68 69 32 24 20 19 16 19 25 26 23 19 18 17 16 17 24 29 32 33 31 28 30 48 70 75 76 78 77 73 66 64
95 94 92 93 98 95 94 86 84 82 77 69 60 57 25 16 19 22 24 25 26 24 22 20 19 19 20 19 20 18 20 30 39 39 38 34 39 54 70 64 60 67 77 71
92 94 99 100 100 98 90 88 86 79 72 76 59 50 18 30 33 32 29 28 29 28 24 23 23 22 21 21 21 20 22 28 32 36 45 53 54 52 49 44 48 53 68 76
98 98 94 94 95 96 93 91 74 71 83 73 69 63 22 32 31 31 28 25 21 23 25 25 26 29 31 31 30 29 28 30 37 40 38 39 38 37 52 69 63 53 63 76
86 99 97 94 86 80 94 87 60 59 80 79 77 70 33 34 34 33 23 23 26 30 33 33 33 32 33 34 35 35 35 36 38 40 40 40 37 38 41 52 64 71 68 65
82 86 95 83 90 83 86 87 73 68 89 91 57 39 32 31 29 33 42 42 39 37 36 37 38 37 37 37 37 37 37 38 38 38 39 39 39 40 36 34 38 49 61 69
77 84 93 89 94 89 80 76 75 66 64 64 42 39 23 37 40 48 50 49 49 47 45 43 43 42 42 43 42 40 42 44 43 41 42 42 43 49 48 46 40 32 34 47
73 73 96 95 97 89 84 83 72 68 64 78 64 32 40 38 56 61 66 65 65 70 73 66 65 61 56 60 57 54 53 49 54 58 53 50 56 54 51 47 38 32 30 29
75 74 97 95 96 92 95 87 75 60 74 83 89 42 42 53 68 80 81 79 80 78 80 85 79 66 57 58 66 63 46 47 71 77 73 71 64 58 53 45 34 31 26 26
75 76 93 100 95 96 96 89 90 76 70 75 82 44 50 56 78 82 80 78 81 82 80 80 77 69 59 52 57 49 46 70 83 82 78 72 67 58 51 44 38 39 32 32
81 77 72 74 72 79 92 82 84 88 90 81 56 35 52 74 82 77 80 84 89 87 74 71 69 46 60 58 48 60 66 67 82 85 77 75 85 65 51 44 42 54 52 50
90 81 77 77 80 88 85 76 79 83 82 73 49 55 68 84 85 85 94 86 91 90 73 80 47 62 68 59 70 71 81 81 77 80 74 84 72 67 60 56 66 81 81 83
89 82 85 75 74 76 73 72 84 79 73 69 60 67 83 90 82 91 94 84 91 90 90 74 37 59 49 60 71 86 92 70 63 58 59 60 63 75 90 92 100 100 84 100
92 93 90 78 81 86 70 57 58 59 54 55 67 79 95 83 88 94 99 92 96 89 87 85 55 40 62 90 100 98 100 100 90 68 71 94 100 88 81 95 97 98 87 85
92 96 93 86 83 96 70 78 76 72 77 81 84 88 92 91 92 97 100 98 100 100 99 95 88 95 99 100 100 100 100 88 96 95 97 99 98 99 85 98 99 100 100 100
98 92 87 91 97 70 62 82 77 77 83 83 90 87 92 92 92 97 100 90 100 98 80 100 97 99 100 100 100 100 95 79 90 92 99 98 99 95 99 99 98 99 99 96
91 91 91 96 88 95 88 91 83 83 84 88 89 84 91 95 92 96 87 85 92 100 99 99 88 96 99 100 100 99 100 83 98 100 100 99 99 99 100 100 100 100 99 98
97 97 93 78 83 75 79 91 90 94 91 86 94 83 89 98 98 99 91 79 80 82 81 96 100 98 97 68 85 97 99 99 98 99 98 99 98 98 97 97 97 97 97 97
85 85 89 87 87 86 78 91 99 99 100 86 95 90 92 88 92 99 96 84 75 74 80 73 95 99 90 85 97 100 97 94 94 94 92 93 96 97 97 97 81 46 27 23
94 86 82 80 72 92 98 99 100 97 98 92 93 97 94 91 94 97 99 89 86 80 80 78 76 88 99 98 93 97 93 93 94 93 96 97 86 47 30 26 22 21 20 17
90 91 94 95 92 93 99 100 94 90 92 92 94 92 95 97 99 97 98 98 88 85 80 84 84 83 87 87 89 96 94 94 87 59 34 29 27 23 22 21 19 16 12 10
94 99 98 88 90 97 95 100 98 93 91 86 86 89 90 93 94 96 99 98 95 86 94 89 86 87 88 85 88 88 64 36 29 28 25 23 23 22 20 16 12 10 10 8
76 84 98 98 94 91 92 94 91 79 71 68 71 76 87 84 90 95 95 100 95 92 98 99 85 74 73 66 50 33 29 28 25 24 24 22 21 18 14 11 11 10 8 7

GFSCGP_700_rhum_057.txt.gz
RH
85 93 77 84 95 74 59 44 44 35 42 50 50 60 31 28 21 18 16 16 15 15 15 15 15 17 21 30 37 44 53 54 51 49 48 46 44 45 43 42 53 60 59 54
98 100 94 85 85 84 73 64 64 62 64 67 58 56 32 27 19 21 19 18 16 16 17 17 17 15 14 14 17 27 40 48 51 54 58 57 56 54 55 51 46 52 53 64
98 98 98 92 90 96 97 84 78 78 80 78 71 52 32 31 32 28 26 26 24 22 20 23 24 22 24 23 20 19 21 21 20 24 40 52 58 57 68 64 42 40 49 50
99 99 99 99 99 98 94 89 86 91 82 71 64 67 31 36 31 29 26 20 24 24 23 22 21 20 19 17 22 28 28 28 29 28 25 25 30 40 49 57 75 80 80 77
98 96 99 100 99 100 98 95 94 88 76 70 58 59 36 29 30 31 31 28 24 22 23 25 26 25 25 22 20 19 19 20 26 35 39 41 37 37 33 38 62 76 78 78
98 99 99 96 97 98 97 90 86 82 75 71 58 52 29 35 34 38 37 36 34 33 31 29 28 27 26 25 24 22 21 21 21 24 34 44 52 54 54 55 52 50 50 52
98 98 100 99 92 97 92 89 80 66 79 70 66 66 31 42 43 41 39 34 30 23 22 24 25 27 29 31 33 32 32 31 26 24 28 35 41 43 46 49 53 58 61 63
87 99 96 99 98 90 92 89 73 55 65 62 68 66 39 38 39 38 36 31 31 34 32 32 31 31 32 33 34 34 36 36 36 35 33 34 37 39 40 38 36 35 41 59
83 97 98 97 90 82 93 92 75 59 80 82 50 45 41 38 36 40 48 46 44 43 42 41 39 38 36 36 36 36 37 38 38 38 39 38 38 39 40 40 39 38 42 47
76 93 99 94 98 88 75 75 71 64 76 55 38 33 30 45 53 64 52 48 50 50 50 52 54 53 52 49 48 48 45 42 44 43 43 45 43 42 42 45 49 46 41 36
70 72 100 98 96 90 84 80 68 59 58 61 47 28 35 47 58 59 53 57 59 56 58 60 59 55 53 52 50 50 48 51 54 55 53 56 58 50 49 49 51 52 50 47
71 73 95 96 94 90 92 78 69 58 69 72 75 37 46 47 54 57 59 66 66 68 68 61 54 47 44 47 51 44 48 54 50 44 43 47 64 70 71 69 59 55 54 49
70 73 95 100 95 96 96 84 81 73 56 62 68 36 46 54 65 78 79 79 74 73 65 54 49 42 33 41 42 36 27 25 24 28 38 50 72 78 73 71 66 60 55 50
75 72 69 72 69 78 89 79 87 86 76 69 50 42 47 56 77 79 82 87 83 83 75 68 42 28 33 34 23 26 30 29 29 36 48 55 66 74 78 76 71 65 56 48
82 74 70 72 77 81 82 76 81 84 75 69 45 43 62 77 83 85 93 98 98 92 84 63 42 28 30 32 31 28 28 31 31 39 48 55 60 72 79 84 81 83 67 77
94 82 77 79 77 76 73 77 83 77 73 66 56 58 77 82 84 90 96 96 97 95 76 61 39 28 31 26 27 27 33 50 50 57 44 51 57 67 80 78 96 96 89 99
90 91 80 80 76 84 80 64 60 60 58 56 58 71 78 81 85 93 98 100 99 99 79 54 48 56 64 54 64 67 74 68 73 80 86 75 87 92 91 94 98 98 97 98
90 95 88 87 78 92 69 81 82 72 62 66 78 83 83 86 92 98 100 99 94 100 76 50 59 74 78 88 83 81 77 81 78 80 88 93 90 100 87 98 96 99 99 98
97 86 86 91 88 64 62 79 78 81 84 83 86 83 86 89 93 91 87 79 80 84 89 76 83 88 80 75 79 78 80 83 92 92 99 100 98 96 98 98 99 99 100 98
91 91 93 95 90 88 88 90 89 86 92 91 92 85 84 92 96 88 82 77 74 76 83 98 100 100 82 80 69 79 85 86 88 97 99 99 96 100 99 99 98 98 96 97
97 91 96 88 85 71 86 88 96 96 96 94 94 88 86 88 92 89 85 85 79 77 75 72 100 100 98 68 82 85 95 94 88 96 99 97 96 96 96 96 96 97 99 86
83 86 100 97 83 76 73 85 97 99 99 95 94 94 86 86 85 95 100 94 81 75 71 67 93 100 97 87 95 96 94 90 89 90 91 91 91 91 78 51 31 24 22 21
91 84 82 79 68 93 92 99 98 98 98 98 94 93 94 84 85 94 98 100 92 81 75 73 73 86 91 89 90 90 87 84 87 90 87 50 29 26 23 22 20 18 15 11
96 90 94 93 93 85 96 98 99 98 96 94 92 90 90 92 92 91 98 97 99 88 77 79 79 83 86 87 87 90 88 77 47 30 27 24 23 23 21 18 14 11 10 9
85 87 88 86 85 94 95 98 99 99 93 90 85 82 84 91 88 89 98 97 98 98 84 82 84 87 86 85 85 68 38 29 28 25 24 25 23 20 17 12 10 10 8 8
69 76 80 89 96 88 91 99 99 97 87 76 71 71 74 88 85 87 91 100 99 99 95 79 78 75 76 67 46 30 29 26 24 26 25 23 20 16 12 11 10 9 8 7

GFSCGP_700_rhum_060.txt.gz
RH
96 99 95 99 90 72 73 78 66 33 42 36 46 61 33 29 24 17 15 15 17 15 12 12 12 11 11 13 15 18 32 43 48 44 40 42 36 36 37 43 50 47 44 52
94 95 97 100 99 80 80 67 66 45 40 48 67 47 33 27 21 15 14 14 13 13 13 13 13 12 12 13 15 16 19 25 38 44 42 45 47 44 44 45 50 56 51 55
99 92 100 98 100 95 85 72 81 73 61 69 66 52 38 31 26 25 23 20 17 16 14 14 16 18 18 17 15 14 14 15 16 20 31 39 45 42 34 36 38 44 51 56
98 89 90 95 97 89 90 86 81 78 83 63 63 35 47 46 43 38 34 30 26 25 25 24 26 27 23 20 18 19 20 23 26 29 30 27 24 24 27 43 53 60 61 57
98 98 97 96 99 97 98 99 93 93 89 74 61 55 54 42 37 34 32 30 26 27 30 30 29 26 23 22 22 21 21 22 23 23 26 31 32 34 34 36 38 38 41 59
98 99 99 99 99 99 92 95 98 86 75 69 60 58 41 44 45 39 40 39 36 34 32 30 29 27 26 25 24 22 20 20 19 19 19 21 27 38 43 45 48 53 51 47
98 99 99 99 99 99 98 94 84 80 82 59 52 59 42 39 40 44 42 42 38 34 31 29 28 27 26 23 22 23 26 26 27 26 24 24 21 28 39 44 44 48 52 57
98 98 99 100 92 90 96 92 75 54 43 42 60 55 43 44 45 46 45 40 34 27 29 30 28 27 27 29 30 31 32 33 34 35 35 35 35 31 33 39 42 43 41 39
88 99 97 98 97 89 91 93 74 52 61 60 45 47 47 46 44 49 44 42 43 43 44 42 40 39 36 35 33 34 36 36 36 36 38 38 39 39 40 41 41 41 41 40
77 97 98 99 97 91 89 81 74 60 66 47 36 35 34 41 45 54 51 54 55 52 50 51 47 46 44 44 44 44 44 44 45 47 45 44 45 43 43 42 42 42 42 43
69 80 97 97 95 94 81 80 66 58 53 44 24 23 45 50 62 60 56 54 55 53 52 52 51 48 46 44 40 38 40 45 46 45 47 48 50 55 55 53 48 47 49 55
72 75 98 95 89 84 86 76 63 63 69 66 69 33 42 58 55 54 58 64 65 59 60 58 56 41 32 29 27 31 28 22 20 19 21 23 25 32 39 45 57 65 66 64
64 70 96 98 96 92 90 79 72 60 60 61 54 34 43 49 57 62 70 76 74 69 70 64 55 43 30 25 32 30 21 23 25 24 23 23 24 25 27 34 55 71 73 71
67 60 66 60 72 77 82 70 75 77 71 67 54 47 47 51 58 76 81 81 86 87 75 68 51 44 23 30 35 25 20 22 21 21 22 25 28 31 41 50 61 70 71 72
80 70 66 64 68 73 75 76 77 81 72 63 57 41 47 61 76 82 85 91 98 98 79 68 58 38 24 26 27 21 19 20 24 29 29 30 33 43 53 53 62 70 77 77
85 75 71 69 66 72 71 71 73 71 77 67 58 41 61 81 84 81 88 98 100 100 86 66 56 44 34 29 31 30 28 35 41 48 54 61 41 49 53 60 78 88 78 97
92 89 81 86 76 76 76 53 59 59 59 58 57 57 67 83 86 87 93 97 93 93 98 57 57 50 43 36 37 37 40 50 56 64 70 77 82 78 93 94 82 96 99 96
88 90 88 94 77 83 56 77 78 63 60 52 52 73 87 83 87 94 89 83 78 79 84 79 68 49 43 37 39 43 48 52 68 76 80 79 81 82 86 91 93 91 83 98
89 93 85 91 80 65 66 72 78 81 84 82 84 84 86 82 88 92 84 76 73 74 78 77 75 73 50 42 42 41 57 63 72 80 91 81 81 86 92 93 88 94 98 97
94 95 97 99 94 61 82 84 86 90 98 91 90 87 83 88 90 88 81 75 72 71 72 71 74 93 64 63 43 48 68 73 78 86 81 91 95 99 92 95 95 92 88 95
98 95 98 98 92 72 81 83 92 97 97 95 89 89 81 85 88 90 90 82 74 70 68 63 68 92 89 59 54 69 75 78 84 87 84 82 84 87 84 85 89 83 64 42
96 99 99 100 97 78 67 86 90 99 96 94 91 91 86 80 87 90 96 96 80 74 70 65 64 79 73 71 78 89 81 80 83 81 80 81 78 58 38 27 24 22 20 16
94 79 92 76 74 81 82 98 96 97 95 96 93 91 89 84 84 88 93 98 98 83 73 71 69 68 69 74 81 81 82 83 82 81 55 28 25 23 24 22 18 14 11 10
90 83 88 84 81 83 96 90 97 98 99 99 94 92 91 86 89 96 91 98 98 98 86 75 75 75 77 80 82 81 86 78 40 28 25 24 24 23 19 15 11 10 9 8
90 92 93 87 78 81 87 95 95 97 99 95 92 89 81 82 87 90 93 97 98 98 97 80 77 81 82 83 80 63 38 29 27 24 25 25 23 20 15 12 11 10 9 8
70 70 75 91 74 80 89 86 96 94 98 91 81 77 75 75 78 89 88 90 98 99 98 96 77 75 79 74 56 33 29 27 25 26 26 24 21 17 13 12 11 10 10 10

GFSCGP_700_rhum_063.txt.gz
RH
70 92 90 85 78 57 48 58 46 47 57 67 60 60 54 56 32 19 17 21 24 14 15 11 10 10 10 9 11 15 22 28 38 46 47 33 39 43 43 42 41 42 46 50
89 99 83 89 79 69 63 57 58 59 64 62 55 61 63 63 31 24 23 20 27 21 11 11 11 10 10 10 10 11 11 14 18 27 36 38 25 29 35 40 41 43 42 50
98 99 94 98 86 82 62 58 56 61 69 63 65 62 55 50 25 17 15 15 15 15 13 11 11 11 11 12 12 12 13 13 14 15 19 30 22 20 21 22 28 33 42 46
99 99 96 93 95 81 65 61 56 82 72 48 60 24 54 53 28 27 23 22 20 18 17 14 14 15 16 16 18 18 18 18 18 19 19 21 25 26 24 26 28 31 35 40
98 99 96 99 91 86 91 76 85 84 79 72 64 51 50 43 45 44 39 33 31 28 28 28 28 28 28 27 24 20 18 17 17 18 22 27 31 32 30 30 33 34 32 34
96 85 90 99 98 98 85 96 94 88 81 74 55 50 47 49 55 54 41 39 34 31 30 32 31 30 28 26 25 22 21 20 19 18 18 18 18 18 20 24 34 41 46 46
97 99 100 99 99 100 96 93 94 95 90 63 57 56 39 43 52 54 62 42 38 37 35 32 31 29 28 27 25 23 21 20 19 20 20 22 25 26 25 24 29 44 51 56
98 98 98 99 99 98 99 98 81 68 54 48 64 50 39 45 50 65 43 43 41 38 33 27 23 24 23 23 22 23 25 28 30 31 32 32 32 34 35 36 34 34 35 37
98 97 99 99 97 98 99 97 80 61 44 44 41 45 50 46 49 52 48 45 40 34 31 34 37 38 38 37 37 36 36 35 34 34 34 35 36 37 38 38 39 40 40 41
86 98 98 96 96 92 94 89 76 63 69 41 36 31 32 44 46 50 50 43 41 43 44 45 43 41 41 41 40 40 41 41 42 43 44 44 47 48 45 44 43 42 43 43
80 85 100 98 97 91 80 81 68 68 54 45 22 23 36 42 45 61 53 57 56 50 48 47 46 46 45 43 39 36 35 29 31 40 46 47 45 46 47 50 52 53 49 47
68 97 91 95 88 85 89 79 71 60 54 56 62 39 49 62 62 58 55 56 56 57 57 55 53 52 50 38 27 22 24 23 18 15 14 14 17 18 19 21 27 36 37 44
67 82 90 87 90 84 84 82 82 74 56 70 52 41 55 63 66 52 48 62 65 68 65 60 59 57 45 33 22 20 21 18 18 16 18 18 18 20 22 25 26 26 30 37
64 66 78 58 80 80 87 90 84 74 72 60 54 46 44 52 58 68 66 80 80 82 82 74 67 55 41 26 24 24 19 20 19 18 18 23 26 26 25 28 29 32 40 49
80 86 60 55 58 66 70 86 94 82 66 68 63 55 52 59 66 76 75 80 84 93 90 79 64 53 42 29 27 23 23 23 22 25 33 33 34 44 42 32 38 45 53 72
78 74 68 66 59 60 64 68 74 71 69 70 54 49 63 59 64 77 81 83 89 96 84 82 65 54 47 36 35 35 34 34 36 39 40 42 47 56 54 53 52 58 64 67
96 87 77 74 71 73 77 49 53 52 52 52 60 48 68 70 76 82 84 85 82 80 79 70 53 48 47 42 38 38 36 43 46 49 53 54 49 57 58 62 66 75 74 72
98 99 85 85 79 82 66 62 63 61 57 55 53 59 63 73 82 84 88 82 76 73 71 73 70 65 47 42 44 42 42 41 47 52 55 51 53 64 68 70 69 68 72 81
94 92 94 86 70 64 59 62 74 74 79 48 46 71 82 84 83 87 86 79 71 69 70 70 72 74 69 63 47 43 39 41 58 60 59 55 60 64 68 68 74 77 81 83
86 88 96 92 85 62 89 73 81 90 96 89 88 88 84 83 88 94 86 81 77 70 65 62 62 78 81 55 50 39 43 62 63 68 68 65 66 72 70 75 80 77 78 85
100 99 98 93 86 75 68 83 88 94 98 92 88 93 82 83 86 89 93 92 85 73 65 60 60 70 73 64 50 52 64 67 70 70 70 70 72 73 76 73 60 37 25 22
94 90 92 89 92 81 60 87 86 100 99 98 90 91 88 81 81 88 93 96 95 85 68 65 64 70 72 68 69 73 73 71 71 71 71 72 57 35 25 24 24 21 15 11
88 81 80 81 81 72 67 89 84 83 94 95 96 93 90 87 84 85 92 95 98 98 79 67 70 67 68 71 71 70 73 73 72 74 56 28 24 24 25 23 18 13 11 9
88 93 85 84 79 76 80 85 88 92 93 97 98 98 92 90 85 89 95 96 94 99 92 73 74 73 72 72 74 75 75 75 52 30 26 24 25 25 21 17 13 11 10 9
96 92 82 86 82 77 78 88 86 84 93 98 97 94 92 90 83 83 88 95 97 98 99 86 76 77 76 76 77 74 54 35 29 26 24 26 26 22 18 14 12 11 10 10
90 80 98 90 91 92 95 92 83 84 85 96 94 86 80 75 74 78 83 88 90 96 94 91 96 80 76 74 71 58 34 29 26 25 27 27 25 21 17 14 13 12 12 12

GFSCGP_700_rhum_066.txt.gz
RH
99 78 81 81 74 81 66 72 61 59 61 60 42 54 44 56 51 39 32 25 30 21 19 18 16 15 17 19 20 23 27 30 32 45 54 37 32 42 46 49 50 47 43 42
94 70 64 94 87 80 93 83 55 52 58 62 60 47 52 49 49 33 27 21 22 28 34 20 13 12 12 12 12 11 11 12 15 18 29 47 32 25 28 34 44 50 42 37
98 85 95 92 84 81 79 63 53 56 69 70 60 56 53 57 54 44 21 15 15 16 15 13 11 10 10 10 10 10 10 11 12 12 12 13 17 13 13 13 16 20 30 42
89 98 75 99 87 81 78 59 60 60 68 62 51 40 34 32 39 26 20 19 18 16 16 13 12 11 11 11 11 12 12 13 14 14 14 16 18 22 19 18 20 24 24 25
100 90 94 86 79 85 70 57 57 69 57 68 64 56 37 47 48 40 27 21 17 18 17 16 15 14 15 16 17 18 19 20 20 19 18 17 18 22 32 33 30 29 28 28
95 98 99 95 98 97 77 75 80 82 82 84 65 49 53 50 42 38 46 38 33 30 28 28 28 27 28 28 27 26 24 22 19 18 17 17 18 18 20 21 20 19 22 31
95 96 100 96 98 99 99 82 91 91 94 87 53 58 42 43 44 44 41 46 46 39 36 32 30 30 29 27 26 24 22 20 18 17 16 15 16 18 20 23 25 25 25 25
80 88 98 90 97 97 98 70 81 76 88 73 57 56 45 44 45 51 58 50 40 40 37 35 33 30 27 23 20 18 17 16 16 19 22 24 25 27 29 31 32 32 33 34
98 94 99 100 87 99 93 99 88 63 40 59 53 48 51 43 50 53 48 45 41 41 38 34 29 26 31 33 34 33 33 33 33 35 36 37 38 40 40 39 39 39 39 39
91 96 99 98 99 99 97 96 85 53 74 62 44 41 37 43 47 46 51 47 42 40 36 33 33 33 32 32 33 35 37 37 38 39 40 41 43 44 45 46 47 48 48 46
88 86 98 98 96 95 98 98 87 72 58 80 48 37 36 33 36 42 49 44 43 41 40 38 36 35 34 38 40 41 38 33 32 33 29 30 38 45 47 44 42 42 41 45
81 86 93 94 92 93 91 85 93 65 61 50 54 49 46 42 42 58 49 51 53 51 47 45 44 45 45 46 46 41 27 24 26 26 19 15 14 14 14 15 16 17 20 21
71 73 89 88 80 79 81 77 77 70 66 64 78 52 56 52 59 60 55 49 46 52 55 54 50 52 52 53 44 30 23 23 22 16 16 16 15 15 17 19 22 24 25 27
65 82 84 75 82 76 72 67 74 76 62 59 48 49 63 65 60 58 54 48 53 68 69 66 58 58 60 53 36 23 23 22 19 17 17 17 21 30 33 36 40 32 29 31
72 85 66 64 56 57 62 64 88 83 65 58 60 50 49 54 53 65 65 55 76 79 78 78 72 62 60 50 30 27 27 28 28 26 29 34 35 37 40 40 42 34 40 40
74 72 68 62 56 53 51 53 68 77 69 65 61 50 57 61 64 66 58 73 80 79 76 75 80 73 56 49 36 35 37 35 34 37 42 46 46 45 43 43 42 48 47 54
84 75 74 79 75 64 59 35 40 51 50 48 54 39 49 55 57 55 78 82 79 74 74 72 70 58 50 50 43 40 41 37 39 38 44 51 45 42 48 49 47 55 54 55
93 95 87 88 76 96 58 51 54 50 52 52 49 55 71 70 65 75 83 81 78 72 71 69 67 67 64 54 43 46 42 38 39 44 54 52 43 47 50 46 55 60 58 58
96 89 82 86 78 59 56 54 64 73 81 60 51 58 68 66 71 83 82 84 76 69 65 62 58 59 63 67 66 62 45 43 42 56 60 56 56 61 56 58 64 60 59 63
87 93 88 84 83 79 80 71 76 88 89 72 47 52 68 81 84 86 89 83 81 72 66 61 58 60 73 70 58 54 44 47 61 63 67 59 58 61 62 62 63 56 43 50
93 92 88 86 83 73 70 63 87 94 94 94 91 90 87 84 84 94 91 95 94 85 72 64 60 64 67 66 64 54 61 66 68 71 66 64 65 66 58 39 26 24 23 16
91 95 93 88 87 81 61 65 95 96 95 96 92 94 84 81 82 82 90 95 98 95 80 66 63 63 66 69 71 73 72 71 70 68 69 67 48 28 24 24 25 20 13 11
89 83 81 76 74 71 66 59 76 90 96 94 94 92 94 88 84 86 86 90 94 98 89 74 69 70 68 68 70 71 72 70 70 71 62 30 25 24 26 25 19 14 12 10
88 88 84 83 73 75 71 73 71 82 85 84 91 95 96 97 93 86 92 96 95 93 99 87 70 70 71 72 73 74 72 71 66 40 29 25 24 27 26 20 16 14 12 11
88 88 83 76 81 86 80 81 82 86 86 88 92 98 98 92 82 87 85 90 96 98 98 90 86 72 72 75 76 75 69 51 35 29 25 24 27 27 23 18 15 14 12 12
82 87 90 86 91 95 95 88 79 85 82 82 88 100 95 91 86 79 78 82 92 93 92 95 84 89 74 74 75 71 61 40 30 27 25 27 28 25 22 18 16 14 14 14

GFSCGP_700_rhum_069.txt.gz
RH
99 98 73 77 83 90 72 78 74 63 63 66 60 53 55 51 44 40 40 38 35 34 39 32 28 23 21 21 22 28 40 44 38 33 29 28 30 42 48 50 50 49 52 52
97 97 74 74 78 82 84 79 70 64 66 66 59 55 46 54 50 39 37 37 34 30 27 24 22 22 21 18 17 18 19 22 25 27 30 22 14 14 23 34 42 55 57 52
99 93 78 83 73 81 90 81 73 67 62 67 70 69 61 45 48 47 36 30 29 27 23 20 17 14 14 14 16 15 14 13 12 12 11 12 13 12 12 13 14 16 23 37
98 92 75 84 79 84 92 70 70 62 71 78 68 61 40 38 34 34 31 22 23 23 20 17 15 15 14 13 12 12 12 12 13 13 13 13 14 14 13 13 15 17 19 19
98 93 78 75 93 89 79 73 79 64 66 65 59 61 44 37 36 27 22 20 21 19 18 17 16 14 12 12 12 12 12 13 14 15 16 17 18 18 19 19 18 18 22 24
92 99 94 97 82 80 87 79 74 72 74 81 63 62 36 22 26 24 30 32 23 18 18 18 18 17 16 16 16 16 18 21 22 23 21 19 18 18 17 17 18 18 17 16
96 85 78 81 89 93 84 99 96 90 92 90 58 68 45 43 32 34 39 38 31 24 23 28 28 25 25 26 27 27 26 24 23 21 19 18 17 16 16 17 19 21 22 23
89 100 100 89 89 88 98 91 69 87 97 83 59 69 58 34 48 45 43 42 39 34 33 33 33 32 29 29 27 25 23 20 18 16 15 14 14 15 17 20 23 26 30 32
82 96 93 100 96 93 98 98 76 69 60 69 56 57 53 44 47 43 40 40 42 38 35 34 34 33 32 28 24 23 22 21 22 22 22 24 24 26 28 31 36 40 42 42
87 95 100 97 95 91 97 96 88 80 76 72 63 50 44 47 45 47 47 45 44 38 36 36 36 33 30 28 27 26 25 24 24 26 30 32 34 35 37 38 41 43 43 44
95 90 100 100 99 96 99 99 93 77 69 81 59 43 42 42 37 41 49 54 48 42 40 40 38 36 33 30 28 25 25 30 34 35 32 28 27 24 24 30 38 42 37 25
94 86 97 98 98 98 98 96 88 73 65 53 58 49 35 36 42 49 52 50 45 46 47 44 42 39 37 35 34 37 39 40 38 26 22 22 20 14 13 13 13 12 12 15
71 83 97 98 96 99 99 92 94 96 74 64 71 51 43 37 48 53 51 52 58 59 59 57 54 53 50 48 47 49 47 35 25 22 19 16 14 15 14 15 19 22 26 27
70 74 82 73 74 70 81 83 89 93 91 69 54 52 53 56 47 54 58 56 50 48 58 65 66 62 61 58 56 56 38 24 21 18 16 17 17 18 23 30 32 35 37 38
68 64 71 73 68 55 56 58 72 77 72 60 51 55 54 51 53 55 54 45 46 47 66 72 68 67 66 63 55 45 28 25 26 28 28 31 33 34 33 36 42 45 44 39
72 73 75 69 56 58 53 47 55 64 69 70 57 54 50 60 66 62 58 51 54 69 75 73 72 69 69 66 52 40 31 35 35 37 39 42 43 47 47 43 48 46 44 46
64 69 67 67 76 77 66 38 36 38 47 45 65 48 53 54 56 63 61 58 69 79 75 71 70 70 61 51 50 48 42 39 39 40 38 41 50 46 45 49 48 47 51 50
86 90 82 83 86 87 44 53 48 48 40 44 48 47 53 57 60 60 59 68 82 80 71 66 67 66 68 68 68 48 49 45 44 41 41 54 52 46 50 51 52 56 56 51
89 89 85 80 90 53 58 50 55 60 60 50 44 51 74 65 59 52 68 83 83 78 71 66 62 61 60 64 70 70 69 55 48 45 51 58 57 58 59 57 59 58 55 58
98 95 89 84 87 91 79 70 69 72 83 72 48 52 63 64 64 70 85 89 83 79 74 67 62 58 57 66 75 66 61 54 46 52 63 65 60 61 61 62 53 35 32 30
98 96 96 91 82 72 64 69 83 92 75 74 45 52 57 56 81 90 94 91 94 89 88 74 64 63 67 66 65 63 53 57 65 66 67 64 65 65 49 29 25 24 18 12
82 88 91 95 92 84 60 69 92 83 86 91 91 93 88 88 86 85 83 88 93 99 95 86 68 68 65 65 65 63 64 67 71 70 68 67 56 29 24 25 24 18 14 11
83 75 82 71 64 68 71 63 64 82 88 87 96 97 98 88 84 84 83 89 92 96 100 94 75 67 67 65 66 69 71 72 70 70 69 41 26 24 25 25 20 15 13 11
85 86 87 83 75 75 69 71 72 77 90 89 91 94 98 97 95 94 86 93 94 96 99 96 85 66 68 71 72 72 73 73 73 66 36 28 24 25 26 23 18 15 13 12
80 86 87 82 77 79 81 77 81 81 85 92 83 84 84 97 99 98 96 92 89 96 100 98 90 80 70 76 76 75 73 70 55 35 28 25 25 27 26 22 18 15 14 14
78 84 90 83 81 78 81 78 82 80 84 88 88 88 91 96 96 96 95 92 87 91 94 96 99 91 83 75 76 79 73 66 44 31 28 25 26 28 26 23 19 16 15 15

GFSCGP_700_rhum_072.txt.gz
RH
97 96 72 80 96 91 86 79 69 77 77 70 66 56 48 44 42 38 37 40 36 38 33 32 31 29 29 28 26 24 23 23 27 32 36 41 42 44 45 39 40 42 46 49
99 100 74 74 85 86 71 78 73 69 71 72 72 54 47 54 48 45 42 38 34 34 34 33 31 30 29 26 25 23 23 25 26 26 27 28 30 32 37 38 35 34 36 39
100 98 81 75 78 85 90 80 72 72 70 69 69 69 58 43 52 58 50 50 42 37 35 32 31 31 29 27 25 23 21 19 20 20 20 18 17 15 13 12 13 16 20 23
100 96 95 82 81 91 89 86 80 74 72 71 73 74 52 42 41 50 48 46 47 43 32 31 30 26 24 21 17 16 17 16 14 14 14 13 12 10 10 11 11 12 14 16
98 86 87 87 82 77 81 86 80 80 70 74 74 75 57 42 36 32 34 36 45 44 34 29 28 24 21 18 17 16 14 13 12 12 12 12 14 15 14 14 14 16 18 19
93 100 92 89 98 88 85 87 80 79 80 83 69 66 55 44 28 27 24 29 36 34 29 26 24 20 17 17 16 14 14 15 16 16 16 17 17 18 19 18 18 17 16 15
99 99 92 92 83 91 85 77 96 97 98 92 64 65 54 35 26 23 25 27 33 36 37 40 33 23 19 18 19 20 20 23 26 26 25 24 22 21 20 19 18 17 16 15
96 99 85 76 81 74 88 79 83 89 96 81 65 69 54 38 29 40 34 35 40 40 38 37 29 23 25 27 27 26 26 27 27 25 24 23 22 21 19 17 16 18 22 25
86 96 99 94 79 90 96 98 90 69 70 79 57 50 44 38 31 30 40 47 48 48 40 37 38 34 32 31 29 28 26 24 22 19 19 20 21 22 23 24 25 27 29 33
77 85 97 99 96 90 100 94 98 82 83 79 62 60 45 35 31 34 32 38 40 44 43 41 39 38 35 33 30 28 25 24 25 24 23 22 23 24 27 28 30 33 36 38
85 82 99 100 99 100 100 99 98 80 64 83 68 51 46 40 36 33 38 41 43 45 42 40 40 38 36 34 32 30 27 26 24 23 25 30 33 33 30 27 25 23 25 32
88 91 100 98 99 97 100 100 89 72 84 66 65 48 36 39 44 42 46 50 52 54 49 45 43 40 39 37 34 31 29 27 27 33 38 38 30 23 23 19 13 12 12 11
92 85 97 98 97 99 99 89 88 87 73 65 65 43 36 33 34 47 56 59 58 53 48 48 49 49 46 44 41 37 35 36 40 43 38 26 22 18 15 14 14 13 15 21
77 76 73 70 67 69 90 89 90 99 98 79 68 55 50 46 32 38 56 57 51 57 58 53 55 62 65 61 56 51 48 47 49 37 25 21 17 16 17 18 20 26 29 30
79 72 75 80 73 75 73 76 81 84 79 87 77 73 63 49 42 38 43 51 56 55 50 53 69 72 71 69 64 59 57 54 37 27 24 25 26 31 33 34 33 36 40 38
76 71 68 67 65 61 55 53 71 85 83 81 76 62 53 41 52 61 54 56 53 47 48 66 73 70 70 69 66 65 56 42 30 31 34 35 40 42 44 46 42 42 42 40
74 79 76 71 65 71 70 36 40 39 44 50 76 44 60 51 44 52 65 57 53 54 62 78 74 71 70 68 61 54 51 44 37 39 38 41 37 45 47 42 46 44 43 51
86 81 78 80 92 92 40 47 44 41 41 37 35 42 58 57 54 60 58 58 56 58 82 81 72 69 65 63 66 66 56 46 44 44 43 41 44 52 45 48 51 51 57 56
88 88 86 80 96 56 36 48 50 50 42 43 36 36 51 66 65 59 57 57 58 80 85 79 70 67 63 62 62 65 68 67 53 48 46 44 57 58 59 60 59 57 56 52
94 93 86 85 89 91 66 61 73 68 51 48 45 40 52 58 58 53 50 56 74 87 86 81 71 65 61 59 63 66 68 68 71 66 49 50 67 65 64 62 58 45 43 41
97 97 96 92 89 73 54 76 77 84 69 71 68 59 52 49 46 67 72 89 94 95 93 88 80 66 63 63 66 63 63 58 48 49 63 76 70 66 65 49 26 24 21 14
86 90 97 96 97 85 61 70 74 77 83 84 76 51 54 60 65 75 93 97 89 94 99 95 88 69 65 63 64 63 58 56 66 72 76 74 70 67 37 24 25 22 15 12
85 77 80 76 69 64 68 65 62 64 92 82 92 96 90 91 93 88 87 84 87 100 98 99 96 79 66 65 64 67 70 71 73 74 72 72 62 28 24 25 24 18 14 12
82 83 85 86 70 68 69 72 69 71 82 92 100 96 95 98 95 93 92 84 87 93 99 100 99 88 71 69 68 67 68 70 71 73 74 50 28 24 25 26 22 17 14 12
73 79 82 84 79 77 79 75 83 81 77 77 88 90 88 87 90 99 98 95 94 93 96 98 99 95 85 74 74 74 74 76 74 70 47 30 25 24 26 25 21 17 15 14
68 67 75 76 77 82 80 79 82 81 81 84 90 88 86 88 90 95 99 98 98 97 95 94 95 98 100 88 80 78 78 78 70 52 34 29 25 25 27 26 23 20 17 16

GFSCGP_700_rhum_075.txt.gz
RH
99 94 65 56 78 84 86 80 80 90 82 77 89 79 81 80 81 70 58 56 50 46 44 48 47 44 40 35 30 26 27 31 34 34 29 29 33 41 42 42 41 42 41 41
100 98 68 72 98 90 76 67 81 82 84 80 79 73 66 72 61 54 48 46 49 48 40 38 38 38 36 34 31 29 28 27 26 24 23 25 29 34 38 40 43 41 37 36
97 95 71 81 90 92 84 83 80 78 78 84 82 77 62 40 51 48 47 40 37 40 38 31 36 36 36 34 32 32 31 28 24 22 22 22 20 20 21 22 23 21 17 15
97 99 80 80 82 90 84 71 80 80 80 77 72 79 49 38 38 44 45 44 41 41 39 37 36 37 36 36 36 32 29 26 25 23 21 19 18 16 16 14 14 14 15 16
99 94 90 75 70 83 90 93 88 84 79 78 77 75 60 50 38 28 37 45 48 49 48 46 44 35 34 34 31 27 23 19 17 16 15 14 14 14 13 13 13 14 16 19
99 98 99 84 72 82 85 94 92 91 84 88 75 75 66 46 34 32 28 33 50 51 50 46 43 41 36 34 32 27 22 17 16 13 13 13 14 14 14 15 15 18 19 20
98 99 94 92 82 86 88 87 98 98 98 93 68 70 63 41 41 37 30 30 33 40 45 46 43 40 36 32 29 22 18 15 14 14 16 17 18 21 22 22 23 22 21 19
96 99 97 98 88 90 90 91 84 89 96 83 67 70 55 41 39 38 34 27 28 30 32 36 38 38 38 34 26 20 20 22 24 25 25 25 26 25 25 24 23 21 20 18
90 91 100 86 90 79 96 94 89 82 75 84 66 59 48 45 36 34 26 32 31 28 36 36 40 45 45 37 30 30 30 29 28 27 26 25 24 22 20 19 20 20 22 25
73 76 93 93 92 94 90 89 98 99 95 87 65 59 42 34 35 32 34 26 29 38 42 47 48 45 40 39 37 35 33 30 28 26 24 25 26 26 25 24 24 26 31 34
84 78 96 98 98 99 100 100 92 95 81 80 74 50 38 36 41 38 35 31 33 41 46 47 44 44 40 39 37 35 33 31 28 26 25 24 22 22 24 29 31 31 26 23
82 93 99 99 98 99 100 100 99 96 91 74 67 54 41 38 32 40 41 44 47 54 51 47 41 39 38 38 38 37 36 34 32 29 26 25 25 32 37 35 26 22 19 14
96 98 98 99 99 99 99 94 97 99 92 75 71 54 39 35 33 30 43 49 52 54 55 52 47 43 43 44 45 45 42 40 36 34 34 37 42 41 29 23 19 15 14 14
96 95 74 72 66 72 93 95 99 99 99 84 71 60 54 47 44 48 37 47 58 57 54 51 50 53 54 55 59 60 57 54 50 49 49 49 43 27 21 17 16 17 19 23
92 87 79 74 76 76 80 82 88 100 95 98 80 72 60 56 53 53 49 38 61 61 52 55 52 51 64 72 71 67 64 62 58 57 56 44 26 22 24 30 33 34 32 32
86 81 74 72 75 78 75 71 71 82 81 84 76 78 60 62 64 56 47 43 48 52 56 53 50 61 74 71 69 69 68 63 63 59 44 29 31 34 37 41 44 45 44 43
82 82 80 79 72 76 84 45 45 46 49 53 78 37 58 57 53 51 41 44 46 56 57 54 54 76 75 69 68 69 67 58 59 50 35 37 37 41 36 43 46 43 46 44
87 81 83 78 86 96 42 45 43 49 41 42 36 31 34 42 60 59 52 53 55 57 58 56 71 80 73 68 66 64 64 70 59 53 43 42 39 38 40 49 43 48 48 51
90 92 92 82 99 60 36 36 42 45 38 43 38 38 34 36 56 63 55 55 63 59 58 64 84 79 71 67 64 61 62 67 72 68 51 50 43 39 48 54 54 54 56 52
96 97 93 91 96 89 62 64 66 66 53 50 44 44 41 39 50 51 55 54 61 61 60 84 86 82 72 66 62 60 63 68 74 74 72 52 44 45 58 58 60 60 56 56
92 98 96 97 84 75 55 60 77 80 63 66 70 66 46 36 43 54 61 61 60 62 83 92 91 86 77 67 64 64 66 67 60 62 69 64 50 64 65 66 65 56 51 43
73 86 98 98 97 86 62 67 74 72 78 88 86 56 52 51 50 59 64 68 76 98 91 94 95 87 82 68 67 65 66 60 57 58 63 67 73 69 70 69 39 25 23 16
80 76 75 72 65 60 65 68 69 66 64 92 84 80 59 60 59 67 70 87 99 91 88 99 94 96 87 70 69 68 69 71 71 72 75 77 72 71 71 39 25 24 19 15
70 75 80 76 64 63 67 70 73 73 74 90 98 100 98 84 82 94 96 96 98 97 99 93 100 99 94 78 73 71 69 69 70 70 70 70 71 67 33 24 25 23 18 15
64 65 75 80 69 69 75 77 81 74 77 75 82 96 98 94 92 94 98 95 93 94 94 97 98 99 100 97 78 76 74 73 72 71 72 72 57 31 26 25 26 23 19 16
71 62 65 52 57 67 73 80 74 81 84 83 84 91 94 88 87 92 94 92 98 98 95 96 98 99 98 99 99 83 77 78 78 76 68 52 34 29 25 25 26 25 22 19

GFSCGP_700_rhum_078.txt.gz
RH
97 89 69 77 99 86 94 89 87 89 92 99 93 88 87 96 86 96 85 70 70 65 59 55 50 46 42 40 37 34 32 29 28 28 29 32 31 32 32 36 42 45 45 44
98 98 60 68 100 83 80 81 82 91 90 88 85 90 93 91 64 86 87 69 65 61 60 56 49 45 44 42 41 40 38 33 28 28 28 27 26 24 26 30 34 40 41 44
98 93 59 64 88 86 73 70 82 88 87 90 93 87 77 63 77 65 76 65 63 57 54 55 54 49 44 36 37 36 34 32 30 30 29 27 24 22 21 22 24 25 26 27
93 91 73 72 87 91 84 76 71 80 95 92 88 84 67 66 55 54 40 49 56 52 50 43 47 53 47 34 33 34 35 36 35 34 31 29 26 24 22 21 19 19 19 20
98 100 97 79 82 89 74 70 74 87 84 88 80 79 63 52 46 36 41 45 51 51 44 41 42 41 38 36 36 37 36 34 32 30 26 22 19 17 15 15 15 16 15 15
99 100 99 82 82 91 97 92 91 88 89 90 77 78 71 49 36 33 34 35 41 50 46 46 48 46 44 42 38 35 33 32 29 25 22 18 16 15 13 13 13 13 13 14
99 99 100 92 73 79 97 92 95 95 96 89 67 81 64 52 39 30 31 34 30 34 48 50 52 54 53 47 44 42 40 33 27 23 18 16 14 14 14 15 16 17 18 20
97 99 100 100 85 76 92 90 84 88 96 88 70 80 51 39 37 33 34 34 32 32 32 38 48 58 57 51 47 44 38 32 26 20 16 15 17 19 20 20 20 22 23 22
98 97 99 100 99 86 91 100 92 89 78 83 62 60 45 37 33 32 29 31 28 27 31 31 37 43 49 48 39 35 33 31 24 20 21 22 24 25 25 25 24 22 20 18
82 84 99 99 99 97 92 89 94 97 97 91 66 59 47 34 32 38 38 33 39 32 32 29 30 37 45 49 45 42 34 31 32 32 30 28 26 25 24 23 23 23 22 21
88 78 98 100 99 99 100 100 98 87 81 87 78 50 40 38 39 36 33 35 37 36 33 40 47 53 55 53 47 41 38 37 36 35 32 30 28 26 25 23 21 21 24 30
85 85 85 96 98 93 96 91 94 93 88 94 76 58 43 39 44 37 28 33 41 47 53 59 61 58 51 46 45 42 39 37 35 34 32 30 28 26 24 23 26 33 35 29
94 94 92 98 94 98 99 96 97 94 94 95 87 67 47 48 38 39 40 38 41 52 56 57 55 51 46 44 41 42 42 40 38 36 34 31 29 28 29 32 38 35 24 19
98 91 80 73 71 71 94 86 89 99 99 90 88 78 65 56 48 51 47 50 40 49 58 63 60 54 49 48 53 51 52 52 51 48 45 43 43 43 44 43 31 21 17 17
99 97 96 84 81 79 79 76 81 100 94 99 82 81 74 65 57 60 57 55 50 46 50 58 52 63 65 60 63 67 66 62 61 60 58 54 52 53 46 28 22 26 33 35
93 97 89 83 76 72 78 80 81 81 89 99 99 89 62 62 63 59 63 60 59 51 52 54 62 57 54 60 71 68 66 66 64 63 62 62 57 45 30 32 37 41 42 44
94 97 95 90 78 73 84 45 49 49 52 53 88 38 61 56 57 51 57 57 53 41 48 58 58 57 56 73 77 71 68 67 66 62 58 60 45 36 39 42 40 40 46 42
96 89 93 93 81 95 50 44 47 47 40 46 44 31 33 33 37 50 61 57 55 50 59 60 59 59 62 82 78 70 67 64 63 65 66 57 44 43 42 41 41 50 46 47
92 98 95 95 97 74 46 43 42 45 33 40 40 34 39 38 39 35 43 60 58 60 64 62 61 61 83 83 75 68 65 64 64 67 71 70 55 48 46 44 49 57 55 55
99 98 98 98 96 94 48 65 65 64 49 68 65 57 41 40 42 27 38 49 60 58 66 63 63 65 86 85 77 66 64 63 67 70 75 76 72 54 51 48 59 63 63 61
100 100 96 98 94 76 58 57 57 79 60 72 74 76 66 46 43 42 46 59 58 62 66 63 63 89 92 86 78 66 65 65 66 68 64 68 75 70 54 57 66 68 67 63
70 93 98 99 97 90 61 62 65 62 79 77 84 79 54 50 47 47 55 65 65 65 65 86 94 92 92 86 79 68 68 66 67 62 65 55 60 65 65 72 69 67 64 59
77 68 69 72 73 58 61 67 71 74 68 67 86 82 61 62 59 60 70 72 72 73 87 91 94 98 95 95 80 70 68 68 69 69 65 70 71 75 75 73 70 49 31 23
76 70 76 75 66 63 65 71 72 74 74 82 98 97 100 89 68 65 70 70 80 86 92 91 97 94 100 97 90 74 71 69 69 70 73 76 78 75 74 74 51 25 24 21
94 78 68 70 66 67 71 76 80 79 74 79 76 85 94 92 88 91 94 98 97 94 98 98 97 94 100 99 100 97 76 72 71 70 70 71 72 74 72 46 26 25 25 22
94 86 75 60 56 66 66 74 77 74 80 79 80 83 89 91 88 83 84 84 86 97 97 95 97 98 100 99 97 100 97 78 75 74 75 76 76 64 40 29 25 25 26 24

GFSCGP_700_rhum_081.txt.gz
RH
99 90 79 100 93 86 86 74 79 79 79 79 62 63 67 65 56 61 85 88 74 63 66 59 55 50 44 50 48 45 44 47 43 41 42 42 41 36 32 31 37 36 38 44
99 96 72 79 95 90 90 74 90 91 88 90 80 68 67 69 62 78 97 87 89 79 83 83 72 61 52 46 45 42 38 37 34 32 29 27 27 29 29 30 28 28 32 38
97 94 81 90 97 90 96 86 86 88 87 85 82 86 84 86 65 72 74 83 74 74 67 65 62 58 54 51 48 45 43 41 38 35 33 28 27 26 26 26 24 22 23 23
98 99 88 83 86 86 81 84 88 84 87 89 89 89 73 80 63 56 59 78 67 66 64 60 57 58 54 51 48 47 36 33 32 30 29 29 29 28 27 26 25 23 22 20
97 96 76 68 63 62 85 84 80 70 74 78 85 90 71 65 68 65 53 70 72 62 61 56 54 50 48 46 49 48 42 33 32 34 34 33 31 28 25 22 19 17 15 14
99 100 88 80 92 91 84 81 85 90 87 90 76 81 71 58 49 46 46 39 56 82 57 54 53 49 44 42 46 42 40 41 41 40 37 32 29 25 22 18 15 13 12 12
99 100 98 83 90 96 95 95 94 94 95 90 69 79 62 43 41 43 42 42 41 38 37 44 50 49 44 41 42 43 43 42 41 39 38 32 25 22 18 15 13 13 13 14
98 98 97 99 90 80 90 88 80 93 92 83 75 76 46 32 33 33 42 39 36 38 38 32 38 50 49 50 51 53 54 49 47 44 41 31 23 19 15 15 16 17 19 21
83 96 99 98 98 85 75 96 92 94 85 84 65 70 48 38 27 32 32 30 34 39 36 34 37 40 48 50 51 55 57 54 48 39 32 27 22 18 17 19 21 23 24 24
90 91 99 95 99 98 94 78 90 95 97 92 71 60 40 34 39 39 36 32 31 30 34 33 32 35 37 44 53 56 58 54 44 35 32 29 24 23 24 24 24 24 22 21
82 86 99 98 96 88 100 99 94 85 82 82 75 47 40 39 41 42 38 32 34 28 31 36 33 34 36 53 62 62 55 46 43 36 33 31 29 30 29 27 25 23 21 20
83 93 98 94 90 96 93 96 99 88 84 92 77 63 40 39 37 43 37 34 35 36 36 37 45 51 60 63 64 60 55 48 42 39 38 35 32 31 28 26 24 23 21 20
88 99 98 100 97 98 94 90 86 97 87 92 86 64 50 46 46 48 50 51 45 37 40 43 55 62 68 66 60 53 48 45 43 40 37 34 32 29 28 27 26 24 24 29
99 99 81 72 64 70 95 88 91 87 93 87 85 76 48 44 42 42 52 54 60 52 42 48 52 55 54 51 49 50 47 46 47 45 43 42 41 38 35 33 34 35 39 37
98 98 96 77 82 84 84 79 80 96 88 97 76 60 48 41 48 55 59 57 60 61 50 48 54 59 56 53 56 63 65 63 62 59 57 61 58 56 52 47 47 44 35 22
97 98 97 96 88 82 87 76 77 77 75 88 83 68 38 50 63 67 61 63 64 63 64 59 54 58 54 62 58 57 64 73 71 68 64 62 64 61 61 54 48 31 27 36
95 97 98 95 90 89 92 68 55 50 48 46 66 32 40 33 41 56 68 62 56 59 66 59 56 55 62 58 56 56 74 77 71 67 64 62 57 57 58 46 37 39 41 40
97 98 100 96 89 95 64 56 51 50 41 47 52 31 34 37 32 40 42 54 58 55 55 64 60 62 61 59 55 70 78 74 70 67 65 64 70 63 54 44 46 45 43 49
86 98 98 96 98 74 53 50 53 51 35 39 37 33 37 37 37 22 28 37 54 56 52 56 65 63 62 60 73 83 80 73 68 68 65 66 69 76 63 50 47 44 48 54
100 99 98 99 96 89 52 64 71 69 48 62 58 66 63 55 37 24 45 33 37 56 55 58 65 64 64 66 79 87 83 72 68 66 66 69 73 76 76 59 54 49 56 62
96 100 98 99 95 80 60 55 54 61 54 69 72 75 74 66 61 49 44 37 35 41 60 61 65 67 64 65 87 88 82 70 67 67 68 70 72 69 79 75 59 57 68 68
66 93 97 100 98 89 65 62 63 55 63 79 73 73 79 54 52 51 43 46 57 62 61 63 69 67 88 93 90 87 82 70 71 71 72 67 73 69 80 82 66 73 74 70
92 72 69 63 59 57 61 61 66 69 74 68 71 94 82 62 63 51 56 61 66 66 67 66 67 89 88 95 95 96 77 72 70 72 75 74 67 68 64 70 77 77 74 72
97 96 84 71 60 64 66 65 68 72 74 77 89 98 97 96 74 69 71 73 73 70 72 73 96 97 93 88 99 99 87 76 73 71 71 74 77 79 82 80 79 75 57 39
96 95 90 78 68 65 67 70 75 77 74 74 77 78 85 95 95 94 92 86 84 82 91 98 96 89 99 91 100 100 100 92 77 74 71 70 72 76 76 77 78 62 30 25
69 83 92 86 81 79 67 73 72 73 73 78 81 83 87 89 93 91 88 89 86 95 97 99 98 98 98 99 96 98 97 96 93 78 75 72 71 72 75 73 57 32 25 25

GFSCGP_700_rhum_084.txt.gz
RH
98 95 93 85 94 85 86 83 80 86 70 77 87 76 53 48 38 41 42 48 60 79 75 66 69 78 77 78 74 65 58 54 47 43 40 38 38 40 40 40 39 37 35 38
98 98 99 82 90 90 89 74 76 76 65 78 89 82 52 49 44 46 40 46 55 82 81 75 65 63 64 74 78 79 74 71 63 58 49 45 44 43 41 36 32 33 33 31
98 96 88 87 67 85 84 71 77 77 86 90 88 77 80 47 43 47 42 45 63 78 83 77 67 60 58 60 62 58 62 71 60 53 49 40 33 30 28 27 27 27 27 25
92 85 76 92 82 87 87 80 88 84 84 72 84 54 68 62 41 47 53 67 72 70 79 82 77 74 71 60 54 52 51 52 50 50 43 38 34 31 28 27 27 28 27 26
86 93 82 95 91 89 84 82 92 90 84 84 85 80 54 57 54 44 46 63 80 75 80 82 74 69 63 59 55 52 49 46 45 39 36 34 32 31 30 30 29 27 25 22
93 95 97 93 83 73 77 84 85 83 79 71 58 71 50 55 35 31 35 42 50 78 85 70 65 60 59 56 53 51 48 47 48 44 35 35 38 36 34 31 28 25 22 19
100 97 86 88 76 80 87 86 81 80 84 60 64 71 48 46 33 35 37 40 48 96 97 94 75 64 60 55 52 52 50 42 38 37 41 40 39 36 33 30 24 21 18 15
99 98 92 85 97 95 89 75 60 67 56 45 75 60 42 24 30 30 37 37 38 43 63 54 83 75 72 58 55 49 45 45 44 44 44 45 44 43 41 34 25 19 16 14
99 96 95 91 88 92 96 96 89 87 77 69 52 64 35 30 30 33 37 39 40 42 41 44 63 65 44 43 51 52 48 51 54 54 53 52 50 43 36 30 23 19 17 17
84 96 98 99 97 94 87 84 94 95 81 66 53 55 37 37 37 41 39 37 34 32 33 38 41 43 43 34 44 54 54 54 55 56 57 56 51 41 31 27 23 20 20 21
84 93 99 99 95 98 88 98 82 78 74 60 47 38 36 38 42 40 41 32 31 31 33 33 36 35 34 34 40 47 54 58 60 60 58 48 38 33 30 27 26 25 25 25
82 96 100 92 88 91 99 96 93 78 76 75 70 49 41 43 42 42 45 42 38 36 34 29 34 37 36 39 49 54 62 67 66 58 49 43 40 34 32 31 30 28 27 25
87 98 100 99 98 95 93 93 91 95 89 94 68 51 46 40 39 40 44 46 49 51 45 41 35 34 36 40 50 65 67 65 62 57 51 45 41 37 35 33 31 29 27 26
98 97 83 63 65 67 92 95 100 99 97 81 83 67 52 47 48 45 39 34 35 45 51 48 46 49 51 57 64 67 64 59 52 46 44 42 41 40 40 40 38 38 34 34
98 97 93 81 73 71 69 73 96 100 92 89 77 73 72 41 39 42 45 48 48 44 55 52 50 48 54 55 54 51 49 48 47 50 51 49 49 54 52 53 52 49 50 48
97 98 90 97 95 93 96 85 81 87 76 91 92 83 68 48 48 46 52 61 55 56 60 61 55 57 52 58 56 53 57 60 58 54 56 61 58 60 61 58 58 58 58 53
100 99 100 96 94 98 97 74 68 60 58 57 83 41 49 42 41 41 41 59 71 56 63 66 64 64 61 59 61 62 55 52 52 63 67 64 60 60 60 61 58 58 52 41
98 99 100 95 96 88 63 54 52 56 46 53 48 32 33 42 36 32 29 44 60 61 60 59 61 67 66 59 59 57 54 53 65 73 70 68 65 59 59 65 64 53 45 47
96 100 97 94 86 71 56 53 53 51 41 44 38 34 35 34 28 22 28 29 39 54 57 52 62 66 68 68 63 61 59 74 81 79 72 66 63 61 64 68 71 53 51 50
96 99 97 97 85 68 56 51 60 62 56 50 52 55 64 64 47 49 40 33 29 35 56 51 54 62 67 63 65 63 64 74 83 79 69 65 63 67 71 75 79 72 60 55
97 98 97 98 94 85 63 56 54 65 56 57 62 67 73 69 60 53 54 34 31 30 35 56 55 58 64 67 66 65 73 89 85 78 68 64 66 72 77 78 79 86 69 59
96 97 98 99 96 79 58 66 68 63 57 57 64 71 66 66 60 50 52 43 40 39 39 57 62 61 65 69 67 71 83 82 82 73 69 71 74 72 74 74 78 90 72 69
98 95 96 86 79 57 57 61 60 66 70 73 67 82 87 78 60 58 52 48 48 50 50 58 66 65 69 65 79 82 87 93 80 73 71 72 75 75 66 65 75 86 73 80
95 98 95 79 64 60 63 68 66 66 75 72 75 82 92 94 87 64 62 62 65 67 68 69 69 69 68 87 87 84 91 99 87 77 73 72 73 78 79 78 77 82 83 83
65 91 97 88 71 71 71 72 74 74 73 75 73 74 79 86 96 95 88 76 73 72 70 70 73 72 88 96 88 98 99 100 100 90 78 74 72 75 82 86 83 83 81 73
38 44 80 98 94 87 77 77 82 77 76 76 76 81 80 89 97 96 92 91 90 91 95 96 96 94 98 91 98 96 98 97 98 99 89 79 76 75 75 76 78 80 73 38

GFSCGP_700_rhum_087.txt.gz
RH
98 94 93 80 74 69 55 55 45 48 78 90 83 74 72 71 62 50 51 66 61 64 63 59 57 61 68 68 74 76 75 62 63 61 60 62 62 47 44 43 39 38 39 39
99 98 95 79 75 83 77 55 57 68 83 81 66 66 64 67 68 74 56 66 64 60 71 51 61 62 67 73 72 75 72 74 65 61 59 58 55 52 48 47 45 45 43 38
96 98 98 97 89 77 72 62 77 66 78 82 72 69 64 63 66 70 42 37 37 39 62 69 56 66 66 76 75 77 74 73 67 62 60 59 60 63 56 48 43 37 32 30
84 79 77 90 80 74 67 69 64 69 74 61 71 41 35 44 57 66 48 36 36 40 59 73 49 56 67 73 75 78 81 79 78 74 72 70 68 58 59 42 34 31 29 28
90 98 90 88 74 76 68 73 81 79 73 71 69 66 46 47 53 56 62 45 39 34 44 81 72 65 60 68 68 59 62 61 67 75 77 76 79 62 60 48 36 33 31 30
90 82 97 83 90 79 92 81 80 82 79 91 60 60 46 42 49 50 50 55 48 45 59 96 90 82 77 72 73 59 55 53 53 52 51 48 44 39 37 38 39 35 33 31
81 96 94 98 97 86 88 71 73 78 87 64 50 44 46 39 44 46 48 50 60 62 70 82 88 84 80 75 71 60 58 58 57 54 50 51 49 43 40 40 39 35 33 33
91 98 93 84 92 85 79 71 57 59 47 39 63 49 43 40 43 41 51 46 42 47 49 54 79 82 71 66 58 56 68 72 58 56 56 53 48 43 41 41 42 43 40 36
93 98 90 80 95 92 84 82 68 74 63 52 43 47 42 27 46 37 38 38 38 40 40 43 70 90 77 66 66 67 74 68 67 68 69 64 53 44 51 51 50 46 40 32
98 98 99 86 78 88 99 89 87 85 69 53 30 41 33 36 39 45 45 37 34 34 38 39 45 70 96 87 84 73 72 70 72 51 50 50 53 53 53 54 52 46 39 30
84 82 99 95 93 87 98 99 95 84 53 49 35 34 35 41 44 42 39 34 32 33 33 37 43 50 61 78 92 88 87 72 56 54 54 55 56 54 54 54 49 36 31 27
78 97 97 88 90 82 92 90 87 72 65 64 57 52 35 39 40 40 44 40 33 32 33 34 34 36 40 52 69 64 45 47 48 56 58 59 59 58 57 50 40 36 32 29
89 92 94 98 99 97 98 97 96 86 68 96 66 51 47 44 44 43 42 41 40 39 45 42 36 33 37 38 38 39 38 46 58 65 66 65 63 58 51 46 41 37 34 32
100 88 79 74 83 75 94 95 96 95 100 80 77 62 53 48 41 42 44 51 47 41 36 36 46 43 39 38 38 40 47 56 63 66 63 60 58 52 45 40 37 36 35 35
98 98 96 92 94 85 66 70 92 95 88 90 77 70 65 62 59 59 57 59 49 45 32 33 39 48 46 48 49 48 51 58 62 60 55 47 42 41 41 41 43 44 43 46
98 98 91 94 98 97 87 72 92 92 93 100 94 85 73 57 68 65 68 68 75 51 52 42 46 51 50 49 52 58 58 54 51 49 49 53 53 52 53 54 54 53 55 53
98 98 97 98 92 97 98 74 73 78 84 85 90 70 79 55 58 44 39 39 35 32 52 54 51 59 55 58 60 58 56 53 53 56 54 53 55 62 65 62 62 57 56 56
87 96 95 96 98 92 60 58 55 78 77 74 80 48 34 59 51 46 27 29 29 33 55 59 58 61 65 63 69 65 60 60 56 53 52 61 70 69 66 63 60 61 60 62
53 94 98 93 82 58 61 54 48 52 48 44 40 37 40 45 35 28 29 30 28 34 50 64 60 56 58 65 72 68 61 60 57 57 70 76 76 71 66 64 62 63 64 69
83 97 98 97 95 60 54 52 53 56 54 44 41 46 49 56 56 77 64 55 38 31 39 52 57 54 55 66 71 63 59 59 59 59 61 75 77 70 65 63 65 70 73 74
98 100 98 96 82 72 68 53 53 62 61 59 52 54 63 64 64 57 54 44 48 36 33 32 54 52 62 65 59 60 59 62 60 56 60 78 77 67 67 68 67 69 76 80
95 96 97 98 98 73 67 64 72 74 65 61 58 57 65 68 58 52 51 48 49 44 39 38 58 59 61 64 64 64 66 65 63 73 76 80 73 69 70 71 70 73 74 75
97 97 94 91 81 70 67 69 60 63 69 71 73 84 92 87 83 59 54 51 48 46 48 45 48 62 64 66 67 68 69 71 81 86 87 77 72 70 69 74 73 67 66 88
82 91 98 94 71 74 68 67 69 71 70 74 76 80 81 83 90 83 67 68 68 68 65 58 55 67 68 68 69 70 77 88 88 94 92 78 74 71 70 75 79 78 71 83
69 81 80 87 82 79 72 77 76 76 73 77 79 79 78 80 84 93 93 79 78 76 75 74 74 72 71 71 72 76 91 95 93 95 96 94 79 74 72 74 82 84 81 82
64 68 84 80 96 94 91 81 77 80 78 78 77 77 80 84 90 93 92 89 90 90 92 88 81 77 82 80 77 81 98 98 99 99 98 97 96 80 75 75 76 78 79 79

GFSCGP_700_rhum_090.txt.gz
RH
86 83 75 76 85 64 68 64 54 62 69 80 82 74 74 63 69 70 67 56 51 68 66 44 53 54 53 53 56 57 52 49 54 63 52 49 51 61 62 45 42 47 39 38
98 95 85 77 74 75 64 62 53 70 76 77 81 77 68 70 69 71 56 48 48 64 64 62 43 52 53 56 62 64 60 62 64 61 59 64 69 73 74 62 56 51 52 48
90 90 85 88 77 80 79 60 56 71 87 81 72 67 62 60 61 64 66 53 49 65 62 64 62 48 51 55 56 63 67 72 73 68 63 72 80 86 83 77 64 66 68 57
84 97 91 87 86 76 75 66 80 77 76 70 68 66 49 41 49 55 61 53 31 40 42 63 68 61 47 48 56 59 68 72 75 71 70 74 79 82 91 79 79 85 64 38
96 83 80 91 79 77 72 65 71 71 76 66 73 73 39 45 43 48 51 54 35 30 30 47 59 67 62 44 47 58 62 75 75 76 70 71 72 75 76 75 79 87 75 66
92 86 84 84 89 71 90 79 78 76 75 90 62 67 58 38 42 46 51 55 47 36 31 30 69 66 73 49 47 47 56 73 80 84 79 76 81 78 81 84 85 79 57 61
61 75 76 70 88 88 84 83 80 90 87 90 48 60 56 41 41 46 47 50 52 55 52 35 58 55 68 63 67 74 72 74 73 68 64 75 63 54 52 50 45 42 42 40
70 86 79 73 85 86 79 78 66 73 75 59 45 53 46 40 40 42 43 41 43 54 63 63 51 62 58 70 80 89 84 77 66 56 55 56 54 55 55 51 46 43 42 39
96 89 74 76 81 97 78 77 66 96 64 58 57 49 36 38 41 27 42 44 36 42 62 71 74 65 61 77 81 72 68 71 62 59 62 60 57 60 60 60 59 59 54 48
96 98 91 89 90 90 82 67 77 91 89 62 37 32 36 35 34 41 47 44 39 37 40 50 44 50 53 68 81 82 89 87 79 74 79 70 71 79 83 72 65 62 51 48
90 98 97 100 90 98 88 82 89 81 61 74 60 43 42 37 39 46 47 39 35 35 36 35 34 39 47 61 67 88 97 98 93 82 87 93 89 68 58 52 54 54 52 51
89 98 91 76 83 83 99 90 98 95 81 64 58 60 42 42 43 43 42 40 35 34 36 37 38 41 43 45 46 54 93 100 99 99 92 86 93 83 62 56 57 56 53 49
97 95 97 99 99 97 94 88 100 91 84 82 74 55 44 44 47 43 44 43 44 41 36 38 37 38 39 36 43 45 70 81 91 72 57 64 79 79 66 60 55 46 47 44
96 98 83 71 70 80 92 78 83 95 98 81 75 61 53 52 46 46 52 48 54 48 43 42 37 37 44 40 41 46 47 58 58 50 55 70 70 68 66 61 55 52 46 39
99 97 94 86 72 89 88 97 86 92 92 90 77 70 53 48 46 52 63 62 63 62 54 42 39 33 31 43 40 41 41 45 46 55 66 73 76 68 61 55 46 42 42 40
98 98 95 87 92 87 96 89 94 79 81 84 76 67 58 55 53 57 56 64 63 69 66 52 44 37 34 40 44 44 51 53 58 64 67 68 63 51 48 51 50 50 51 53
93 95 96 97 93 99 97 76 73 73 77 82 86 48 51 57 62 64 66 70 47 43 44 41 37 33 49 50 52 50 53 56 58 57 54 53 55 55 51 48 49 56 60 58
53 66 82 97 96 97 61 59 52 67 59 63 76 76 59 72 67 70 44 40 36 30 30 28 26 42 57 59 56 56 57 57 55 53 56 57 53 50 50 62 67 65 62 60
46 50 78 98 96 76 62 58 56 60 56 62 68 54 55 71 71 37 38 34 31 27 24 25 30 54 58 63 64 61 62 63 60 57 58 55 52 54 65 71 68 64 61 61
94 66 99 100 93 88 60 55 56 58 52 52 55 62 61 54 55 74 65 58 52 48 41 32 29 49 61 60 60 64 72 73 64 62 61 58 54 51 57 69 69 62 59 60
99 99 100 99 95 78 69 64 54 56 71 69 59 56 59 63 65 61 56 50 45 44 50 37 32 47 61 56 56 63 74 75 68 66 65 61 60 58 62 74 68 64 64 66
97 93 95 99 95 89 69 68 68 80 79 70 64 61 58 58 67 63 56 50 48 48 52 44 40 46 59 59 66 78 78 70 67 68 66 67 69 75 80 74 69 69 73 74
87 95 100 95 92 90 76 75 65 72 71 74 74 77 88 88 87 91 67 57 57 54 48 48 45 50 62 69 79 77 69 69 71 71 74 86 87 86 76 71 68 69 74 73
71 80 93 91 90 94 90 81 72 66 71 72 77 79 79 78 81 86 92 73 72 71 68 59 53 50 61 71 80 75 73 73 75 82 91 91 92 93 80 74 70 69 76 78
64 65 64 69 77 84 91 93 77 73 74 73 76 79 81 79 79 88 100 99 87 81 78 76 72 68 68 74 77 78 77 77 83 91 97 94 95 97 97 83 74 70 74 82
68 70 70 83 91 91 100 95 84 76 72 74 77 77 79 82 89 99 100 97 92 91 98 95 86 82 82 81 80 80 81 81 83 85 98 96 94 95 94 92 83 74 73 77

GFSCGP_700_rhum_093.txt.gz
RH
77 82 77 73 57 53 66 76 76 62 88 83 93 98 67 65 66 68 66 67 64 47 40 43 49 58 50 48 52 50 52 59 52 49 51 49 48 54 56 54 50 44 41 40
65 67 77 75 67 74 71 70 56 73 67 87 77 72 60 59 68 77 73 70 69 60 58 42 41 48 57 56 47 46 53 58 58 58 54 53 56 58 63 68 72 74 72 63
78 74 90 82 78 79 74 66 66 64 81 92 92 75 77 66 66 69 71 69 60 52 48 46 43 42 45 51 52 49 51 59 65 65 65 65 66 64 74 81 83 86 88 94
83 90 81 88 85 77 78 74 66 69 75 86 80 72 48 38 38 59 66 61 49 43 47 49 48 39 38 41 47 52 52 55 60 69 69 75 76 76 84 88 88 88 83 82
82 83 90 86 76 87 81 81 77 77 86 74 73 76 56 50 48 44 44 53 58 39 53 46 47 46 35 36 34 41 47 52 55 60 67 78 81 80 84 86 88 86 86 87
85 84 81 84 79 80 79 89 82 94 89 85 61 71 62 41 41 44 47 46 48 44 27 44 52 57 55 48 42 43 47 49 50 59 71 79 84 85 79 81 82 79 79 81
75 81 83 76 80 86 76 88 92 90 96 87 46 64 50 34 42 44 47 48 53 54 52 30 32 44 56 61 58 46 58 56 55 64 69 76 82 81 86 88 86 82 81 71
80 64 62 69 71 81 82 80 73 81 95 71 44 59 52 35 38 44 45 50 52 53 58 60 35 33 36 51 69 76 57 57 54 63 80 80 87 90 89 83 61 58 54 54
92 82 65 62 67 82 78 82 74 80 82 73 55 48 46 35 32 37 41 43 44 46 51 57 58 51 55 59 67 77 78 76 68 68 86 84 81 70 75 70 64 64 61 57
91 96 70 78 81 92 81 75 78 84 94 78 50 52 37 35 36 40 37 29 37 42 38 51 61 63 54 51 55 74 91 80 82 88 83 73 63 65 66 66 67 68 70 72
95 97 92 95 89 81 95 90 78 77 70 74 60 42 41 31 35 37 44 38 36 37 35 35 48 57 57 43 42 54 87 75 74 73 73 72 78 81 81 81 87 89 86 82
98 98 98 92 97 97 94 85 78 76 86 64 61 53 47 42 41 46 48 42 37 33 32 35 36 36 37 39 46 56 82 86 87 87 84 92 98 99 98 94 89 91 84 76
89 98 96 99 99 98 99 98 82 81 88 75 69 52 49 45 44 45 45 45 47 48 44 42 40 39 38 37 39 47 49 51 75 70 90 100 100 98 96 83 98 95 88 84
88 96 98 92 97 89 98 90 99 90 98 84 71 55 48 51 50 50 56 58 55 46 43 45 44 41 36 37 42 36 35 44 47 63 80 83 77 84 93 82 74 72 72 70
72 99 92 95 97 93 97 92 97 98 92 86 73 64 52 50 53 60 64 60 62 64 61 51 43 43 44 39 33 40 37 43 48 55 72 65 58 69 76 74 74 73 68 57
95 76 95 92 69 91 100 83 95 95 90 90 79 71 60 51 49 51 50 64 68 67 63 63 53 43 43 43 37 34 40 40 42 47 52 58 73 80 80 77 65 54 52 51
66 87 84 89 78 97 99 79 73 74 74 74 86 48 53 66 54 57 57 65 60 52 55 57 54 46 45 40 35 41 46 44 46 54 60 67 72 65 57 58 59 56 52 53
70 54 59 78 99 96 68 60 59 63 64 71 71 60 56 57 63 67 71 60 55 52 39 38 37 34 34 29 28 53 54 51 50 54 56 58 58 61 58 54 53 62 67 70
84 63 54 85 97 89 68 65 60 57 53 73 75 68 60 72 80 70 57 55 46 36 32 29 29 28 27 27 52 60 61 61 62 63 63 62 63 59 57 60 61 64 68 69
89 91 86 96 94 85 66 53 62 60 57 57 49 50 58 61 61 50 52 49 54 48 45 38 36 28 27 31 61 60 67 70 71 73 70 67 64 62 61 60 58 54 56 71
95 97 99 99 97 68 67 73 64 56 72 76 67 68 70 71 68 61 61 55 46 40 40 39 42 37 32 42 61 62 68 74 80 83 74 70 67 66 64 64 65 67 75 70
96 96 97 95 94 92 81 79 73 79 81 78 70 66 64 61 62 64 61 56 51 45 43 44 46 45 39 52 64 62 65 74 84 84 74 70 70 73 78 83 85 80 73 69
96 92 96 98 96 95 96 94 95 91 87 78 67 74 91 98 94 85 92 72 62 58 51 47 51 48 45 51 64 68 75 87 86 76 72 74 77 83 86 86 91 80 74 71
68 66 64 64 86 92 96 98 95 89 75 72 73 77 83 80 77 78 88 92 77 75 73 66 57 55 56 61 72 86 91 84 75 75 75 75 80 85 93 93 95 90 78 71
63 68 65 65 57 59 76 93 98 86 75 72 74 75 78 82 82 83 88 98 97 90 83 80 76 70 67 73 85 97 92 84 80 78 77 81 86 88 99 94 92 91 89 76
64 68 70 71 71 66 61 91 99 96 84 77 76 83 82 80 84 90 99 96 94 92 98 99 92 86 86 84 85 86 86 84 83 82 82 89 92 98 100 93 93 91 96 90

GFSCGP_700_rhum_096.txt.gz
RH
77 80 90 90 84 78 73 70 78 82 92 85 84 96 98 98 85 72 82 75 62 56 49 50 57 60 54 55 62 48 48 54 59 60 58 57 57 60 58 54 50 49 47 44
74 74 80 75 71 73 83 69 60 63 58 58 55 71 76 89 68 58 67 55 48 43 45 45 46 51 59 59 54 49 52 57 61 60 58 60 63 67 64 60 57 56 59 62
60 74 75 75 73 82 78 79 66 52 48 80 74 81 83 83 80 77 69 63 54 44 46 43 44 47 50 57 60 59 57 57 52 56 61 62 62 60 55 57 57 68 85 89
74 72 81 76 82 83 78 73 70 69 72 91 79 84 52 71 76 69 65 63 59 64 47 45 39 38 42 45 49 52 54 55 53 52 58 60 66 67 69 70 74 81 92 94
82 82 80 79 81 79 81 82 71 69 72 79 88 88 58 46 45 41 56 57 63 47 47 43 39 36 36 36 39 42 45 46 51 52 52 60 68 72 77 73 74 79 87 90
76 78 75 79 86 87 82 81 90 93 90 93 74 82 59 37 31 32 40 28 29 41 46 38 42 42 39 35 36 44 45 43 45 44 47 54 62 68 78 84 79 80 90 94
77 79 75 77 85 86 92 97 99 99 98 92 72 78 56 34 36 38 45 37 36 37 34 37 42 57 60 50 41 46 44 38 38 41 47 56 70 69 77 84 92 89 86 92
87 69 72 71 80 79 85 77 90 83 92 77 60 73 42 31 28 43 43 43 46 47 44 54 58 49 54 62 62 58 58 60 57 54 51 54 58 63 71 86 92 99 98 95
92 83 63 59 68 78 84 83 83 80 89 77 55 46 41 32 24 32 44 44 47 49 50 53 58 59 60 62 48 44 58 58 57 57 66 70 65 68 73 77 91 100 97 94
89 96 74 69 72 78 82 76 94 95 97 85 59 57 44 36 29 34 41 40 41 44 46 47 45 48 60 69 58 53 61 65 62 68 73 79 78 85 90 89 90 74 76 82
86 97 90 88 84 70 91 87 82 79 77 82 61 48 43 39 35 37 37 37 38 32 30 33 41 34 49 60 62 62 62 69 78 88 83 82 89 91 88 70 68 78 84 81
87 92 98 82 84 78 86 78 81 77 84 69 61 50 42 36 34 38 39 37 40 38 36 41 38 33 36 53 58 56 46 56 72 95 81 77 69 76 83 85 76 87 98 98
82 97 98 92 100 99 96 99 87 85 74 68 70 53 48 49 51 50 48 45 43 41 40 38 39 40 38 38 38 39 41 49 75 93 91 87 77 82 88 95 100 98 96 87
79 87 83 96 98 99 99 97 97 98 97 81 71 57 46 51 51 48 47 48 48 47 48 48 46 43 40 38 39 39 36 35 43 59 73 86 92 74 95 91 99 97 94 84
56 86 83 68 80 97 95 98 95 98 95 86 73 70 49 54 54 52 53 55 58 56 50 45 42 43 44 40 38 38 34 38 34 38 48 57 62 88 95 91 67 66 75 84
69 93 78 50 55 84 79 73 96 98 98 96 85 70 66 69 68 62 60 62 71 74 72 68 59 47 44 41 44 44 41 36 38 38 48 51 52 71 78 70 79 84 83 79
68 94 90 66 70 98 100 86 71 71 78 75 87 61 75 81 85 77 67 67 64 62 64 60 55 45 43 39 40 43 40 39 37 42 43 48 57 67 74 77 78 70 62 62
68 64 78 62 98 97 85 75 65 69 67 76 77 69 70 63 63 68 66 60 56 65 68 60 50 40 35 36 39 41 35 34 40 47 51 60 69 73 67 62 65 64 60 61
68 80 67 84 95 86 70 71 68 67 64 58 66 64 67 70 76 81 78 65 63 58 48 38 32 28 26 27 30 34 36 56 58 56 61 67 65 62 66 66 62 63 61 54
86 100 98 99 98 85 78 66 67 64 64 65 59 49 66 76 80 62 65 55 48 45 39 35 32 31 29 29 27 32 56 70 70 68 68 69 66 65 65 64 64 61 57 55
82 94 87 76 94 75 79 78 66 69 85 88 73 61 60 63 66 64 67 64 62 56 47 38 34 34 40 43 32 37 66 70 75 83 82 77 74 72 70 69 67 64 64 66
86 91 94 94 94 88 82 81 77 85 99 88 77 70 66 63 61 58 54 52 51 46 41 37 36 39 42 48 42 57 67 70 77 83 86 89 85 79 72 70 69 75 79 82
96 93 95 97 89 90 90 90 90 91 90 96 82 74 76 72 76 82 77 75 79 63 54 47 43 45 53 52 46 70 70 70 69 78 89 95 92 77 75 74 79 88 89 89
80 74 88 73 65 68 79 94 97 96 100 90 80 72 80 86 77 74 70 76 92 78 72 65 56 51 52 55 58 70 70 81 89 94 97 84 77 78 79 83 90 88 92 92
60 62 61 64 64 62 66 63 73 92 97 90 80 77 76 80 84 82 80 91 93 94 85 79 76 68 62 64 68 79 93 100 99 90 81 80 81 85 90 90 85 84 94 92
57 63 69 78 82 82 82 90 98 100 98 96 82 81 85 86 88 96 94 95 93 84 94 98 95 90 85 82 83 90 100 99 96 90 87 89 90 94 98 92 91 98 98 96

GFSCGP_700_rhum_099.txt.gz
RH
84 97 97 94 84 73 82 62 75 82 71 86 99 99 100 92 84 75 63 58 55 55 60 65 62 59 75 75 67 75 81 72 71 57 44 48 48 46 46 54 49 41 43 45
79 86 96 94 82 79 82 77 75 82 74 90 67 80 96 99 91 83 73 56 52 59 61 54 59 70 66 62 58 62 67 69 68 69 68 66 63 64 64 67 68 61 55 53
71 73 85 88 86 76 83 79 71 67 69 83 65 62 59 68 85 80 69 62 53 52 51 51 50 50 54 61 59 56 54 58 60 57 56 60 59 56 58 58 54 54 55 58
58 54 69 77 81 83 82 82 77 67 75 96 80 71 46 52 54 63 59 54 52 47 43 40 42 44 45 47 54 62 60 60 59 60 57 57 59 61 63 63 69 70 68 68
74 70 57 68 78 84 80 81 76 73 84 84 90 71 46 48 46 40 45 52 50 44 41 36 35 38 41 41 43 47 55 57 60 63 60 62 55 58 67 68 72 76 76 74
78 82 78 82 74 83 86 83 81 79 88 96 77 86 59 36 34 37 41 59 51 45 46 44 38 43 46 44 41 40 42 48 56 59 59 59 63 61 61 62 64 75 82 83
70 72 74 72 79 84 88 86 96 98 98 91 78 89 47 44 38 32 38 37 39 39 39 40 41 43 47 44 48 47 40 36 42 49 51 53 57 59 59 64 70 72 80 88
75 61 67 72 71 82 87 81 83 89 95 94 81 85 66 38 39 40 42 41 43 33 25 31 42 46 38 47 56 65 62 52 46 49 49 48 50 52 54 61 70 72 82 89
91 78 72 72 75 91 95 92 86 98 92 79 78 60 48 44 34 28 39 44 41 42 33 36 44 42 49 52 49 58 67 68 62 63 63 60 53 53 53 55 58 64 75 89
85 90 71 72 80 88 96 86 97 99 96 92 69 58 40 34 31 32 24 31 42 42 45 43 46 48 54 56 53 57 53 50 54 51 63 70 71 72 69 64 60 69 80 87
96 96 82 80 82 73 93 95 91 93 86 91 72 48 39 33 36 37 33 33 40 42 43 46 46 47 46 54 65 64 53 49 45 55 63 64 67 77 79 83 85 89 90 91
86 93 99 78 75 79 90 90 89 83 93 82 62 54 41 41 38 37 40 41 41 42 38 32 30 34 36 39 51 66 58 54 54 50 57 58 80 78 78 78 81 87 84 85
88 97 96 89 94 96 98 94 95 98 84 78 78 57 42 45 37 36 43 48 47 45 43 38 39 43 44 42 49 58 56 56 48 42 45 54 75 86 80 72 74 84 96 94
83 76 84 91 87 93 96 97 91 98 98 83 73 63 50 50 45 51 51 49 46 45 46 47 44 41 40 41 41 40 40 40 41 43 51 63 85 91 89 87 91 93 89 76
44 86 88 73 72 74 68 88 98 98 97 90 74 72 62 53 52 52 55 50 51 51 50 50 48 47 44 42 40 40 38 38 41 40 39 47 70 82 84 96 81 74 96 78
80 74 99 63 52 51 62 75 80 96 98 98 97 80 70 67 61 57 62 69 67 66 63 58 53 50 49 48 45 42 42 42 41 37 39 40 42 50 63 62 78 98 78 78
85 78 96 86 93 78 84 70 73 71 84 88 97 74 81 89 74 66 69 72 74 71 67 59 54 54 49 48 46 39 37 40 41 39 36 37 40 46 54 64 84 78 82 77
72 70 83 70 93 88 87 93 82 78 79 79 74 70 76 77 89 88 87 89 84 78 71 64 55 51 45 46 41 37 38 42 42 39 38 36 42 46 51 59 72 81 72 62
56 68 79 94 100 78 77 74 78 86 94 88 76 62 72 86 95 79 85 92 78 69 69 61 53 47 43 40 34 30 31 34 39 36 41 52 55 58 66 72 71 64 65 60
53 72 96 97 100 95 83 82 74 74 94 92 77 66 63 78 85 77 75 69 64 60 53 45 41 35 30 32 29 28 28 32 33 47 65 72 73 72 67 66 68 67 67 66
58 61 74 87 95 58 73 78 78 78 78 94 80 80 79 74 71 64 60 62 61 56 53 47 41 38 35 34 39 39 40 37 57 73 77 80 77 72 72 73 72 72 70 66
80 95 98 95 98 81 72 77 86 79 97 98 91 86 80 79 73 66 63 61 58 54 50 46 41 37 34 35 38 48 48 63 81 80 81 82 80 78 79 79 76 73 71 73
85 78 87 92 82 82 78 83 84 88 91 91 84 89 78 81 91 96 93 79 74 79 70 58 50 46 42 43 50 54 57 82 76 75 80 85 90 90 93 91 82 74 74 75
69 79 84 69 57 58 59 54 60 68 88 97 88 87 83 82 83 81 80 82 84 84 80 68 64 60 50 49 58 56 61 77 73 75 76 85 98 100 98 89 82 83 81 78
53 57 57 57 60 64 65 69 68 63 63 80 97 89 84 81 81 81 86 91 99 88 85 83 74 73 66 64 67 68 75 76 78 91 94 96 100 98 91 87 92 89 80 73
45 50 56 63 68 76 81 89 95 91 82 82 69 96 86 83 83 82 87 95 97 93 86 92 92 87 80 77 77 80 91 100 99 99 100 97 91 89 90 90 92 97 97 96

GFSCGP_700_rhum_102.txt.gz
RH
91 87 98 100 94 82 86 85 85 58 73 86 97 94 88 76 69 72 72 63 63 60 72 79 77 84 77 86 86 88 86 87 90 87 87 85 71 50 43 40 41 45 54 52
93 89 86 96 88 94 96 93 98 99 96 85 95 94 98 88 78 76 72 67 61 63 64 70 76 86 91 78 80 90 96 90 96 85 85 90 94 84 66 67 73 71 69 64
79 82 92 92 95 88 87 92 89 77 98 94 80 66 70 81 90 78 75 70 61 58 60 63 69 70 70 69 85 94 94 94 92 99 99 90 97 92 83 74 68 64 65 60
55 58 69 78 82 80 85 80 80 78 76 84 80 72 66 49 60 76 78 71 67 57 54 53 54 55 64 68 76 75 75 65 61 87 81 86 83 76 75 64 65 70 69 66
66 68 59 62 67 80 82 80 77 77 86 88 97 86 61 50 42 48 82 60 64 66 60 55 52 50 50 49 49 52 63 67 65 64 74 74 81 69 60 66 66 64 64 67
55 74 77 73 71 76 85 80 80 79 95 95 74 84 62 50 34 41 42 41 54 54 57 52 47 43 42 43 44 48 51 58 65 71 68 65 70 59 65 65 66 67 67 67
48 58 75 81 89 84 88 84 96 97 99 92 80 87 60 48 45 38 36 36 37 48 48 53 51 50 49 46 44 45 44 46 52 57 58 60 64 65 65 64 66 65 65 67
72 58 60 75 80 91 91 80 76 88 97 94 79 94 67 36 45 40 34 25 33 56 57 53 50 50 57 55 53 49 45 45 46 54 54 56 59 61 62 59 58 58 63 67
83 79 72 69 79 91 98 95 80 80 87 84 80 68 53 45 36 39 33 27 30 35 40 37 29 39 49 53 56 56 45 44 54 64 62 59 61 62 58 56 54 58 59 63
89 91 64 71 80 88 100 93 97 96 97 95 74 65 41 36 35 34 31 28 36 39 38 40 31 28 33 40 47 58 57 51 57 62 60 62 62 60 65 67 62 57 55 58
96 90 76 84 87 79 96 99 98 92 86 92 77 51 40 36 33 33 37 34 30 43 43 44 43 45 49 49 51 50 51 58 53 49 49 51 54 56 57 61 56 49 51 63
80 92 98 69 58 85 96 98 99 90 97 88 68 58 46 40 38 35 41 39 36 38 42 44 47 49 48 48 52 59 64 64 61 54 50 52 54 59 60 61 67 76 80 82
89 96 92 74 82 97 97 99 94 98 84 80 80 63 46 45 42 39 42 46 47 44 43 39 36 36 37 40 40 41 50 60 62 57 54 52 48 60 66 75 75 75 74 78
86 85 84 86 70 82 74 78 90 98 98 90 75 63 48 54 51 47 49 53 50 47 43 40 38 36 38 43 45 44 50 55 49 46 47 42 42 52 65 83 81 79 81 82
46 49 65 57 57 75 73 62 56 85 100 96 83 78 69 53 55 53 52 52 51 50 50 50 49 46 46 46 45 43 43 42 41 41 40 41 44 55 69 86 89 89 93 84
87 88 89 64 66 69 68 51 46 65 91 87 100 86 77 64 59 60 59 64 63 63 64 63 61 57 51 48 47 45 44 42 39 39 39 41 40 40 50 67 82 81 86 85
67 72 86 88 98 96 86 88 83 73 77 98 100 90 95 90 75 71 68 66 70 64 60 65 65 59 54 52 49 47 44 43 40 37 38 38 36 40 41 43 56 65 65 66
56 60 76 86 86 88 95 88 92 93 96 100 97 97 95 88 87 76 71 78 73 72 74 71 67 65 58 53 50 46 44 43 37 34 32 38 38 38 39 44 52 60 60 64
46 58 77 100 100 78 84 86 78 96 100 99 91 80 64 63 82 90 96 90 87 84 77 74 67 63 61 60 50 46 47 44 38 35 37 40 42 41 44 50 53 59 67 76
49 57 78 90 100 95 91 96 83 87 100 98 92 78 60 84 90 93 95 90 86 76 68 63 59 56 52 48 42 38 35 32 27 28 33 38 38 47 58 60 64 76 82 68
47 59 68 75 83 46 68 83 87 94 83 98 94 84 82 89 97 96 92 92 88 67 60 55 52 49 43 38 34 34 35 33 36 37 37 40 54 67 71 74 79 74 69 67
63 77 98 100 97 76 63 76 87 93 91 91 98 96 92 94 91 94 86 81 76 70 63 54 49 45 39 35 33 33 35 43 54 49 42 58 76 81 83 79 71 72 73 73
69 57 73 72 70 64 52 54 56 58 74 91 97 97 98 92 92 90 94 91 82 74 70 73 64 56 47 41 37 38 44 53 54 51 65 80 86 88 86 80 79 82 82 82
51 60 64 62 53 55 59 60 59 59 62 62 69 92 97 97 89 91 85 88 87 80 82 90 76 72 65 53 47 51 63 64 62 74 78 82 87 92 94 93 90 92 95 87
44 48 49 48 54 59 65 74 80 84 82 74 69 64 85 97 91 87 86 86 88 95 89 88 95 86 76 64 59 65 71 74 89 88 82 78 82 92 100 100 99 99 94 89
35 40 46 50 54 63 74 83 86 75 92 98 84 78 68 97 94 86 85 84 86 97 93 99 100 99 90 84 81 82 84 87 89 98 100 100 98 91 96 100 97 94 92 90

GFSCGP_700_rhum_105.txt.gz
RH
93 85 95 95 86 63 43 33 81 83 66 98 98 100 93 80 76 73 65 66 73 81 80 93 94 100 98 96 91 81 76 65 65 66 83 65 49 41 40 41 42 44 48 43
90 91 94 100 90 88 86 77 92 88 94 93 82 97 98 92 75 72 68 65 66 73 74 74 89 95 96 97 98 90 83 93 82 78 89 99 75 71 62 52 44 57 64 48
82 84 88 91 92 89 91 84 93 93 97 95 60 83 90 95 91 76 68 62 65 75 80 80 73 82 90 88 96 94 88 88 96 95 96 93 83 78 67 69 76 74 74 81
59 67 80 81 90 87 82 84 86 85 95 97 88 78 72 77 88 84 75 67 61 62 68 74 68 72 78 85 89 90 97 97 96 90 71 85 93 91 81 79 94 99 100 96
65 60 56 63 71 73 70 79 77 84 85 81 96 89 48 49 58 56 74 70 65 58 62 70 76 76 72 77 85 86 90 99 94 81 84 96 97 100 100 87 90 98 88 71
62 72 66 64 67 78 82 81 84 87 97 96 76 89 48 46 37 47 42 45 71 61 59 61 61 61 64 67 65 68 69 76 81 85 88 90 97 83 82 88 89 96 85 70
42 55 73 80 74 91 93 87 96 97 96 90 82 99 44 46 38 36 40 54 79 71 66 64 58 54 53 52 52 53 54 61 70 79 77 79 77 83 84 86 84 76 75 72
68 54 74 87 94 94 96 82 73 91 94 88 87 97 47 45 38 52 48 53 61 76 60 69 65 58 52 46 45 46 49 52 55 62 63 66 69 72 71 72 72 74 69 68
71 73 62 78 86 92 97 94 81 80 83 82 75 72 50 46 45 39 43 41 38 45 51 47 64 60 55 50 48 50 47 45 45 50 52 57 60 62 64 64 63 63 61 59
87 86 72 70 82 86 94 93 99 97 96 94 74 68 45 39 46 43 38 36 36 41 48 47 45 43 50 54 51 54 52 48 44 43 50 56 56 55 56 56 63 62 58 56
94 92 74 63 84 91 97 96 91 93 92 83 72 50 42 36 34 36 38 36 35 44 46 43 46 40 30 39 52 53 57 60 51 43 48 54 61 60 60 59 56 56 59 58
82 87 89 66 79 78 78 97 98 96 98 78 64 51 45 44 38 37 37 35 37 39 45 45 48 50 51 47 47 51 52 52 52 41 46 48 50 53 55 57 57 50 56 57
75 91 88 59 82 97 95 78 93 97 97 87 77 61 51 49 47 39 41 42 43 44 46 46 45 48 50 52 55 59 60 60 62 61 63 59 53 55 58 59 68 73 70 70
82 84 84 80 67 79 78 61 68 75 96 96 76 58 57 57 58 52 47 49 50 51 47 44 40 37 37 38 42 45 45 61 67 69 72 74 68 64 50 55 67 76 76 74
49 52 69 72 70 61 57 47 57 62 59 97 98 89 71 62 67 61 59 55 54 51 47 45 45 45 42 42 46 51 52 58 67 69 67 62 56 52 46 53 69 83 85 85
69 64 69 97 99 52 45 40 52 50 56 68 84 88 77 73 61 62 66 62 56 52 49 49 51 50 50 50 49 48 48 46 43 41 40 40 41 42 43 48 68 92 98 99
35 52 77 80 99 83 63 98 94 88 91 100 100 89 98 76 84 77 72 68 70 64 61 56 56 54 52 52 52 50 48 47 44 42 42 41 39 38 40 42 41 50 69 87
36 53 68 76 82 84 97 92 97 98 97 97 99 100 96 76 67 79 82 72 74 75 71 67 66 62 58 55 52 50 47 46 45 43 42 41 38 38 38 37 39 42 44 57
35 48 57 78 100 76 84 90 81 95 98 100 100 97 74 62 58 78 93 83 80 83 80 78 71 63 60 57 50 52 54 51 46 42 45 40 35 36 39 43 43 41 44 50
43 46 56 76 93 87 91 94 83 89 92 97 99 90 85 77 73 83 90 97 90 89 84 82 75 68 64 58 55 50 55 51 45 44 46 41 35 36 43 45 46 49 51 56
43 37 50 61 63 41 64 80 89 96 84 90 95 96 90 87 96 98 94 98 96 96 89 75 65 60 54 50 48 46 44 41 40 37 33 30 31 37 40 44 50 58 65 70
45 49 50 74 84 66 60 76 83 87 88 91 96 95 99 90 90 91 93 94 94 89 83 75 58 50 46 43 40 40 40 40 39 42 40 37 36 40 49 64 71 79 85 84
50 46 46 49 47 50 51 51 50 57 60 64 72 90 91 96 93 83 90 96 92 84 75 70 68 70 59 48 43 41 38 37 39 44 51 54 51 54 76 86 90 93 85 80
37 46 47 47 44 48 52 56 63 66 68 69 68 63 65 80 90 97 94 88 86 84 85 85 84 80 68 63 55 48 47 49 56 61 64 67 71 85 94 98 98 94 88 92
33 38 38 35 41 48 51 60 68 70 73 84 89 84 80 64 83 95 97 90 85 83 86 95 86 89 81 70 65 58 59 70 79 80 85 86 80 88 95 100 100 99 95 94
25 29 35 38 39 44 50 64 64 60 48 51 59 63 85 84 66 91 96 89 83 86 84 96 99 98 88 85 80 77 84 89 92 100 100 100 100 100 95 99 100 99 99 99

GFSCGP_700_rhum_108.txt.gz
RH
89 97 94 86 94 83 96 81 49 79 58 49 80 99 99 96 82 69 69 73 88 87 96 93 91 93 99 93 97 74 91 70 41 35 32 33 36 39 43 46 48 48 48 47
88 94 90 92 92 94 98 86 90 57 43 67 78 96 100 97 88 73 67 73 73 86 93 97 96 100 98 98 97 90 86 90 75 39 36 39 41 45 44 44 44 45 44 44
94 87 85 93 90 93 91 86 88 91 76 90 72 61 93 98 81 74 68 70 73 73 67 72 80 78 98 99 99 91 82 85 80 63 40 56 58 52 64 59 49 46 52 60
68 75 80 85 91 82 77 80 82 78 95 95 82 53 93 99 84 76 74 62 63 66 68 70 67 78 64 72 93 94 92 73 61 72 54 58 73 66 68 84 94 74 70 76
62 61 63 72 83 81 81 78 78 85 95 87 92 78 64 83 86 84 80 73 64 60 58 61 58 75 73 90 80 86 96 99 95 80 79 96 84 99 93 75 78 90 80 86
50 62 71 73 68 81 80 81 81 93 98 75 62 79 38 70 71 80 79 79 75 69 64 60 61 62 66 75 89 93 91 88 94 98 94 93 89 98 100 98 87 90 89 88
57 56 60 80 80 73 86 86 79 80 89 61 79 91 49 51 54 67 66 78 76 68 68 64 59 57 62 68 75 77 87 89 91 100 98 99 95 93 92 85 89 74 90 87
77 69 71 80 87 89 90 94 64 61 59 55 81 73 48 47 40 56 56 61 62 49 68 74 76 68 69 70 73 74 74 73 69 77 84 90 89 94 99 98 92 89 88 89
79 77 63 68 72 84 94 93 85 81 74 68 62 66 49 44 53 53 48 50 50 61 68 71 71 71 66 66 62 62 62 60 64 63 64 70 78 83 85 84 84 83 82 81
75 89 74 69 62 80 90 95 98 92 88 62 51 57 45 47 51 53 53 44 43 66 75 66 75 75 74 67 64 59 63 63 60 56 54 57 60 65 69 71 69 69 70 70
85 84 86 72 77 87 92 98 98 97 94 58 45 41 47 48 44 46 48 40 42 44 49 54 55 54 62 82 77 59 54 55 58 54 51 49 52 56 55 54 56 57 60 61
78 80 93 79 77 82 80 92 94 98 90 92 71 46 52 52 44 41 41 41 41 47 47 46 47 48 45 44 58 62 61 58 61 58 52 52 47 54 63 64 64 64 63 60
63 84 74 59 85 91 99 85 74 91 97 96 64 54 63 59 53 43 43 44 52 56 51 48 49 53 49 40 38 54 64 66 62 60 53 53 49 53 54 57 59 62 60 59
66 76 80 64 79 81 85 89 90 74 94 99 80 70 58 55 61 62 54 56 60 60 55 49 46 48 53 54 53 54 53 50 53 59 59 59 63 62 53 53 55 55 56 53
49 54 63 71 77 72 66 52 48 58 70 80 97 82 74 63 61 65 66 62 58 54 52 48 44 40 39 43 51 53 58 61 63 64 67 69 69 66 63 56 55 49 52 70
42 41 66 81 94 69 46 42 46 63 67 72 63 75 78 70 66 61 66 67 65 60 55 55 53 54 49 44 43 40 42 52 61 67 70 71 67 61 55 50 48 44 52 72
38 52 63 82 75 76 85 88 99 100 100 98 99 99 78 73 70 72 70 68 68 67 62 58 57 58 56 53 51 49 49 48 48 47 45 42 41 40 41 42 41 43 53 70
42 49 50 69 71 74 88 89 96 98 100 99 97 96 99 89 83 80 78 80 74 70 69 64 60 59 60 60 58 56 54 52 49 48 46 44 42 42 40 39 39 41 46 55
34 43 47 83 71 68 78 88 83 83 94 99 99 99 90 76 69 61 65 81 84 81 82 75 67 63 62 60 57 57 57 55 53 51 50 48 47 44 43 42 43 46 46 50
37 38 47 55 71 51 85 81 80 81 96 89 93 92 87 92 92 78 72 88 93 95 96 87 84 76 70 66 60 57 54 54 56 57 59 55 50 51 48 43 43 49 55 53
36 35 48 62 66 41 52 56 79 96 85 82 88 86 89 94 91 98 98 99 98 98 96 96 91 87 80 73 67 62 60 58 56 54 55 49 46 47 46 39 37 43 47 53
33 38 40 48 70 54 45 57 68 63 55 62 68 74 86 91 94 94 89 90 94 97 97 96 95 73 63 57 53 49 46 44 44 43 42 39 37 36 36 36 40 47 64 69
36 33 34 36 36 40 41 46 47 50 53 55 59 57 57 74 92 96 96 96 90 95 96 87 82 76 75 63 60 54 49 45 40 38 37 38 46 52 53 51 57 74 82 85
27 30 32 33 33 35 38 40 41 46 58 64 64 69 72 64 58 82 97 93 89 87 88 85 81 78 79 74 60 60 55 49 47 45 45 48 59 71 72 68 82 90 96 100
25 28 26 26 32 36 36 35 37 50 52 51 61 66 58 66 70 56 72 93 93 85 80 80 89 86 82 84 77 68 62 56 59 66 70 77 85 89 90 98 100 100 100 100
18 18 23 29 32 32 30 30 44 45 37 41 42 52 57 49 56 70 64 77 94 88 78 81 82 97 100 93 91 84 72 76 82 99 100 100 100 100 100 100 100 99 99 99

GFSCGP_700_rhum_111.txt.gz
RH
86 98 98 91 94 96 87 69 57 52 68 70 80 70 96 93 94 77 68 66 79 74 88 86 92 83 77 80 100 83 68 64 41 32 30 28 26 34 42 46 48 49 49 49
84 86 98 82 97 98 84 65 59 77 61 51 81 96 99 88 91 95 75 62 72 83 87 93 95 89 86 93 95 93 87 85 56 42 34 33 29 33 40 45 48 48 49 49
90 95 77 86 91 82 75 71 67 73 92 76 81 83 100 78 87 83 75 73 82 77 80 99 98 100 98 98 97 98 99 91 83 71 57 41 38 36 38 43 45 47 49 49
83 84 78 93 85 79 71 80 83 82 81 59 80 77 96 80 94 78 71 74 74 83 83 84 98 89 90 100 100 98 94 89 88 98 88 59 47 43 42 52 54 60 60 53
87 76 93 85 77 87 83 74 82 76 72 66 60 62 75 91 90 90 84 71 71 76 76 75 78 71 77 80 84 82 98 98 97 88 83 95 97 75 51 51 66 75 80 74
57 49 64 88 73 67 78 81 78 76 79 68 52 57 59 74 85 83 83 86 67 66 69 78 81 75 78 87 89 79 98 98 98 100 95 82 80 79 84 80 67 80 93 98
70 71 52 57 91 85 80 85 77 76 80 56 69 61 48 54 69 90 88 89 90 64 67 63 64 70 71 79 81 90 93 90 86 81 67 74 77 78 78 67 70 80 91 94
69 67 70 71 96 97 95 86 77 81 60 41 68 54 64 61 54 69 81 90 90 88 74 67 67 66 68 79 73 64 69 84 87 98 99 78 78 68 68 87 80 89 85 93
64 59 66 61 57 90 92 96 87 84 58 48 44 53 49 54 60 58 64 76 84 83 78 69 65 77 70 72 80 76 81 87 95 95 93 97 97 95 94 99 98 88 92 88
80 75 71 77 52 80 82 82 89 79 78 54 39 42 49 60 60 58 63 57 56 57 65 65 70 87 86 79 76 80 83 88 84 77 71 76 78 87 85 88 86 89 94 88
86 84 78 72 86 82 84 96 92 92 95 90 58 55 67 59 49 51 54 49 43 44 52 76 76 85 83 78 74 72 75 76 74 70 66 60 58 60 65 68 72 75 76 73
82 84 81 60 66 92 98 94 77 87 97 87 84 81 75 64 45 42 42 42 44 50 50 60 78 80 80 74 90 76 74 70 66 67 70 66 59 54 55 53 56 59 65 68
66 89 74 62 87 84 93 93 90 92 99 93 77 85 80 78 70 49 44 40 41 49 51 48 47 47 50 56 62 83 96 87 82 73 70 66 62 59 58 64 73 75 74 71
59 66 72 63 76 91 85 84 76 95 98 85 80 94 86 86 90 82 64 58 59 57 55 55 55 56 54 51 46 49 64 86 92 79 76 72 63 59 56 53 52 53 55 60
46 50 66 83 87 89 82 59 59 60 79 88 85 92 96 98 95 92 82 65 63 61 56 50 46 46 51 55 54 54 56 69 81 92 76 64 62 58 58 57 53 50 50 53
35 45 62 75 88 86 62 58 44 51 87 89 93 72 86 78 88 74 78 75 69 59 53 52 50 46 44 42 47 55 60 63 62 62 63 67 67 68 72 72 70 66 60 58
41 48 66 75 63 81 85 90 91 100 100 99 100 93 80 71 74 72 72 74 75 74 70 60 54 53 54 52 49 50 52 53 59 65 70 72 75 78 80 72 57 47 44 47
39 41 45 77 72 73 96 77 90 97 94 97 88 87 93 88 81 85 78 79 78 73 75 72 67 61 56 55 53 53 52 52 51 51 51 51 49 46 43 42 42 42 45 48
29 36 68 79 50 58 74 72 86 95 90 94 94 91 86 82 79 68 69 78 75 76 77 76 80 84 80 67 58 57 57 56 56 54 52 51 49 47 45 44 43 43 43 44
27 31 40 72 64 42 74 54 67 72 90 82 90 90 86 80 100 91 76 72 71 82 89 86 80 76 73 69 66 63 59 57 57 56 56 55 51 51 49 47 46 45 43 42
27 29 62 65 64 45 26 35 45 89 86 71 75 81 83 83 82 76 89 91 85 85 92 98 98 91 84 78 74 74 71 65 59 56 54 51 52 53 54 54 49 49 47 42
36 46 52 63 71 54 26 33 58 54 42 48 45 47 52 59 75 83 82 78 76 75 83 85 97 100 96 89 83 76 72 68 65 62 58 55 53 52 53 49 46 50 47 42
33 35 61 32 51 31 28 35 35 40 44 46 53 56 61 58 54 64 86 92 87 92 88 91 86 85 92 90 78 72 62 53 48 44 43 43 46 45 47 49 50 48 46 47
20 21 27 25 27 27 31 34 32 32 38 47 50 59 57 57 65 61 56 85 98 91 94 90 90 86 83 81 77 78 70 59 54 51 48 46 44 44 47 59 68 66 60 60
30 20 20 18 21 26 28 28 25 28 36 29 32 36 43 45 46 61 65 58 76 93 87 88 84 78 82 82 81 85 78 68 61 57 54 55 57 59 66 82 88 85 90 98
12 14 16 27 19 24 23 23 24 30 29 31 36 36 34 35 36 48 50 67 61 80 93 87 76 76 76 84 88 85 82 77 73 75 81 84 98 98 99 100 100 100 100 100

GFSCGP_700_rhum_114.txt.gz
RH
92 86 95 99 98 88 94 84 75 60 62 66 56 58 83 82 97 74 74 87 93 95 96 86 76 79 67 68 85 82 92 100 62 72 54 29 22 24 20 26 40 44 49 50
96 86 95 90 74 91 97 94 82 70 72 73 56 52 84 85 95 96 83 78 92 90 95 91 80 86 80 86 71 66 94 99 77 59 82 44 41 26 24 34 44 48 49 50
80 76 89 91 84 89 87 96 83 85 81 76 89 68 76 88 93 99 83 69 82 92 88 91 97 93 86 86 78 75 94 99 83 45 43 46 39 31 29 37 44 48 49 50
76 81 87 82 83 81 83 87 86 71 78 90 73 74 80 94 92 99 82 71 63 76 84 94 92 86 95 88 98 100 82 99 99 73 40 38 36 31 29 36 42 46 51 52
57 88 81 69 88 88 83 85 72 78 69 78 63 64 94 84 83 93 74 68 76 76 80 76 89 77 99 100 100 99 100 97 100 98 70 56 50 44 36 35 39 43 46 47
61 61 60 63 52 61 66 54 75 75 75 76 57 57 96 94 94 96 92 63 67 72 81 87 86 78 81 89 90 91 99 100 99 98 100 93 81 74 71 62 46 44 49 54
71 70 72 73 76 75 93 87 85 88 89 85 53 56 65 59 78 98 99 88 72 72 79 87 76 76 73 81 89 98 89 96 99 99 98 99 92 88 87 95 95 90 83 73
64 65 72 55 89 91 84 88 96 95 94 90 61 77 55 58 69 72 100 100 99 80 80 79 85 91 85 83 95 99 86 82 92 97 99 97 88 96 96 79 63 72 82 72
79 60 70 77 53 66 71 86 87 94 63 62 50 54 52 60 59 65 82 98 99 99 81 77 78 81 86 90 79 80 71 80 87 98 98 98 96 90 72 80 83 83 70 65
82 79 80 70 85 87 89 80 86 82 94 69 58 64 76 59 58 66 63 68 66 97 83 78 76 71 73 80 81 84 88 91 88 96 99 92 91 94 88 92 88 77 73 76
87 83 70 66 85 85 78 80 94 87 92 97 96 98 80 78 64 72 61 57 52 58 76 81 76 75 65 84 88 87 91 91 90 93 100 92 92 84 88 96 85 93 96 92
82 72 67 78 79 96 78 91 86 93 88 93 97 97 83 87 77 62 66 55 60 60 58 61 74 76 88 89 82 83 84 86 82 86 80 71 68 62 58 63 67 68 76 74
40 62 82 86 95 82 85 84 81 89 98 81 89 97 97 82 74 77 64 66 67 65 62 59 59 80 85 88 95 94 96 93 83 81 86 81 75 66 62 58 59 62 58 59
42 51 67 87 77 75 78 56 63 71 88 85 95 96 92 82 78 75 86 72 66 62 61 59 59 58 55 52 52 54 64 81 95 97 91 88 80 79 76 69 64 61 60 66
40 45 51 62 82 84 78 47 49 51 65 88 81 82 96 98 88 92 73 71 68 63 58 54 52 52 54 57 56 55 49 64 85 88 94 99 96 90 85 70 60 60 59 56
38 46 69 49 37 34 40 49 44 56 82 86 90 98 98 99 85 72 68 68 68 62 58 58 54 48 45 45 50 56 60 60 59 79 90 99 95 92 87 70 68 69 70 68
38 41 71 77 55 75 82 78 75 88 99 92 98 82 81 79 76 63 62 68 67 67 68 64 61 59 56 54 53 58 66 71 74 75 77 88 94 86 79 75 75 73 69 66
33 34 41 52 74 87 51 54 67 65 63 73 78 80 81 90 97 78 77 64 66 72 71 69 68 66 64 61 60 58 57 58 61 69 77 84 85 84 82 78 75 64 47 44
25 30 44 63 66 48 63 45 61 47 46 61 65 69 81 81 89 95 80 73 75 72 74 76 75 75 70 70 69 64 59 57 56 54 53 53 52 51 50 48 46 44 43 42
25 26 32 52 71 56 67 30 36 38 66 66 59 73 78 83 87 92 85 86 77 69 66 60 67 72 75 74 72 63 62 63 61 60 59 59 58 57 55 52 51 50 48 46
23 25 31 70 66 45 32 22 27 58 48 40 38 38 45 58 70 76 81 80 96 89 81 77 64 65 72 72 73 72 68 66 64 63 62 63 61 58 56 54 53 54 56 52
25 34 37 54 66 59 22 23 31 29 33 31 33 37 44 46 48 46 63 80 82 81 84 90 83 76 75 75 77 79 76 72 69 67 64 63 60 57 55 55 56 56 57 57
29 25 53 35 39 25 22 22 25 28 32 27 40 45 47 46 46 54 54 53 79 83 83 85 88 84 75 73 78 84 84 78 66 57 52 50 50 51 48 49 52 54 55 55
21 21 23 22 21 19 21 22 23 21 24 27 38 33 38 42 43 46 56 59 53 75 88 84 88 97 89 83 85 83 75 76 68 65 58 50 48 46 45 44 49 55 64 64
28 24 18 15 17 18 19 20 20 19 21 26 24 30 32 28 29 32 42 52 62 56 73 85 82 86 84 80 81 82 82 77 70 67 62 56 50 50 49 51 54 58 77 80
15 11 12 13 12 15 16 18 18 15 17 22 25 28 19 16 20 19 27 41 47 61 55 73 87 84 80 72 76 80 90 86 79 72 72 66 65 70 70 78 86 90 99 97

GFSCGP_700_rhum_117.txt.gz
RH
88 91 78 92 91 88 91 90 93 85 85 82 72 74 59 60 80 91 79 88 100 87 76 63 89 91 100 93 86 98 89 96 100 82 71 61 98 68 77 37 22 18 29 40
100 77 85 93 91 85 86 97 92 99 97 94 77 66 72 66 80 95 93 89 81 87 68 91 97 98 96 82 85 96 93 94 99 97 83 33 28 36 43 23 26 23 38 46
85 79 83 89 88 73 82 88 97 91 79 76 78 65 88 90 77 94 92 92 74 89 70 92 100 97 98 94 80 96 96 94 79 100 96 80 32 36 51 28 28 26 42 49
62 92 85 86 83 90 80 87 86 72 76 76 68 82 90 93 93 96 93 96 88 88 87 88 77 95 99 99 96 92 94 100 99 95 100 97 65 59 34 27 28 32 44 49
34 52 54 45 55 92 88 68 62 63 79 77 62 89 96 100 100 100 94 94 80 82 91 92 100 100 99 96 98 91 91 89 98 90 97 100 96 66 55 37 30 35 44 48
72 76 71 78 46 83 76 79 55 51 75 80 65 75 74 85 96 98 94 100 94 89 84 93 99 95 93 92 99 100 100 97 90 80 92 98 98 98 79 46 41 42 46 50
63 80 74 72 42 77 79 78 87 87 90 89 65 71 86 73 89 95 100 92 100 100 100 99 98 78 87 97 99 100 99 99 100 89 96 96 74 80 73 58 45 43 45 46
80 68 74 80 84 88 74 92 97 96 91 93 68 66 89 68 72 73 99 100 100 100 100 98 100 98 99 95 97 100 100 99 97 100 98 99 95 84 74 81 72 76 70 82
86 63 79 78 86 73 79 77 84 96 94 91 77 74 59 64 68 82 72 99 92 94 100 100 100 100 99 99 98 99 99 98 95 99 100 100 100 96 97 85 92 98 97 95
86 85 75 74 54 69 78 78 77 82 94 95 91 100 99 92 85 70 77 85 84 96 85 82 93 100 98 100 90 95 98 98 98 100 100 98 99 97 99 99 93 89 86 84
67 76 66 63 95 81 73 80 87 92 93 97 96 98 96 98 97 88 76 75 70 60 84 90 87 97 98 94 97 95 98 98 94 99 99 100 97 94 98 99 98 100 97 93
59 60 84 98 92 80 77 76 83 89 82 96 95 98 96 94 98 95 84 74 71 67 66 77 73 74 86 88 93 83 90 97 97 96 98 100 100 100 99 99 100 99 100 99
36 36 76 88 69 39 62 67 68 93 94 100 96 97 92 96 99 100 93 80 68 64 62 61 72 88 89 93 86 94 92 94 87 97 95 100 99 100 99 99 98 98 94 94
40 48 47 74 75 67 43 52 57 59 70 90 84 86 86 97 94 90 88 81 71 63 59 57 60 63 71 85 83 73 71 78 76 91 99 98 99 96 97 99 99 97 91 92
37 44 43 49 51 44 43 46 49 51 58 80 79 96 82 85 91 89 82 78 74 67 61 55 52 52 57 61 59 55 51 55 69 77 95 99 99 100 92 96 95 80 63 56
31 42 42 54 61 39 40 44 42 66 77 70 82 88 88 86 86 79 78 69 70 72 68 66 61 54 52 49 52 59 62 60 56 78 93 100 99 98 97 98 94 89 73 58
29 31 43 41 58 75 65 46 47 49 56 62 66 71 75 72 57 55 62 60 66 70 72 71 67 66 61 55 52 54 60 63 71 75 83 86 89 87 84 92 95 84 76 76
26 26 29 43 68 63 37 52 56 54 55 57 57 69 80 62 62 74 67 67 66 66 70 69 70 71 71 71 68 61 57 58 67 77 85 89 87 90 91 93 90 83 80 78
20 24 30 35 63 51 42 30 30 36 40 48 53 70 80 63 61 75 77 73 69 66 67 69 70 71 69 69 70 71 70 66 62 60 58 57 58 62 68 71 75 68 59 49
23 21 23 33 58 64 33 28 22 25 60 38 38 59 67 75 62 56 67 73 71 70 67 72 69 66 67 66 67 65 63 65 65 65 65 64 62 59 58 56 54 54 52 50
23 22 23 38 50 26 25 27 22 31 26 26 29 34 36 37 38 48 54 61 67 80 78 71 66 61 59 64 69 66 62 61 61 61 60 61 63 63 62 61 60 59 56 54
28 25 24 34 58 34 18 18 22 17 21 21 22 26 31 34 40 42 42 40 57 67 69 72 71 69 69 66 63 61 67 68 65 63 60 61 61 62 62 62 62 60 58 56
29 19 22 27 13 14 15 14 16 18 18 18 22 21 24 29 30 32 35 41 44 46 67 64 65 71 70 66 65 65 66 67 70 73 76 73 64 60 58 57 58 58 56 55
25 27 26 20 12 12 15 13 15 15 15 15 20 23 26 27 25 27 30 34 37 45 46 67 62 60 66 71 69 64 63 66 64 65 69 68 64 59 53 50 49 49 49 52
24 26 22 15 10 11 12 12 13 13 12 14 18 21 22 23 18 17 18 20 29 41 49 47 58 69 67 66 61 58 59 59 65 66 67 69 68 62 59 57 53 52 53 53
24 24 27 20 8 9 9 11 11 12 12 12 15 16 18 20 15 14 11 11 20 34 49 50 45 54 68 71 65 60 56 58 65 71 71 68 66 65 63 67 69 66 64 65